<?xml version="1.0" encoding="UTF-8" standalone="no" ?>
<gpx xmlns="http://www.topografix.com/GPX/1/1" xmlns:xsi="http://www.w3.org/2001/XMLSchema-instance" xsi:schemaLocation="http://www.topografix.com/GPX/1/1 http://www.topografix.com/GPX/1/1/gpx.xsd" version="1.1" creator="VisuGPX - https://www.visugpx.com">
  <metadata>
    <name>Monts du lyonnais par Bruno 2</name>
  </metadata>
  <trk>
    <name><![CDATA[Activité de VTT, réalisée avec Twonav | Ride | Strava]]></name>
    <trkseg>
      <trkpt lat="45.76613" lon="4.66077">
        <ele>420.6</ele>
        <time>2021-02-08T08:29:00.000Z</time>
      </trkpt>
      <trkpt lat="45.76613" lon="4.66077">
        <ele>420.6</ele>
        <time>2021-02-08T08:29:01.000Z</time>
      </trkpt>
      <trkpt lat="45.76613" lon="4.66077">
        <ele>420.6</ele>
        <time>2021-02-08T08:29:07.000Z</time>
      </trkpt>
      <trkpt lat="45.76613" lon="4.66077">
        <ele>420.6</ele>
        <time>2021-02-08T08:29:08.000Z</time>
      </trkpt>
      <trkpt lat="45.76614" lon="4.66078">
        <ele>420.6</ele>
        <time>2021-02-08T08:29:14.000Z</time>
      </trkpt>
      <trkpt lat="45.76608" lon="4.66088">
        <ele>420.6</ele>
        <time>2021-02-08T08:29:21.000Z</time>
      </trkpt>
      <trkpt lat="45.76599" lon="4.66096">
        <ele>420.7</ele>
        <time>2021-02-08T08:29:25.000Z</time>
      </trkpt>
      <trkpt lat="45.76589" lon="4.66102">
        <ele>420.8</ele>
        <time>2021-02-08T08:29:29.000Z</time>
      </trkpt>
      <trkpt lat="45.7658" lon="4.66106">
        <ele>421</ele>
        <time>2021-02-08T08:29:32.000Z</time>
      </trkpt>
      <trkpt lat="45.76568" lon="4.66112">
        <ele>421.2</ele>
        <time>2021-02-08T08:29:36.000Z</time>
      </trkpt>
      <trkpt lat="45.76568" lon="4.66112">
        <ele>421.2</ele>
        <time>2021-02-08T08:29:36.000Z</time>
      </trkpt>
      <trkpt lat="45.76557" lon="4.66116">
        <ele>421.6</ele>
        <time>2021-02-08T08:29:40.000Z</time>
      </trkpt>
      <trkpt lat="45.76546" lon="4.66118">
        <ele>422.2</ele>
        <time>2021-02-08T08:29:44.000Z</time>
      </trkpt>
      <trkpt lat="45.76534" lon="4.66115">
        <ele>423</ele>
        <time>2021-02-08T08:29:48.000Z</time>
      </trkpt>
      <trkpt lat="45.76523" lon="4.66112">
        <ele>423.8</ele>
        <time>2021-02-08T08:29:52.000Z</time>
      </trkpt>
      <trkpt lat="45.76513" lon="4.66107">
        <ele>424.6</ele>
        <time>2021-02-08T08:29:59.000Z</time>
      </trkpt>
      <trkpt lat="45.76506" lon="4.66095">
        <ele>425.4</ele>
        <time>2021-02-08T08:30:03.000Z</time>
      </trkpt>
      <trkpt lat="45.76502" lon="4.66081">
        <ele>425.9</ele>
        <time>2021-02-08T08:30:07.000Z</time>
      </trkpt>
      <trkpt lat="45.76503" lon="4.66065">
        <ele>427.2</ele>
        <time>2021-02-08T08:30:12.000Z</time>
      </trkpt>
      <trkpt lat="45.76504" lon="4.6605">
        <ele>428.5</ele>
        <time>2021-02-08T08:30:17.000Z</time>
      </trkpt>
      <trkpt lat="45.76506" lon="4.66034">
        <ele>429.7</ele>
        <time>2021-02-08T08:30:22.000Z</time>
      </trkpt>
      <trkpt lat="45.76508" lon="4.66019">
        <ele>430.4</ele>
        <time>2021-02-08T08:30:27.000Z</time>
      </trkpt>
      <trkpt lat="45.76511" lon="4.66005">
        <ele>430.9</ele>
        <time>2021-02-08T08:30:32.000Z</time>
      </trkpt>
      <trkpt lat="45.76518" lon="4.65994">
        <ele>432</ele>
        <time>2021-02-08T08:30:37.000Z</time>
      </trkpt>
      <trkpt lat="45.76528" lon="4.65989">
        <ele>432.6</ele>
        <time>2021-02-08T08:30:42.000Z</time>
      </trkpt>
      <trkpt lat="45.76539" lon="4.65986">
        <ele>433.4</ele>
        <time>2021-02-08T08:30:47.000Z</time>
      </trkpt>
      <trkpt lat="45.7655" lon="4.65985">
        <ele>434.1</ele>
        <time>2021-02-08T08:30:52.000Z</time>
      </trkpt>
      <trkpt lat="45.7656" lon="4.65983">
        <ele>434.7</ele>
        <time>2021-02-08T08:30:57.000Z</time>
      </trkpt>
      <trkpt lat="45.7657" lon="4.65981">
        <ele>435.4</ele>
        <time>2021-02-08T08:31:02.000Z</time>
      </trkpt>
      <trkpt lat="45.76581" lon="4.65979">
        <ele>436.1</ele>
        <time>2021-02-08T08:31:07.000Z</time>
      </trkpt>
      <trkpt lat="45.7659" lon="4.65977">
        <ele>436.7</ele>
        <time>2021-02-08T08:31:11.000Z</time>
      </trkpt>
      <trkpt lat="45.766" lon="4.65976">
        <ele>437.3</ele>
        <time>2021-02-08T08:31:15.000Z</time>
      </trkpt>
      <trkpt lat="45.76609" lon="4.65974">
        <ele>437.8</ele>
        <time>2021-02-08T08:31:19.000Z</time>
      </trkpt>
      <trkpt lat="45.76619" lon="4.65973">
        <ele>438.4</ele>
        <time>2021-02-08T08:31:23.000Z</time>
      </trkpt>
      <trkpt lat="45.76628" lon="4.65972">
        <ele>438.9</ele>
        <time>2021-02-08T08:31:27.000Z</time>
      </trkpt>
      <trkpt lat="45.76638" lon="4.65972">
        <ele>439.5</ele>
        <time>2021-02-08T08:31:31.000Z</time>
      </trkpt>
      <trkpt lat="45.76648" lon="4.65975">
        <ele>440.2</ele>
        <time>2021-02-08T08:31:35.000Z</time>
      </trkpt>
      <trkpt lat="45.76658" lon="4.65978">
        <ele>440.9</ele>
        <time>2021-02-08T08:31:39.000Z</time>
      </trkpt>
      <trkpt lat="45.76667" lon="4.6598">
        <ele>441.3</ele>
        <time>2021-02-08T08:31:43.000Z</time>
      </trkpt>
      <trkpt lat="45.76676" lon="4.65982">
        <ele>441.5</ele>
        <time>2021-02-08T08:31:47.000Z</time>
      </trkpt>
      <trkpt lat="45.76686" lon="4.65982">
        <ele>442.2</ele>
        <time>2021-02-08T08:31:51.000Z</time>
      </trkpt>
      <trkpt lat="45.76696" lon="4.6598">
        <ele>442.9</ele>
        <time>2021-02-08T08:31:55.000Z</time>
      </trkpt>
      <trkpt lat="45.76706" lon="4.65981">
        <ele>443.6</ele>
        <time>2021-02-08T08:31:59.000Z</time>
      </trkpt>
      <trkpt lat="45.76715" lon="4.6598">
        <ele>444.3</ele>
        <time>2021-02-08T08:32:03.000Z</time>
      </trkpt>
      <trkpt lat="45.76726" lon="4.6598">
        <ele>445.2</ele>
        <time>2021-02-08T08:32:08.000Z</time>
      </trkpt>
      <trkpt lat="45.76736" lon="4.65979">
        <ele>446.1</ele>
        <time>2021-02-08T08:32:13.000Z</time>
      </trkpt>
      <trkpt lat="45.76746" lon="4.65978">
        <ele>447</ele>
        <time>2021-02-08T08:32:18.000Z</time>
      </trkpt>
      <trkpt lat="45.76756" lon="4.65977">
        <ele>447.9</ele>
        <time>2021-02-08T08:32:23.000Z</time>
      </trkpt>
      <trkpt lat="45.76766" lon="4.65976">
        <ele>448.8</ele>
        <time>2021-02-08T08:32:28.000Z</time>
      </trkpt>
      <trkpt lat="45.76775" lon="4.65971">
        <ele>449.7</ele>
        <time>2021-02-08T08:32:33.000Z</time>
      </trkpt>
      <trkpt lat="45.76784" lon="4.65963">
        <ele>450.7</ele>
        <time>2021-02-08T08:32:38.000Z</time>
      </trkpt>
      <trkpt lat="45.76792" lon="4.65954">
        <ele>451.5</ele>
        <time>2021-02-08T08:32:43.000Z</time>
      </trkpt>
      <trkpt lat="45.768" lon="4.65943">
        <ele>452.4</ele>
        <time>2021-02-08T08:32:48.000Z</time>
      </trkpt>
      <trkpt lat="45.76806" lon="4.6593">
        <ele>453.2</ele>
        <time>2021-02-08T08:32:53.000Z</time>
      </trkpt>
      <trkpt lat="45.76812" lon="4.65917">
        <ele>454</ele>
        <time>2021-02-08T08:32:58.000Z</time>
      </trkpt>
      <trkpt lat="45.76815" lon="4.65905">
        <ele>454.5</ele>
        <time>2021-02-08T08:33:02.000Z</time>
      </trkpt>
      <trkpt lat="45.76818" lon="4.65893">
        <ele>454.9</ele>
        <time>2021-02-08T08:33:06.000Z</time>
      </trkpt>
      <trkpt lat="45.76818" lon="4.65878">
        <ele>455.3</ele>
        <time>2021-02-08T08:33:10.000Z</time>
      </trkpt>
      <trkpt lat="45.76818" lon="4.65863">
        <ele>455.6</ele>
        <time>2021-02-08T08:33:14.000Z</time>
      </trkpt>
      <trkpt lat="45.76816" lon="4.65848">
        <ele>455.9</ele>
        <time>2021-02-08T08:33:18.000Z</time>
      </trkpt>
      <trkpt lat="45.76813" lon="4.65832">
        <ele>456.1</ele>
        <time>2021-02-08T08:33:22.000Z</time>
      </trkpt>
      <trkpt lat="45.76811" lon="4.6582">
        <ele>456.3</ele>
        <time>2021-02-08T08:33:25.000Z</time>
      </trkpt>
      <trkpt lat="45.76809" lon="4.65807">
        <ele>456.5</ele>
        <time>2021-02-08T08:33:28.000Z</time>
      </trkpt>
      <trkpt lat="45.76806" lon="4.65791">
        <ele>456.7</ele>
        <time>2021-02-08T08:33:32.000Z</time>
      </trkpt>
      <trkpt lat="45.76803" lon="4.65778">
        <ele>456.9</ele>
        <time>2021-02-08T08:33:35.000Z</time>
      </trkpt>
      <trkpt lat="45.768" lon="4.65766">
        <ele>457</ele>
        <time>2021-02-08T08:33:38.000Z</time>
      </trkpt>
      <trkpt lat="45.76796" lon="4.65753">
        <ele>457.3</ele>
        <time>2021-02-08T08:33:41.000Z</time>
      </trkpt>
      <trkpt lat="45.76792" lon="4.6574">
        <ele>457.5</ele>
        <time>2021-02-08T08:33:44.000Z</time>
      </trkpt>
      <trkpt lat="45.76789" lon="4.65727">
        <ele>457.8</ele>
        <time>2021-02-08T08:33:47.000Z</time>
      </trkpt>
      <trkpt lat="45.76786" lon="4.65715">
        <ele>458.1</ele>
        <time>2021-02-08T08:33:50.000Z</time>
      </trkpt>
      <trkpt lat="45.76783" lon="4.65702">
        <ele>458.3</ele>
        <time>2021-02-08T08:33:53.000Z</time>
      </trkpt>
      <trkpt lat="45.76778" lon="4.65687">
        <ele>458.7</ele>
        <time>2021-02-08T08:33:57.000Z</time>
      </trkpt>
      <trkpt lat="45.76774" lon="4.65673">
        <ele>459.1</ele>
        <time>2021-02-08T08:34:01.000Z</time>
      </trkpt>
      <trkpt lat="45.7677" lon="4.65659">
        <ele>459.5</ele>
        <time>2021-02-08T08:34:05.000Z</time>
      </trkpt>
      <trkpt lat="45.76766" lon="4.65645">
        <ele>459.9</ele>
        <time>2021-02-08T08:34:09.000Z</time>
      </trkpt>
      <trkpt lat="45.76762" lon="4.65631">
        <ele>460.6</ele>
        <time>2021-02-08T08:34:13.000Z</time>
      </trkpt>
      <trkpt lat="45.76758" lon="4.65617">
        <ele>461.3</ele>
        <time>2021-02-08T08:34:17.000Z</time>
      </trkpt>
      <trkpt lat="45.76753" lon="4.65604">
        <ele>461.9</ele>
        <time>2021-02-08T08:34:21.000Z</time>
      </trkpt>
      <trkpt lat="45.7675" lon="4.6559">
        <ele>462.6</ele>
        <time>2021-02-08T08:34:25.000Z</time>
      </trkpt>
      <trkpt lat="45.76747" lon="4.65577">
        <ele>463.4</ele>
        <time>2021-02-08T08:34:29.000Z</time>
      </trkpt>
      <trkpt lat="45.76743" lon="4.65564">
        <ele>464.1</ele>
        <time>2021-02-08T08:34:33.000Z</time>
      </trkpt>
      <trkpt lat="45.76738" lon="4.65551">
        <ele>464.9</ele>
        <time>2021-02-08T08:34:37.000Z</time>
      </trkpt>
      <trkpt lat="45.76734" lon="4.65537">
        <ele>465.7</ele>
        <time>2021-02-08T08:34:41.000Z</time>
      </trkpt>
      <trkpt lat="45.76731" lon="4.65524">
        <ele>466.6</ele>
        <time>2021-02-08T08:34:45.000Z</time>
      </trkpt>
      <trkpt lat="45.76727" lon="4.65511">
        <ele>467.4</ele>
        <time>2021-02-08T08:34:49.000Z</time>
      </trkpt>
      <trkpt lat="45.76724" lon="4.65497">
        <ele>467.9</ele>
        <time>2021-02-08T08:34:53.000Z</time>
      </trkpt>
      <trkpt lat="45.7672" lon="4.65484">
        <ele>468.4</ele>
        <time>2021-02-08T08:34:57.000Z</time>
      </trkpt>
      <trkpt lat="45.76717" lon="4.65471">
        <ele>469.2</ele>
        <time>2021-02-08T08:35:01.000Z</time>
      </trkpt>
      <trkpt lat="45.76711" lon="4.65457">
        <ele>470.2</ele>
        <time>2021-02-08T08:35:06.000Z</time>
      </trkpt>
      <trkpt lat="45.76706" lon="4.65443">
        <ele>471.1</ele>
        <time>2021-02-08T08:35:11.000Z</time>
      </trkpt>
      <trkpt lat="45.76701" lon="4.6543">
        <ele>471.9</ele>
        <time>2021-02-08T08:35:16.000Z</time>
      </trkpt>
      <trkpt lat="45.76696" lon="4.65415">
        <ele>472.6</ele>
        <time>2021-02-08T08:35:21.000Z</time>
      </trkpt>
      <trkpt lat="45.76692" lon="4.65403">
        <ele>473</ele>
        <time>2021-02-08T08:35:25.000Z</time>
      </trkpt>
      <trkpt lat="45.76689" lon="4.65391">
        <ele>473.3</ele>
        <time>2021-02-08T08:35:29.000Z</time>
      </trkpt>
      <trkpt lat="45.76686" lon="4.65376">
        <ele>473.5</ele>
        <time>2021-02-08T08:35:33.000Z</time>
      </trkpt>
      <trkpt lat="45.76683" lon="4.65361">
        <ele>473.7</ele>
        <time>2021-02-08T08:35:37.000Z</time>
      </trkpt>
      <trkpt lat="45.76681" lon="4.65346">
        <ele>473.8</ele>
        <time>2021-02-08T08:35:41.000Z</time>
      </trkpt>
      <trkpt lat="45.76679" lon="4.6533">
        <ele>473.9</ele>
        <time>2021-02-08T08:35:45.000Z</time>
      </trkpt>
      <trkpt lat="45.76679" lon="4.65315">
        <ele>474.2</ele>
        <time>2021-02-08T08:35:49.000Z</time>
      </trkpt>
      <trkpt lat="45.76678" lon="4.65297">
        <ele>474.5</ele>
        <time>2021-02-08T08:35:53.000Z</time>
      </trkpt>
      <trkpt lat="45.76678" lon="4.65284">
        <ele>474.8</ele>
        <time>2021-02-08T08:35:56.000Z</time>
      </trkpt>
      <trkpt lat="45.76677" lon="4.65271">
        <ele>475.1</ele>
        <time>2021-02-08T08:35:59.000Z</time>
      </trkpt>
      <trkpt lat="45.76677" lon="4.65253">
        <ele>475.5</ele>
        <time>2021-02-08T08:36:03.000Z</time>
      </trkpt>
      <trkpt lat="45.76676" lon="4.6524">
        <ele>475.8</ele>
        <time>2021-02-08T08:36:06.000Z</time>
      </trkpt>
      <trkpt lat="45.76675" lon="4.65227">
        <ele>476.1</ele>
        <time>2021-02-08T08:36:09.000Z</time>
      </trkpt>
      <trkpt lat="45.76675" lon="4.6521">
        <ele>476.6</ele>
        <time>2021-02-08T08:36:13.000Z</time>
      </trkpt>
      <trkpt lat="45.76674" lon="4.65193">
        <ele>477.1</ele>
        <time>2021-02-08T08:36:17.000Z</time>
      </trkpt>
      <trkpt lat="45.76673" lon="4.65177">
        <ele>477.7</ele>
        <time>2021-02-08T08:36:21.000Z</time>
      </trkpt>
      <trkpt lat="45.76676" lon="4.65163">
        <ele>479.3</ele>
        <time>2021-02-08T08:36:25.000Z</time>
      </trkpt>
      <trkpt lat="45.7668" lon="4.65152">
        <ele>480.8</ele>
        <time>2021-02-08T08:36:29.000Z</time>
      </trkpt>
      <trkpt lat="45.76686" lon="4.6514">
        <ele>481.9</ele>
        <time>2021-02-08T08:36:33.000Z</time>
      </trkpt>
      <trkpt lat="45.76691" lon="4.65129">
        <ele>482.2</ele>
        <time>2021-02-08T08:36:37.000Z</time>
      </trkpt>
      <trkpt lat="45.76697" lon="4.65118">
        <ele>482.5</ele>
        <time>2021-02-08T08:36:41.000Z</time>
      </trkpt>
      <trkpt lat="45.76702" lon="4.65103">
        <ele>482.5</ele>
        <time>2021-02-08T08:36:45.000Z</time>
      </trkpt>
      <trkpt lat="45.76707" lon="4.65085">
        <ele>481.7</ele>
        <time>2021-02-08T08:36:48.000Z</time>
      </trkpt>
      <trkpt lat="45.76709" lon="4.65067">
        <ele>480.8</ele>
        <time>2021-02-08T08:36:50.000Z</time>
      </trkpt>
      <trkpt lat="45.76712" lon="4.65051">
        <ele>480</ele>
        <time>2021-02-08T08:36:52.000Z</time>
      </trkpt>
      <trkpt lat="45.76719" lon="4.6504">
        <ele>479.7</ele>
        <time>2021-02-08T08:36:54.000Z</time>
      </trkpt>
      <trkpt lat="45.76729" lon="4.65037">
        <ele>479.5</ele>
        <time>2021-02-08T08:36:56.000Z</time>
      </trkpt>
      <trkpt lat="45.76738" lon="4.6504">
        <ele>479.4</ele>
        <time>2021-02-08T08:36:58.000Z</time>
      </trkpt>
      <trkpt lat="45.76751" lon="4.65045">
        <ele>479.5</ele>
        <time>2021-02-08T08:37:01.000Z</time>
      </trkpt>
      <trkpt lat="45.76763" lon="4.65047">
        <ele>479.6</ele>
        <time>2021-02-08T08:37:04.000Z</time>
      </trkpt>
      <trkpt lat="45.76774" lon="4.6505">
        <ele>479.8</ele>
        <time>2021-02-08T08:37:07.000Z</time>
      </trkpt>
      <trkpt lat="45.76784" lon="4.65053">
        <ele>480</ele>
        <time>2021-02-08T08:37:10.000Z</time>
      </trkpt>
      <trkpt lat="45.76794" lon="4.65055">
        <ele>480.4</ele>
        <time>2021-02-08T08:37:13.000Z</time>
      </trkpt>
      <trkpt lat="45.76803" lon="4.65056">
        <ele>480.7</ele>
        <time>2021-02-08T08:37:16.000Z</time>
      </trkpt>
      <trkpt lat="45.76813" lon="4.65055">
        <ele>481.2</ele>
        <time>2021-02-08T08:37:19.000Z</time>
      </trkpt>
      <trkpt lat="45.76824" lon="4.65051">
        <ele>481.6</ele>
        <time>2021-02-08T08:37:23.000Z</time>
      </trkpt>
      <trkpt lat="45.76833" lon="4.65042">
        <ele>482.2</ele>
        <time>2021-02-08T08:37:27.000Z</time>
      </trkpt>
      <trkpt lat="45.76843" lon="4.65032">
        <ele>482.8</ele>
        <time>2021-02-08T08:37:31.000Z</time>
      </trkpt>
      <trkpt lat="45.76853" lon="4.65024">
        <ele>483.6</ele>
        <time>2021-02-08T08:37:35.000Z</time>
      </trkpt>
      <trkpt lat="45.76861" lon="4.65014">
        <ele>484.6</ele>
        <time>2021-02-08T08:37:39.000Z</time>
      </trkpt>
      <trkpt lat="45.76869" lon="4.65004">
        <ele>485.9</ele>
        <time>2021-02-08T08:37:44.000Z</time>
      </trkpt>
      <trkpt lat="45.76875" lon="4.64993">
        <ele>487.5</ele>
        <time>2021-02-08T08:37:51.000Z</time>
      </trkpt>
      <trkpt lat="45.76882" lon="4.64983">
        <ele>489.3</ele>
        <time>2021-02-08T08:37:58.000Z</time>
      </trkpt>
      <trkpt lat="45.7689" lon="4.64976">
        <ele>490.9</ele>
        <time>2021-02-08T08:38:06.000Z</time>
      </trkpt>
      <trkpt lat="45.76899" lon="4.64972">
        <ele>492.7</ele>
        <time>2021-02-08T08:38:15.000Z</time>
      </trkpt>
      <trkpt lat="45.76909" lon="4.6497">
        <ele>494.5</ele>
        <time>2021-02-08T08:38:22.000Z</time>
      </trkpt>
      <trkpt lat="45.76918" lon="4.6497">
        <ele>496.2</ele>
        <time>2021-02-08T08:38:29.000Z</time>
      </trkpt>
      <trkpt lat="45.76928" lon="4.64974">
        <ele>498.1</ele>
        <time>2021-02-08T08:38:37.000Z</time>
      </trkpt>
      <trkpt lat="45.76937" lon="4.64979">
        <ele>500</ele>
        <time>2021-02-08T08:38:46.000Z</time>
      </trkpt>
      <trkpt lat="45.76945" lon="4.64985">
        <ele>501.5</ele>
        <time>2021-02-08T08:38:54.000Z</time>
      </trkpt>
      <trkpt lat="45.76953" lon="4.64993">
        <ele>502.7</ele>
        <time>2021-02-08T08:39:01.000Z</time>
      </trkpt>
      <trkpt lat="45.76962" lon="4.64998">
        <ele>503.5</ele>
        <time>2021-02-08T08:39:07.000Z</time>
      </trkpt>
      <trkpt lat="45.76971" lon="4.65001">
        <ele>504.3</ele>
        <time>2021-02-08T08:39:13.000Z</time>
      </trkpt>
      <trkpt lat="45.7698" lon="4.65003">
        <ele>505.2</ele>
        <time>2021-02-08T08:39:19.000Z</time>
      </trkpt>
      <trkpt lat="45.76985" lon="4.64991">
        <ele>507.8</ele>
        <time>2021-02-08T08:39:28.000Z</time>
      </trkpt>
      <trkpt lat="45.76983" lon="4.64978">
        <ele>508.8</ele>
        <time>2021-02-08T08:39:35.000Z</time>
      </trkpt>
      <trkpt lat="45.76979" lon="4.64965">
        <ele>509.8</ele>
        <time>2021-02-08T08:39:42.000Z</time>
      </trkpt>
      <trkpt lat="45.7698" lon="4.6495">
        <ele>512.3</ele>
        <time>2021-02-08T08:39:49.000Z</time>
      </trkpt>
      <trkpt lat="45.76984" lon="4.64938">
        <ele>513.7</ele>
        <time>2021-02-08T08:39:56.000Z</time>
      </trkpt>
      <trkpt lat="45.76982" lon="4.64925">
        <ele>514.3</ele>
        <time>2021-02-08T08:40:03.000Z</time>
      </trkpt>
      <trkpt lat="45.7698" lon="4.6491">
        <ele>515</ele>
        <time>2021-02-08T08:40:10.000Z</time>
      </trkpt>
      <trkpt lat="45.76976" lon="4.64897">
        <ele>515.7</ele>
        <time>2021-02-08T08:40:17.000Z</time>
      </trkpt>
      <trkpt lat="45.76972" lon="4.64885">
        <ele>516.2</ele>
        <time>2021-02-08T08:40:24.000Z</time>
      </trkpt>
      <trkpt lat="45.76971" lon="4.64871">
        <ele>520.2</ele>
        <time>2021-02-08T08:40:30.000Z</time>
      </trkpt>
      <trkpt lat="45.76968" lon="4.64859">
        <ele>521.6</ele>
        <time>2021-02-08T08:40:37.000Z</time>
      </trkpt>
      <trkpt lat="45.76967" lon="4.64846">
        <ele>523.2</ele>
        <time>2021-02-08T08:40:45.000Z</time>
      </trkpt>
      <trkpt lat="45.76965" lon="4.64833">
        <ele>524.9</ele>
        <time>2021-02-08T08:40:52.000Z</time>
      </trkpt>
      <trkpt lat="45.76962" lon="4.6482">
        <ele>526.9</ele>
        <time>2021-02-08T08:41:01.000Z</time>
      </trkpt>
      <trkpt lat="45.76959" lon="4.64807">
        <ele>528.8</ele>
        <time>2021-02-08T08:41:09.000Z</time>
      </trkpt>
      <trkpt lat="45.76955" lon="4.64795">
        <ele>530.4</ele>
        <time>2021-02-08T08:41:17.000Z</time>
      </trkpt>
      <trkpt lat="45.76951" lon="4.64783">
        <ele>531.9</ele>
        <time>2021-02-08T08:41:24.000Z</time>
      </trkpt>
      <trkpt lat="45.7695" lon="4.64769">
        <ele>533.6</ele>
        <time>2021-02-08T08:41:32.000Z</time>
      </trkpt>
      <trkpt lat="45.76944" lon="4.64758">
        <ele>535.3</ele>
        <time>2021-02-08T08:41:40.000Z</time>
      </trkpt>
      <trkpt lat="45.76946" lon="4.64745">
        <ele>536.4</ele>
        <time>2021-02-08T08:41:48.000Z</time>
      </trkpt>
      <trkpt lat="45.76952" lon="4.64735">
        <ele>537.5</ele>
        <time>2021-02-08T08:41:54.000Z</time>
      </trkpt>
      <trkpt lat="45.76958" lon="4.64723">
        <ele>538.8</ele>
        <time>2021-02-08T08:42:01.000Z</time>
      </trkpt>
      <trkpt lat="45.76963" lon="4.64712">
        <ele>539.9</ele>
        <time>2021-02-08T08:42:08.000Z</time>
      </trkpt>
      <trkpt lat="45.76968" lon="4.64701">
        <ele>541</ele>
        <time>2021-02-08T08:42:15.000Z</time>
      </trkpt>
      <trkpt lat="45.76973" lon="4.64688">
        <ele>542</ele>
        <time>2021-02-08T08:42:22.000Z</time>
      </trkpt>
      <trkpt lat="45.76976" lon="4.64675">
        <ele>543</ele>
        <time>2021-02-08T08:42:29.000Z</time>
      </trkpt>
      <trkpt lat="45.76982" lon="4.64664">
        <ele>543.9</ele>
        <time>2021-02-08T08:42:36.000Z</time>
      </trkpt>
      <trkpt lat="45.76987" lon="4.64653">
        <ele>545</ele>
        <time>2021-02-08T08:42:43.000Z</time>
      </trkpt>
      <trkpt lat="45.76994" lon="4.64642">
        <ele>546.4</ele>
        <time>2021-02-08T08:42:50.000Z</time>
      </trkpt>
      <trkpt lat="45.77" lon="4.64631">
        <ele>547.9</ele>
        <time>2021-02-08T08:42:57.000Z</time>
      </trkpt>
      <trkpt lat="45.77007" lon="4.64622">
        <ele>549.2</ele>
        <time>2021-02-08T08:43:03.000Z</time>
      </trkpt>
      <trkpt lat="45.77013" lon="4.64612">
        <ele>550.6</ele>
        <time>2021-02-08T08:43:09.000Z</time>
      </trkpt>
      <trkpt lat="45.7702" lon="4.64603">
        <ele>552</ele>
        <time>2021-02-08T08:43:16.000Z</time>
      </trkpt>
      <trkpt lat="45.77026" lon="4.64593">
        <ele>553.6</ele>
        <time>2021-02-08T08:43:23.000Z</time>
      </trkpt>
      <trkpt lat="45.77032" lon="4.64582">
        <ele>555.3</ele>
        <time>2021-02-08T08:43:30.000Z</time>
      </trkpt>
      <trkpt lat="45.77038" lon="4.64571">
        <ele>556.9</ele>
        <time>2021-02-08T08:43:38.000Z</time>
      </trkpt>
      <trkpt lat="45.77045" lon="4.64562">
        <ele>558.6</ele>
        <time>2021-02-08T08:43:46.000Z</time>
      </trkpt>
      <trkpt lat="45.77049" lon="4.64551">
        <ele>560.3</ele>
        <time>2021-02-08T08:43:54.000Z</time>
      </trkpt>
      <trkpt lat="45.77057" lon="4.64543">
        <ele>562.3</ele>
        <time>2021-02-08T08:44:04.000Z</time>
      </trkpt>
      <trkpt lat="45.77061" lon="4.6453">
        <ele>564.3</ele>
        <time>2021-02-08T08:44:13.000Z</time>
      </trkpt>
      <trkpt lat="45.77068" lon="4.64521">
        <ele>566</ele>
        <time>2021-02-08T08:44:22.000Z</time>
      </trkpt>
      <trkpt lat="45.77075" lon="4.64513">
        <ele>567.6</ele>
        <time>2021-02-08T08:44:32.000Z</time>
      </trkpt>
      <trkpt lat="45.77082" lon="4.64503">
        <ele>569.1</ele>
        <time>2021-02-08T08:44:39.000Z</time>
      </trkpt>
      <trkpt lat="45.77087" lon="4.64491">
        <ele>570.7</ele>
        <time>2021-02-08T08:44:45.000Z</time>
      </trkpt>
      <trkpt lat="45.77093" lon="4.64481">
        <ele>572.2</ele>
        <time>2021-02-08T08:44:52.000Z</time>
      </trkpt>
      <trkpt lat="45.77097" lon="4.64468">
        <ele>573.6</ele>
        <time>2021-02-08T08:45:02.000Z</time>
      </trkpt>
      <trkpt lat="45.77097" lon="4.64454">
        <ele>574.8</ele>
        <time>2021-02-08T08:45:09.000Z</time>
      </trkpt>
      <trkpt lat="45.77096" lon="4.64439">
        <ele>575.9</ele>
        <time>2021-02-08T08:45:17.000Z</time>
      </trkpt>
      <trkpt lat="45.77095" lon="4.64425">
        <ele>576.9</ele>
        <time>2021-02-08T08:45:24.000Z</time>
      </trkpt>
      <trkpt lat="45.77097" lon="4.64412">
        <ele>577.8</ele>
        <time>2021-02-08T08:45:32.000Z</time>
      </trkpt>
      <trkpt lat="45.77098" lon="4.64398">
        <ele>578.6</ele>
        <time>2021-02-08T08:45:39.000Z</time>
      </trkpt>
      <trkpt lat="45.77098" lon="4.64383">
        <ele>579.2</ele>
        <time>2021-02-08T08:45:46.000Z</time>
      </trkpt>
      <trkpt lat="45.77097" lon="4.64369">
        <ele>579.9</ele>
        <time>2021-02-08T08:45:53.000Z</time>
      </trkpt>
      <trkpt lat="45.77097" lon="4.64355">
        <ele>580.7</ele>
        <time>2021-02-08T08:45:59.000Z</time>
      </trkpt>
      <trkpt lat="45.77098" lon="4.64342">
        <ele>581.5</ele>
        <time>2021-02-08T08:46:05.000Z</time>
      </trkpt>
      <trkpt lat="45.77097" lon="4.64327">
        <ele>582.6</ele>
        <time>2021-02-08T08:46:12.000Z</time>
      </trkpt>
      <trkpt lat="45.77095" lon="4.64314">
        <ele>583.8</ele>
        <time>2021-02-08T08:46:20.000Z</time>
      </trkpt>
      <trkpt lat="45.77093" lon="4.64299">
        <ele>585.1</ele>
        <time>2021-02-08T08:46:27.000Z</time>
      </trkpt>
      <trkpt lat="45.77093" lon="4.64286">
        <ele>586.5</ele>
        <time>2021-02-08T08:46:34.000Z</time>
      </trkpt>
      <trkpt lat="45.77094" lon="4.64272">
        <ele>587.9</ele>
        <time>2021-02-08T08:46:41.000Z</time>
      </trkpt>
      <trkpt lat="45.77094" lon="4.64258">
        <ele>589.2</ele>
        <time>2021-02-08T08:46:48.000Z</time>
      </trkpt>
      <trkpt lat="45.77094" lon="4.64243">
        <ele>590.3</ele>
        <time>2021-02-08T08:46:55.000Z</time>
      </trkpt>
      <trkpt lat="45.77095" lon="4.6423">
        <ele>591.1</ele>
        <time>2021-02-08T08:47:01.000Z</time>
      </trkpt>
      <trkpt lat="45.77096" lon="4.64217">
        <ele>591.9</ele>
        <time>2021-02-08T08:47:06.000Z</time>
      </trkpt>
      <trkpt lat="45.77098" lon="4.64204">
        <ele>592.5</ele>
        <time>2021-02-08T08:47:12.000Z</time>
      </trkpt>
      <trkpt lat="45.77105" lon="4.64193">
        <ele>593.1</ele>
        <time>2021-02-08T08:47:18.000Z</time>
      </trkpt>
      <trkpt lat="45.77109" lon="4.6418">
        <ele>593.5</ele>
        <time>2021-02-08T08:47:23.000Z</time>
      </trkpt>
      <trkpt lat="45.77115" lon="4.64167">
        <ele>593.9</ele>
        <time>2021-02-08T08:47:28.000Z</time>
      </trkpt>
      <trkpt lat="45.77122" lon="4.64156">
        <ele>594.3</ele>
        <time>2021-02-08T08:47:33.000Z</time>
      </trkpt>
      <trkpt lat="45.77132" lon="4.64151">
        <ele>595.3</ele>
        <time>2021-02-08T08:47:38.000Z</time>
      </trkpt>
      <trkpt lat="45.77141" lon="4.64153">
        <ele>596.3</ele>
        <time>2021-02-08T08:47:43.000Z</time>
      </trkpt>
      <trkpt lat="45.77148" lon="4.64162">
        <ele>597.2</ele>
        <time>2021-02-08T08:47:49.000Z</time>
      </trkpt>
      <trkpt lat="45.77157" lon="4.64167">
        <ele>598.1</ele>
        <time>2021-02-08T08:47:54.000Z</time>
      </trkpt>
      <trkpt lat="45.77166" lon="4.64171">
        <ele>599.2</ele>
        <time>2021-02-08T08:48:00.000Z</time>
      </trkpt>
      <trkpt lat="45.77175" lon="4.64176">
        <ele>600.2</ele>
        <time>2021-02-08T08:48:05.000Z</time>
      </trkpt>
      <trkpt lat="45.77184" lon="4.64179">
        <ele>601.1</ele>
        <time>2021-02-08T08:48:11.000Z</time>
      </trkpt>
      <trkpt lat="45.77193" lon="4.6418">
        <ele>601.9</ele>
        <time>2021-02-08T08:48:17.000Z</time>
      </trkpt>
      <trkpt lat="45.77202" lon="4.64181">
        <ele>602.6</ele>
        <time>2021-02-08T08:48:22.000Z</time>
      </trkpt>
      <trkpt lat="45.77213" lon="4.64181">
        <ele>603.4</ele>
        <time>2021-02-08T08:48:28.000Z</time>
      </trkpt>
      <trkpt lat="45.77223" lon="4.64183">
        <ele>604.1</ele>
        <time>2021-02-08T08:48:34.000Z</time>
      </trkpt>
      <trkpt lat="45.77233" lon="4.64184">
        <ele>604.6</ele>
        <time>2021-02-08T08:48:40.000Z</time>
      </trkpt>
      <trkpt lat="45.77243" lon="4.64185">
        <ele>604.6</ele>
        <time>2021-02-08T08:48:45.000Z</time>
      </trkpt>
      <trkpt lat="45.77256" lon="4.64189">
        <ele>604.4</ele>
        <time>2021-02-08T08:48:49.000Z</time>
      </trkpt>
      <trkpt lat="45.77265" lon="4.64195">
        <ele>604.3</ele>
        <time>2021-02-08T08:48:52.000Z</time>
      </trkpt>
      <trkpt lat="45.77274" lon="4.64202">
        <ele>604.2</ele>
        <time>2021-02-08T08:48:55.000Z</time>
      </trkpt>
      <trkpt lat="45.77284" lon="4.64206">
        <ele>604</ele>
        <time>2021-02-08T08:48:58.000Z</time>
      </trkpt>
      <trkpt lat="45.77295" lon="4.6421">
        <ele>603.9</ele>
        <time>2021-02-08T08:49:01.000Z</time>
      </trkpt>
      <trkpt lat="45.77306" lon="4.64207">
        <ele>603.7</ele>
        <time>2021-02-08T08:49:04.000Z</time>
      </trkpt>
      <trkpt lat="45.77316" lon="4.642">
        <ele>603.5</ele>
        <time>2021-02-08T08:49:07.000Z</time>
      </trkpt>
      <trkpt lat="45.77325" lon="4.64191">
        <ele>603.2</ele>
        <time>2021-02-08T08:49:10.000Z</time>
      </trkpt>
      <trkpt lat="45.77337" lon="4.64181">
        <ele>603</ele>
        <time>2021-02-08T08:49:13.000Z</time>
      </trkpt>
      <trkpt lat="45.77346" lon="4.64168">
        <ele>603</ele>
        <time>2021-02-08T08:49:16.000Z</time>
      </trkpt>
      <trkpt lat="45.77354" lon="4.64155">
        <ele>603.1</ele>
        <time>2021-02-08T08:49:19.000Z</time>
      </trkpt>
      <trkpt lat="45.77361" lon="4.64143">
        <ele>603.1</ele>
        <time>2021-02-08T08:49:22.000Z</time>
      </trkpt>
      <trkpt lat="45.77366" lon="4.6413">
        <ele>603.1</ele>
        <time>2021-02-08T08:49:25.000Z</time>
      </trkpt>
      <trkpt lat="45.77371" lon="4.64117">
        <ele>603.2</ele>
        <time>2021-02-08T08:49:28.000Z</time>
      </trkpt>
      <trkpt lat="45.77378" lon="4.64104">
        <ele>603.2</ele>
        <time>2021-02-08T08:49:31.000Z</time>
      </trkpt>
      <trkpt lat="45.77384" lon="4.64092">
        <ele>603.3</ele>
        <time>2021-02-08T08:49:34.000Z</time>
      </trkpt>
      <trkpt lat="45.7739" lon="4.64079">
        <ele>603.3</ele>
        <time>2021-02-08T08:49:37.000Z</time>
      </trkpt>
      <trkpt lat="45.77395" lon="4.64066">
        <ele>603.2</ele>
        <time>2021-02-08T08:49:40.000Z</time>
      </trkpt>
      <trkpt lat="45.77401" lon="4.64053">
        <ele>603</ele>
        <time>2021-02-08T08:49:43.000Z</time>
      </trkpt>
      <trkpt lat="45.77409" lon="4.64037">
        <ele>602.7</ele>
        <time>2021-02-08T08:49:46.000Z</time>
      </trkpt>
      <trkpt lat="45.77415" lon="4.64026">
        <ele>602.4</ele>
        <time>2021-02-08T08:49:48.000Z</time>
      </trkpt>
      <trkpt lat="45.7742" lon="4.64015">
        <ele>602.2</ele>
        <time>2021-02-08T08:49:50.000Z</time>
      </trkpt>
      <trkpt lat="45.77426" lon="4.64002">
        <ele>601.8</ele>
        <time>2021-02-08T08:49:53.000Z</time>
      </trkpt>
      <trkpt lat="45.77434" lon="4.63988">
        <ele>601.2</ele>
        <time>2021-02-08T08:49:56.000Z</time>
      </trkpt>
      <trkpt lat="45.77443" lon="4.6398">
        <ele>600.7</ele>
        <time>2021-02-08T08:49:58.000Z</time>
      </trkpt>
      <trkpt lat="45.77453" lon="4.63973">
        <ele>600.3</ele>
        <time>2021-02-08T08:50:00.000Z</time>
      </trkpt>
      <trkpt lat="45.77464" lon="4.6397">
        <ele>599.9</ele>
        <time>2021-02-08T08:50:02.000Z</time>
      </trkpt>
      <trkpt lat="45.77475" lon="4.63969">
        <ele>599.6</ele>
        <time>2021-02-08T08:50:04.000Z</time>
      </trkpt>
      <trkpt lat="45.77485" lon="4.63968">
        <ele>599.4</ele>
        <time>2021-02-08T08:50:06.000Z</time>
      </trkpt>
      <trkpt lat="45.77495" lon="4.63966">
        <ele>599.4</ele>
        <time>2021-02-08T08:50:08.000Z</time>
      </trkpt>
      <trkpt lat="45.77505" lon="4.63964">
        <ele>599.5</ele>
        <time>2021-02-08T08:50:10.000Z</time>
      </trkpt>
      <trkpt lat="45.77513" lon="4.63959">
        <ele>599.7</ele>
        <time>2021-02-08T08:50:12.000Z</time>
      </trkpt>
      <trkpt lat="45.77524" lon="4.63951">
        <ele>600.1</ele>
        <time>2021-02-08T08:50:15.000Z</time>
      </trkpt>
      <trkpt lat="45.77532" lon="4.63945">
        <ele>600.4</ele>
        <time>2021-02-08T08:50:18.000Z</time>
      </trkpt>
      <trkpt lat="45.77542" lon="4.63935">
        <ele>600.9</ele>
        <time>2021-02-08T08:50:22.000Z</time>
      </trkpt>
      <trkpt lat="45.7755" lon="4.63926">
        <ele>601.5</ele>
        <time>2021-02-08T08:50:26.000Z</time>
      </trkpt>
      <trkpt lat="45.77558" lon="4.63917">
        <ele>602</ele>
        <time>2021-02-08T08:50:30.000Z</time>
      </trkpt>
      <trkpt lat="45.77566" lon="4.63906">
        <ele>602.7</ele>
        <time>2021-02-08T08:50:35.000Z</time>
      </trkpt>
      <trkpt lat="45.77574" lon="4.63895">
        <ele>603.3</ele>
        <time>2021-02-08T08:50:40.000Z</time>
      </trkpt>
      <trkpt lat="45.7758" lon="4.63883">
        <ele>603.9</ele>
        <time>2021-02-08T08:50:45.000Z</time>
      </trkpt>
      <trkpt lat="45.77585" lon="4.63868">
        <ele>604.5</ele>
        <time>2021-02-08T08:50:50.000Z</time>
      </trkpt>
      <trkpt lat="45.77588" lon="4.63856">
        <ele>605.1</ele>
        <time>2021-02-08T08:50:54.000Z</time>
      </trkpt>
      <trkpt lat="45.77584" lon="4.63844">
        <ele>606.1</ele>
        <time>2021-02-08T08:51:00.000Z</time>
      </trkpt>
      <trkpt lat="45.77574" lon="4.63842">
        <ele>607.1</ele>
        <time>2021-02-08T08:51:06.000Z</time>
      </trkpt>
      <trkpt lat="45.77566" lon="4.63834">
        <ele>608.3</ele>
        <time>2021-02-08T08:51:13.000Z</time>
      </trkpt>
      <trkpt lat="45.77559" lon="4.63824">
        <ele>609.7</ele>
        <time>2021-02-08T08:51:20.000Z</time>
      </trkpt>
      <trkpt lat="45.77553" lon="4.63815">
        <ele>611.3</ele>
        <time>2021-02-08T08:51:28.000Z</time>
      </trkpt>
      <trkpt lat="45.77546" lon="4.63807">
        <ele>613</ele>
        <time>2021-02-08T08:51:36.000Z</time>
      </trkpt>
      <trkpt lat="45.77538" lon="4.63798">
        <ele>615.2</ele>
        <time>2021-02-08T08:51:46.000Z</time>
      </trkpt>
      <trkpt lat="45.77531" lon="4.6379">
        <ele>617.4</ele>
        <time>2021-02-08T08:51:55.000Z</time>
      </trkpt>
      <trkpt lat="45.77522" lon="4.63784">
        <ele>619.7</ele>
        <time>2021-02-08T08:52:03.000Z</time>
      </trkpt>
      <trkpt lat="45.77521" lon="4.63783">
        <ele>620.1</ele>
        <time>2021-02-08T08:52:07.000Z</time>
      </trkpt>
      <trkpt lat="45.7752" lon="4.63782">
        <ele>620.3</ele>
        <time>2021-02-08T08:52:08.000Z</time>
      </trkpt>
      <trkpt lat="45.77518" lon="4.6378">
        <ele>620.8</ele>
        <time>2021-02-08T08:52:13.000Z</time>
      </trkpt>
      <trkpt lat="45.77518" lon="4.6378">
        <ele>620.9</ele>
        <time>2021-02-08T08:52:14.000Z</time>
      </trkpt>
      <trkpt lat="45.77509" lon="4.63773">
        <ele>622.9</ele>
        <time>2021-02-08T08:52:22.000Z</time>
      </trkpt>
      <trkpt lat="45.77502" lon="4.63765">
        <ele>624.5</ele>
        <time>2021-02-08T08:52:28.000Z</time>
      </trkpt>
      <trkpt lat="45.77494" lon="4.63756">
        <ele>626.2</ele>
        <time>2021-02-08T08:52:35.000Z</time>
      </trkpt>
      <trkpt lat="45.77486" lon="4.63751">
        <ele>627.9</ele>
        <time>2021-02-08T08:52:42.000Z</time>
      </trkpt>
      <trkpt lat="45.77477" lon="4.63746">
        <ele>629.8</ele>
        <time>2021-02-08T08:52:50.000Z</time>
      </trkpt>
      <trkpt lat="45.77468" lon="4.63743">
        <ele>631.6</ele>
        <time>2021-02-08T08:52:58.000Z</time>
      </trkpt>
      <trkpt lat="45.77459" lon="4.63745">
        <ele>633.4</ele>
        <time>2021-02-08T08:53:05.000Z</time>
      </trkpt>
      <trkpt lat="45.7745" lon="4.63749">
        <ele>635.1</ele>
        <time>2021-02-08T08:53:12.000Z</time>
      </trkpt>
      <trkpt lat="45.77442" lon="4.63758">
        <ele>636.9</ele>
        <time>2021-02-08T08:53:19.000Z</time>
      </trkpt>
      <trkpt lat="45.77436" lon="4.63769">
        <ele>638.5</ele>
        <time>2021-02-08T08:53:26.000Z</time>
      </trkpt>
      <trkpt lat="45.7743" lon="4.63779">
        <ele>640</ele>
        <time>2021-02-08T08:53:34.000Z</time>
      </trkpt>
      <trkpt lat="45.77421" lon="4.63782">
        <ele>641.3</ele>
        <time>2021-02-08T08:53:42.000Z</time>
      </trkpt>
      <trkpt lat="45.77412" lon="4.63786">
        <ele>642.6</ele>
        <time>2021-02-08T08:53:50.000Z</time>
      </trkpt>
      <trkpt lat="45.77403" lon="4.6379">
        <ele>644.1</ele>
        <time>2021-02-08T08:53:58.000Z</time>
      </trkpt>
      <trkpt lat="45.77395" lon="4.63797">
        <ele>645.5</ele>
        <time>2021-02-08T08:54:07.000Z</time>
      </trkpt>
      <trkpt lat="45.77387" lon="4.63806">
        <ele>646.8</ele>
        <time>2021-02-08T08:54:15.000Z</time>
      </trkpt>
      <trkpt lat="45.77378" lon="4.63813">
        <ele>648</ele>
        <time>2021-02-08T08:54:23.000Z</time>
      </trkpt>
      <trkpt lat="45.77369" lon="4.63821">
        <ele>649</ele>
        <time>2021-02-08T08:54:31.000Z</time>
      </trkpt>
      <trkpt lat="45.77362" lon="4.6383">
        <ele>650</ele>
        <time>2021-02-08T08:54:38.000Z</time>
      </trkpt>
      <trkpt lat="45.77353" lon="4.63837">
        <ele>651</ele>
        <time>2021-02-08T08:54:44.000Z</time>
      </trkpt>
      <trkpt lat="45.77343" lon="4.63839">
        <ele>652.1</ele>
        <time>2021-02-08T08:54:50.000Z</time>
      </trkpt>
      <trkpt lat="45.77334" lon="4.63841">
        <ele>653.2</ele>
        <time>2021-02-08T08:54:56.000Z</time>
      </trkpt>
      <trkpt lat="45.77325" lon="4.63842">
        <ele>654.3</ele>
        <time>2021-02-08T08:55:02.000Z</time>
      </trkpt>
      <trkpt lat="45.77315" lon="4.63839">
        <ele>655.7</ele>
        <time>2021-02-08T08:55:09.000Z</time>
      </trkpt>
      <trkpt lat="45.77306" lon="4.63832">
        <ele>657</ele>
        <time>2021-02-08T08:55:16.000Z</time>
      </trkpt>
      <trkpt lat="45.77298" lon="4.63825">
        <ele>658.4</ele>
        <time>2021-02-08T08:55:23.000Z</time>
      </trkpt>
      <trkpt lat="45.7729" lon="4.63819">
        <ele>659.5</ele>
        <time>2021-02-08T08:55:30.000Z</time>
      </trkpt>
      <trkpt lat="45.7728" lon="4.63814">
        <ele>660.6</ele>
        <time>2021-02-08T08:55:38.000Z</time>
      </trkpt>
      <trkpt lat="45.7727" lon="4.63809">
        <ele>661.6</ele>
        <time>2021-02-08T08:55:45.000Z</time>
      </trkpt>
      <trkpt lat="45.77261" lon="4.63803">
        <ele>662.4</ele>
        <time>2021-02-08T08:55:51.000Z</time>
      </trkpt>
      <trkpt lat="45.77253" lon="4.63796">
        <ele>663.3</ele>
        <time>2021-02-08T08:55:57.000Z</time>
      </trkpt>
      <trkpt lat="45.77247" lon="4.63785">
        <ele>664.2</ele>
        <time>2021-02-08T08:56:03.000Z</time>
      </trkpt>
      <trkpt lat="45.77242" lon="4.63774">
        <ele>665.3</ele>
        <time>2021-02-08T08:56:09.000Z</time>
      </trkpt>
      <trkpt lat="45.77239" lon="4.63761">
        <ele>666.7</ele>
        <time>2021-02-08T08:56:15.000Z</time>
      </trkpt>
      <trkpt lat="45.77235" lon="4.63748">
        <ele>668.2</ele>
        <time>2021-02-08T08:56:23.000Z</time>
      </trkpt>
      <trkpt lat="45.77229" lon="4.63737">
        <ele>669.8</ele>
        <time>2021-02-08T08:56:31.000Z</time>
      </trkpt>
      <trkpt lat="45.77223" lon="4.63728">
        <ele>672</ele>
        <time>2021-02-08T08:56:38.000Z</time>
      </trkpt>
      <trkpt lat="45.77214" lon="4.63725">
        <ele>673.4</ele>
        <time>2021-02-08T08:56:47.000Z</time>
      </trkpt>
      <trkpt lat="45.77204" lon="4.6372">
        <ele>675</ele>
        <time>2021-02-08T08:56:56.000Z</time>
      </trkpt>
      <trkpt lat="45.77196" lon="4.63716">
        <ele>676.5</ele>
        <time>2021-02-08T08:57:04.000Z</time>
      </trkpt>
      <trkpt lat="45.77187" lon="4.63715">
        <ele>677.9</ele>
        <time>2021-02-08T08:57:12.000Z</time>
      </trkpt>
      <trkpt lat="45.77177" lon="4.63712">
        <ele>679.5</ele>
        <time>2021-02-08T08:57:20.000Z</time>
      </trkpt>
      <trkpt lat="45.77169" lon="4.63709">
        <ele>681.1</ele>
        <time>2021-02-08T08:57:29.000Z</time>
      </trkpt>
      <trkpt lat="45.7716" lon="4.63705">
        <ele>682.8</ele>
        <time>2021-02-08T08:57:38.000Z</time>
      </trkpt>
      <trkpt lat="45.7715" lon="4.63701">
        <ele>684.6</ele>
        <time>2021-02-08T08:57:48.000Z</time>
      </trkpt>
      <trkpt lat="45.77141" lon="4.63702">
        <ele>686.2</ele>
        <time>2021-02-08T08:57:58.000Z</time>
      </trkpt>
      <trkpt lat="45.77131" lon="4.63702">
        <ele>687.6</ele>
        <time>2021-02-08T08:58:06.000Z</time>
      </trkpt>
      <trkpt lat="45.77122" lon="4.63702">
        <ele>688.9</ele>
        <time>2021-02-08T08:58:13.000Z</time>
      </trkpt>
      <trkpt lat="45.77113" lon="4.637">
        <ele>690.1</ele>
        <time>2021-02-08T08:58:21.000Z</time>
      </trkpt>
      <trkpt lat="45.77103" lon="4.63696">
        <ele>691.3</ele>
        <time>2021-02-08T08:58:29.000Z</time>
      </trkpt>
      <trkpt lat="45.77094" lon="4.63692">
        <ele>692.5</ele>
        <time>2021-02-08T08:58:37.000Z</time>
      </trkpt>
      <trkpt lat="45.77085" lon="4.6369">
        <ele>693.7</ele>
        <time>2021-02-08T08:58:44.000Z</time>
      </trkpt>
      <trkpt lat="45.77076" lon="4.63686">
        <ele>694.8</ele>
        <time>2021-02-08T08:58:51.000Z</time>
      </trkpt>
      <trkpt lat="45.77067" lon="4.63683">
        <ele>696</ele>
        <time>2021-02-08T08:58:59.000Z</time>
      </trkpt>
      <trkpt lat="45.77058" lon="4.63686">
        <ele>697.3</ele>
        <time>2021-02-08T08:59:05.000Z</time>
      </trkpt>
      <trkpt lat="45.77048" lon="4.63686">
        <ele>698.4</ele>
        <time>2021-02-08T08:59:12.000Z</time>
      </trkpt>
      <trkpt lat="45.77039" lon="4.63686">
        <ele>699.7</ele>
        <time>2021-02-08T08:59:19.000Z</time>
      </trkpt>
      <trkpt lat="45.7703" lon="4.63687">
        <ele>700.9</ele>
        <time>2021-02-08T08:59:25.000Z</time>
      </trkpt>
      <trkpt lat="45.77021" lon="4.63688">
        <ele>702.1</ele>
        <time>2021-02-08T08:59:32.000Z</time>
      </trkpt>
      <trkpt lat="45.77011" lon="4.63686">
        <ele>703.5</ele>
        <time>2021-02-08T08:59:40.000Z</time>
      </trkpt>
      <trkpt lat="45.77002" lon="4.63687">
        <ele>704.8</ele>
        <time>2021-02-08T08:59:47.000Z</time>
      </trkpt>
      <trkpt lat="45.76994" lon="4.63679">
        <ele>706</ele>
        <time>2021-02-08T08:59:55.000Z</time>
      </trkpt>
      <trkpt lat="45.76985" lon="4.63675">
        <ele>707</ele>
        <time>2021-02-08T09:00:02.000Z</time>
      </trkpt>
      <trkpt lat="45.76976" lon="4.63668">
        <ele>707.9</ele>
        <time>2021-02-08T09:00:09.000Z</time>
      </trkpt>
      <trkpt lat="45.76967" lon="4.63662">
        <ele>708.7</ele>
        <time>2021-02-08T09:00:15.000Z</time>
      </trkpt>
      <trkpt lat="45.76957" lon="4.63655">
        <ele>709.5</ele>
        <time>2021-02-08T09:00:21.000Z</time>
      </trkpt>
      <trkpt lat="45.76949" lon="4.63647">
        <ele>710.2</ele>
        <time>2021-02-08T09:00:27.000Z</time>
      </trkpt>
      <trkpt lat="45.76943" lon="4.63637">
        <ele>710.8</ele>
        <time>2021-02-08T09:00:32.000Z</time>
      </trkpt>
      <trkpt lat="45.76938" lon="4.63626">
        <ele>711.4</ele>
        <time>2021-02-08T09:00:37.000Z</time>
      </trkpt>
      <trkpt lat="45.76933" lon="4.63614">
        <ele>711.8</ele>
        <time>2021-02-08T09:00:42.000Z</time>
      </trkpt>
      <trkpt lat="45.76927" lon="4.63601">
        <ele>712.8</ele>
        <time>2021-02-08T09:00:47.000Z</time>
      </trkpt>
      <trkpt lat="45.76932" lon="4.63588">
        <ele>714.1</ele>
        <time>2021-02-08T09:00:53.000Z</time>
      </trkpt>
      <trkpt lat="45.76935" lon="4.63574">
        <ele>715.7</ele>
        <time>2021-02-08T09:01:00.000Z</time>
      </trkpt>
      <trkpt lat="45.76937" lon="4.63561">
        <ele>717.2</ele>
        <time>2021-02-08T09:01:06.000Z</time>
      </trkpt>
      <trkpt lat="45.76941" lon="4.63547">
        <ele>718.7</ele>
        <time>2021-02-08T09:01:13.000Z</time>
      </trkpt>
      <trkpt lat="45.76943" lon="4.63534">
        <ele>720</ele>
        <time>2021-02-08T09:01:21.000Z</time>
      </trkpt>
      <trkpt lat="45.76943" lon="4.6352">
        <ele>720.9</ele>
        <time>2021-02-08T09:01:29.000Z</time>
      </trkpt>
      <trkpt lat="45.76939" lon="4.63507">
        <ele>721.5</ele>
        <time>2021-02-08T09:01:35.000Z</time>
      </trkpt>
      <trkpt lat="45.76934" lon="4.63495">
        <ele>722.1</ele>
        <time>2021-02-08T09:01:41.000Z</time>
      </trkpt>
      <trkpt lat="45.7693" lon="4.63483">
        <ele>722.6</ele>
        <time>2021-02-08T09:01:47.000Z</time>
      </trkpt>
      <trkpt lat="45.76927" lon="4.63468">
        <ele>723.2</ele>
        <time>2021-02-08T09:01:54.000Z</time>
      </trkpt>
      <trkpt lat="45.76926" lon="4.63455">
        <ele>723.9</ele>
        <time>2021-02-08T09:02:01.000Z</time>
      </trkpt>
      <trkpt lat="45.76928" lon="4.63441">
        <ele>724.8</ele>
        <time>2021-02-08T09:02:07.000Z</time>
      </trkpt>
      <trkpt lat="45.76929" lon="4.63428">
        <ele>725.6</ele>
        <time>2021-02-08T09:02:13.000Z</time>
      </trkpt>
      <trkpt lat="45.76926" lon="4.63416">
        <ele>726.6</ele>
        <time>2021-02-08T09:02:19.000Z</time>
      </trkpt>
      <trkpt lat="45.76928" lon="4.63402">
        <ele>727.7</ele>
        <time>2021-02-08T09:02:26.000Z</time>
      </trkpt>
      <trkpt lat="45.76934" lon="4.63392">
        <ele>728.7</ele>
        <time>2021-02-08T09:02:33.000Z</time>
      </trkpt>
      <trkpt lat="45.76936" lon="4.63379">
        <ele>729.5</ele>
        <time>2021-02-08T09:02:39.000Z</time>
      </trkpt>
      <trkpt lat="45.76935" lon="4.63363">
        <ele>729.8</ele>
        <time>2021-02-08T09:02:44.000Z</time>
      </trkpt>
      <trkpt lat="45.76931" lon="4.63348">
        <ele>729.8</ele>
        <time>2021-02-08T09:02:48.000Z</time>
      </trkpt>
      <trkpt lat="45.76931" lon="4.63335">
        <ele>729.8</ele>
        <time>2021-02-08T09:02:51.000Z</time>
      </trkpt>
      <trkpt lat="45.76936" lon="4.63321">
        <ele>729.6</ele>
        <time>2021-02-08T09:02:55.000Z</time>
      </trkpt>
      <trkpt lat="45.76943" lon="4.63309">
        <ele>728.3</ele>
        <time>2021-02-08T09:03:00.000Z</time>
      </trkpt>
      <trkpt lat="45.76951" lon="4.63313">
        <ele>728.3</ele>
        <time>2021-02-08T09:03:06.000Z</time>
      </trkpt>
      <trkpt lat="45.76959" lon="4.63321">
        <ele>731.7</ele>
        <time>2021-02-08T09:03:12.000Z</time>
      </trkpt>
      <trkpt lat="45.7697" lon="4.63318">
        <ele>732.8</ele>
        <time>2021-02-08T09:03:18.000Z</time>
      </trkpt>
      <trkpt lat="45.76978" lon="4.63324">
        <ele>733.7</ele>
        <time>2021-02-08T09:03:27.000Z</time>
      </trkpt>
      <trkpt lat="45.76987" lon="4.63334">
        <ele>734.5</ele>
        <time>2021-02-08T09:03:33.000Z</time>
      </trkpt>
      <trkpt lat="45.76995" lon="4.63342">
        <ele>735.2</ele>
        <time>2021-02-08T09:03:37.000Z</time>
      </trkpt>
      <trkpt lat="45.76999" lon="4.63355">
        <ele>735.7</ele>
        <time>2021-02-08T09:03:42.000Z</time>
      </trkpt>
      <trkpt lat="45.77006" lon="4.63364">
        <ele>736.1</ele>
        <time>2021-02-08T09:03:47.000Z</time>
      </trkpt>
      <trkpt lat="45.77011" lon="4.63378">
        <ele>736.7</ele>
        <time>2021-02-08T09:03:52.000Z</time>
      </trkpt>
      <trkpt lat="45.77017" lon="4.6339">
        <ele>737.2</ele>
        <time>2021-02-08T09:03:56.000Z</time>
      </trkpt>
      <trkpt lat="45.77025" lon="4.634">
        <ele>737.9</ele>
        <time>2021-02-08T09:04:00.000Z</time>
      </trkpt>
      <trkpt lat="45.77029" lon="4.63413">
        <ele>738.6</ele>
        <time>2021-02-08T09:04:05.000Z</time>
      </trkpt>
      <trkpt lat="45.7703" lon="4.63427">
        <ele>739.1</ele>
        <time>2021-02-08T09:04:10.000Z</time>
      </trkpt>
      <trkpt lat="45.77037" lon="4.63439">
        <ele>738.9</ele>
        <time>2021-02-08T09:04:15.000Z</time>
      </trkpt>
      <trkpt lat="45.77044" lon="4.6345">
        <ele>738.2</ele>
        <time>2021-02-08T09:04:19.000Z</time>
      </trkpt>
      <trkpt lat="45.77051" lon="4.6346">
        <ele>737.2</ele>
        <time>2021-02-08T09:04:23.000Z</time>
      </trkpt>
      <trkpt lat="45.77062" lon="4.63449">
        <ele>735.6</ele>
        <time>2021-02-08T09:04:27.000Z</time>
      </trkpt>
      <trkpt lat="45.77071" lon="4.63437">
        <ele>733.9</ele>
        <time>2021-02-08T09:04:30.000Z</time>
      </trkpt>
      <trkpt lat="45.7708" lon="4.63442">
        <ele>732.5</ele>
        <time>2021-02-08T09:04:33.000Z</time>
      </trkpt>
      <trkpt lat="45.77091" lon="4.63438">
        <ele>730.9</ele>
        <time>2021-02-08T09:04:36.000Z</time>
      </trkpt>
      <trkpt lat="45.77101" lon="4.63437">
        <ele>729.4</ele>
        <time>2021-02-08T09:04:38.000Z</time>
      </trkpt>
      <trkpt lat="45.77111" lon="4.63434">
        <ele>727.9</ele>
        <time>2021-02-08T09:04:40.000Z</time>
      </trkpt>
      <trkpt lat="45.7712" lon="4.63444">
        <ele>726.3</ele>
        <time>2021-02-08T09:04:43.000Z</time>
      </trkpt>
      <trkpt lat="45.77128" lon="4.63457">
        <ele>724.8</ele>
        <time>2021-02-08T09:04:46.000Z</time>
      </trkpt>
      <trkpt lat="45.7714" lon="4.63455">
        <ele>722.9</ele>
        <time>2021-02-08T09:04:49.000Z</time>
      </trkpt>
      <trkpt lat="45.77151" lon="4.63455">
        <ele>721</ele>
        <time>2021-02-08T09:04:52.000Z</time>
      </trkpt>
      <trkpt lat="45.77162" lon="4.63451">
        <ele>718.4</ele>
        <time>2021-02-08T09:04:55.000Z</time>
      </trkpt>
      <trkpt lat="45.77173" lon="4.63456">
        <ele>715.6</ele>
        <time>2021-02-08T09:04:57.000Z</time>
      </trkpt>
      <trkpt lat="45.7718" lon="4.63467">
        <ele>713.1</ele>
        <time>2021-02-08T09:05:00.000Z</time>
      </trkpt>
      <trkpt lat="45.77186" lon="4.63482">
        <ele>710.9</ele>
        <time>2021-02-08T09:05:03.000Z</time>
      </trkpt>
      <trkpt lat="45.7719" lon="4.63495">
        <ele>709.5</ele>
        <time>2021-02-08T09:05:05.000Z</time>
      </trkpt>
      <trkpt lat="45.77188" lon="4.63509">
        <ele>708.2</ele>
        <time>2021-02-08T09:05:07.000Z</time>
      </trkpt>
      <trkpt lat="45.77184" lon="4.63523">
        <ele>706.6</ele>
        <time>2021-02-08T09:05:09.000Z</time>
      </trkpt>
      <trkpt lat="45.77179" lon="4.63536">
        <ele>704.6</ele>
        <time>2021-02-08T09:05:11.000Z</time>
      </trkpt>
      <trkpt lat="45.77184" lon="4.6355">
        <ele>702.4</ele>
        <time>2021-02-08T09:05:14.000Z</time>
      </trkpt>
      <trkpt lat="45.77185" lon="4.63564">
        <ele>700.3</ele>
        <time>2021-02-08T09:05:17.000Z</time>
      </trkpt>
      <trkpt lat="45.77181" lon="4.63581">
        <ele>697.1</ele>
        <time>2021-02-08T09:05:20.000Z</time>
      </trkpt>
      <trkpt lat="45.77184" lon="4.63595">
        <ele>694.3</ele>
        <time>2021-02-08T09:05:22.000Z</time>
      </trkpt>
      <trkpt lat="45.77186" lon="4.6361">
        <ele>691.2</ele>
        <time>2021-02-08T09:05:24.000Z</time>
      </trkpt>
      <trkpt lat="45.77191" lon="4.63621">
        <ele>688.5</ele>
        <time>2021-02-08T09:05:26.000Z</time>
      </trkpt>
      <trkpt lat="45.77194" lon="4.63635">
        <ele>686.1</ele>
        <time>2021-02-08T09:05:29.000Z</time>
      </trkpt>
      <trkpt lat="45.77203" lon="4.63646">
        <ele>683.5</ele>
        <time>2021-02-08T09:05:31.000Z</time>
      </trkpt>
      <trkpt lat="45.77213" lon="4.63662">
        <ele>680.5</ele>
        <time>2021-02-08T09:05:33.000Z</time>
      </trkpt>
      <trkpt lat="45.77219" lon="4.63675">
        <ele>678.4</ele>
        <time>2021-02-08T09:05:35.000Z</time>
      </trkpt>
      <trkpt lat="45.77228" lon="4.63682">
        <ele>677.6</ele>
        <time>2021-02-08T09:05:37.000Z</time>
      </trkpt>
      <trkpt lat="45.77238" lon="4.63684">
        <ele>676.4</ele>
        <time>2021-02-08T09:05:39.000Z</time>
      </trkpt>
      <trkpt lat="45.77246" lon="4.63692">
        <ele>675.2</ele>
        <time>2021-02-08T09:05:41.000Z</time>
      </trkpt>
      <trkpt lat="45.77251" lon="4.63704">
        <ele>673.8</ele>
        <time>2021-02-08T09:05:44.000Z</time>
      </trkpt>
      <trkpt lat="45.77245" lon="4.63719">
        <ele>671.7</ele>
        <time>2021-02-08T09:05:47.000Z</time>
      </trkpt>
      <trkpt lat="45.77235" lon="4.63728">
        <ele>670.5</ele>
        <time>2021-02-08T09:05:49.000Z</time>
      </trkpt>
      <trkpt lat="45.77226" lon="4.63735">
        <ele>669.4</ele>
        <time>2021-02-08T09:05:51.000Z</time>
      </trkpt>
      <trkpt lat="45.77215" lon="4.63746">
        <ele>667.7</ele>
        <time>2021-02-08T09:05:54.000Z</time>
      </trkpt>
      <trkpt lat="45.77208" lon="4.63755">
        <ele>666.3</ele>
        <time>2021-02-08T09:05:56.000Z</time>
      </trkpt>
      <trkpt lat="45.77204" lon="4.6377">
        <ele>664.4</ele>
        <time>2021-02-08T09:05:58.000Z</time>
      </trkpt>
      <trkpt lat="45.77201" lon="4.63786">
        <ele>662.3</ele>
        <time>2021-02-08T09:06:01.000Z</time>
      </trkpt>
      <trkpt lat="45.77208" lon="4.63797">
        <ele>660.8</ele>
        <time>2021-02-08T09:06:04.000Z</time>
      </trkpt>
      <trkpt lat="45.77215" lon="4.63806">
        <ele>659.5</ele>
        <time>2021-02-08T09:06:06.000Z</time>
      </trkpt>
      <trkpt lat="45.77228" lon="4.63813">
        <ele>657.5</ele>
        <time>2021-02-08T09:06:09.000Z</time>
      </trkpt>
      <trkpt lat="45.77237" lon="4.63821">
        <ele>655.7</ele>
        <time>2021-02-08T09:06:11.000Z</time>
      </trkpt>
      <trkpt lat="45.77242" lon="4.63833">
        <ele>654.2</ele>
        <time>2021-02-08T09:06:13.000Z</time>
      </trkpt>
      <trkpt lat="45.77239" lon="4.63848">
        <ele>652.5</ele>
        <time>2021-02-08T09:06:17.000Z</time>
      </trkpt>
      <trkpt lat="45.77232" lon="4.63858">
        <ele>651.2</ele>
        <time>2021-02-08T09:06:21.000Z</time>
      </trkpt>
      <trkpt lat="45.77231" lon="4.63874">
        <ele>649.6</ele>
        <time>2021-02-08T09:06:24.000Z</time>
      </trkpt>
      <trkpt lat="45.77236" lon="4.63888">
        <ele>648</ele>
        <time>2021-02-08T09:06:26.000Z</time>
      </trkpt>
      <trkpt lat="45.77239" lon="4.63903">
        <ele>646.5</ele>
        <time>2021-02-08T09:06:28.000Z</time>
      </trkpt>
      <trkpt lat="45.77236" lon="4.63916">
        <ele>645</ele>
        <time>2021-02-08T09:06:31.000Z</time>
      </trkpt>
      <trkpt lat="45.7724" lon="4.63933">
        <ele>642.9</ele>
        <time>2021-02-08T09:06:34.000Z</time>
      </trkpt>
      <trkpt lat="45.77243" lon="4.63947">
        <ele>641.1</ele>
        <time>2021-02-08T09:06:36.000Z</time>
      </trkpt>
      <trkpt lat="45.77247" lon="4.63963">
        <ele>638.7</ele>
        <time>2021-02-08T09:06:39.000Z</time>
      </trkpt>
      <trkpt lat="45.77245" lon="4.63979">
        <ele>636.6</ele>
        <time>2021-02-08T09:06:42.000Z</time>
      </trkpt>
      <trkpt lat="45.77234" lon="4.63982">
        <ele>634.8</ele>
        <time>2021-02-08T09:06:45.000Z</time>
      </trkpt>
      <trkpt lat="45.77224" lon="4.63986">
        <ele>633.2</ele>
        <time>2021-02-08T09:06:48.000Z</time>
      </trkpt>
      <trkpt lat="45.77223" lon="4.64003">
        <ele>631.6</ele>
        <time>2021-02-08T09:06:51.000Z</time>
      </trkpt>
      <trkpt lat="45.77225" lon="4.64016">
        <ele>630.4</ele>
        <time>2021-02-08T09:06:54.000Z</time>
      </trkpt>
      <trkpt lat="45.77227" lon="4.6403">
        <ele>629.2</ele>
        <time>2021-02-08T09:06:57.000Z</time>
      </trkpt>
      <trkpt lat="45.77229" lon="4.64043">
        <ele>628.2</ele>
        <time>2021-02-08T09:07:00.000Z</time>
      </trkpt>
      <trkpt lat="45.77234" lon="4.64058">
        <ele>626.5</ele>
        <time>2021-02-08T09:07:03.000Z</time>
      </trkpt>
      <trkpt lat="45.77238" lon="4.64071">
        <ele>624.7</ele>
        <time>2021-02-08T09:07:06.000Z</time>
      </trkpt>
      <trkpt lat="45.77234" lon="4.64084">
        <ele>622.6</ele>
        <time>2021-02-08T09:07:12.000Z</time>
      </trkpt>
      <trkpt lat="45.77231" lon="4.64099">
        <ele>620.1</ele>
        <time>2021-02-08T09:07:17.000Z</time>
      </trkpt>
      <trkpt lat="45.77233" lon="4.64114">
        <ele>617.5</ele>
        <time>2021-02-08T09:07:20.000Z</time>
      </trkpt>
      <trkpt lat="45.77229" lon="4.64126">
        <ele>615.2</ele>
        <time>2021-02-08T09:07:23.000Z</time>
      </trkpt>
      <trkpt lat="45.77225" lon="4.64138">
        <ele>612.8</ele>
        <time>2021-02-08T09:07:26.000Z</time>
      </trkpt>
      <trkpt lat="45.77227" lon="4.64153">
        <ele>610.1</ele>
        <time>2021-02-08T09:07:29.000Z</time>
      </trkpt>
      <trkpt lat="45.77229" lon="4.64168">
        <ele>607.3</ele>
        <time>2021-02-08T09:07:33.000Z</time>
      </trkpt>
      <trkpt lat="45.77229" lon="4.64182">
        <ele>604.6</ele>
        <time>2021-02-08T09:07:37.000Z</time>
      </trkpt>
      <trkpt lat="45.77238" lon="4.64189">
        <ele>604.6</ele>
        <time>2021-02-08T09:07:45.000Z</time>
      </trkpt>
      <trkpt lat="45.77247" lon="4.6419">
        <ele>604.6</ele>
        <time>2021-02-08T09:07:50.000Z</time>
      </trkpt>
      <trkpt lat="45.77256" lon="4.64194">
        <ele>604.4</ele>
        <time>2021-02-08T09:07:53.000Z</time>
      </trkpt>
      <trkpt lat="45.77266" lon="4.64199">
        <ele>604.3</ele>
        <time>2021-02-08T09:07:56.000Z</time>
      </trkpt>
      <trkpt lat="45.77276" lon="4.64206">
        <ele>604.1</ele>
        <time>2021-02-08T09:07:59.000Z</time>
      </trkpt>
      <trkpt lat="45.77285" lon="4.64211">
        <ele>604</ele>
        <time>2021-02-08T09:08:02.000Z</time>
      </trkpt>
      <trkpt lat="45.77295" lon="4.64215">
        <ele>603.9</ele>
        <time>2021-02-08T09:08:05.000Z</time>
      </trkpt>
      <trkpt lat="45.77305" lon="4.64212">
        <ele>603.7</ele>
        <time>2021-02-08T09:08:08.000Z</time>
      </trkpt>
      <trkpt lat="45.77314" lon="4.64206">
        <ele>603.5</ele>
        <time>2021-02-08T09:08:11.000Z</time>
      </trkpt>
      <trkpt lat="45.77325" lon="4.64197">
        <ele>603.2</ele>
        <time>2021-02-08T09:08:14.000Z</time>
      </trkpt>
      <trkpt lat="45.77334" lon="4.64187">
        <ele>603.1</ele>
        <time>2021-02-08T09:08:17.000Z</time>
      </trkpt>
      <trkpt lat="45.77341" lon="4.64178">
        <ele>603</ele>
        <time>2021-02-08T09:08:19.000Z</time>
      </trkpt>
      <trkpt lat="45.7735" lon="4.64164">
        <ele>603</ele>
        <time>2021-02-08T09:08:22.000Z</time>
      </trkpt>
      <trkpt lat="45.77357" lon="4.64153">
        <ele>603.1</ele>
        <time>2021-02-08T09:08:25.000Z</time>
      </trkpt>
      <trkpt lat="45.77363" lon="4.64138">
        <ele>603.1</ele>
        <time>2021-02-08T09:08:28.000Z</time>
      </trkpt>
      <trkpt lat="45.77369" lon="4.64124">
        <ele>603.2</ele>
        <time>2021-02-08T09:08:31.000Z</time>
      </trkpt>
      <trkpt lat="45.77377" lon="4.64111">
        <ele>603.2</ele>
        <time>2021-02-08T09:08:34.000Z</time>
      </trkpt>
      <trkpt lat="45.77383" lon="4.64097">
        <ele>603.3</ele>
        <time>2021-02-08T09:08:37.000Z</time>
      </trkpt>
      <trkpt lat="45.77388" lon="4.64081">
        <ele>603.3</ele>
        <time>2021-02-08T09:08:40.000Z</time>
      </trkpt>
      <trkpt lat="45.77393" lon="4.64068">
        <ele>603.2</ele>
        <time>2021-02-08T09:08:43.000Z</time>
      </trkpt>
      <trkpt lat="45.77402" lon="4.64054">
        <ele>603</ele>
        <time>2021-02-08T09:08:46.000Z</time>
      </trkpt>
      <trkpt lat="45.77408" lon="4.64043">
        <ele>602.7</ele>
        <time>2021-02-08T09:08:48.000Z</time>
      </trkpt>
      <trkpt lat="45.77414" lon="4.6403">
        <ele>602.5</ele>
        <time>2021-02-08T09:08:50.000Z</time>
      </trkpt>
      <trkpt lat="45.77419" lon="4.64018">
        <ele>602.2</ele>
        <time>2021-02-08T09:08:52.000Z</time>
      </trkpt>
      <trkpt lat="45.77424" lon="4.64003">
        <ele>601.7</ele>
        <time>2021-02-08T09:08:55.000Z</time>
      </trkpt>
      <trkpt lat="45.77436" lon="4.63991">
        <ele>601.1</ele>
        <time>2021-02-08T09:08:58.000Z</time>
      </trkpt>
      <trkpt lat="45.77446" lon="4.63982">
        <ele>600.6</ele>
        <time>2021-02-08T09:09:00.000Z</time>
      </trkpt>
      <trkpt lat="45.77457" lon="4.63975">
        <ele>600.1</ele>
        <time>2021-02-08T09:09:02.000Z</time>
      </trkpt>
      <trkpt lat="45.77469" lon="4.63973">
        <ele>599.8</ele>
        <time>2021-02-08T09:09:04.000Z</time>
      </trkpt>
      <trkpt lat="45.7748" lon="4.63971">
        <ele>599.5</ele>
        <time>2021-02-08T09:09:06.000Z</time>
      </trkpt>
      <trkpt lat="45.77491" lon="4.63969">
        <ele>599.4</ele>
        <time>2021-02-08T09:09:08.000Z</time>
      </trkpt>
      <trkpt lat="45.77501" lon="4.63966">
        <ele>599.4</ele>
        <time>2021-02-08T09:09:10.000Z</time>
      </trkpt>
      <trkpt lat="45.77512" lon="4.63959">
        <ele>599.7</ele>
        <time>2021-02-08T09:09:12.000Z</time>
      </trkpt>
      <trkpt lat="45.77521" lon="4.63954">
        <ele>599.9</ele>
        <time>2021-02-08T09:09:14.000Z</time>
      </trkpt>
      <trkpt lat="45.77531" lon="4.63946">
        <ele>600.3</ele>
        <time>2021-02-08T09:09:17.000Z</time>
      </trkpt>
      <trkpt lat="45.77538" lon="4.63939">
        <ele>600.7</ele>
        <time>2021-02-08T09:09:20.000Z</time>
      </trkpt>
      <trkpt lat="45.77547" lon="4.63929">
        <ele>601.2</ele>
        <time>2021-02-08T09:09:24.000Z</time>
      </trkpt>
      <trkpt lat="45.77554" lon="4.6392">
        <ele>601.8</ele>
        <time>2021-02-08T09:09:28.000Z</time>
      </trkpt>
      <trkpt lat="45.77562" lon="4.63909">
        <ele>602.4</ele>
        <time>2021-02-08T09:09:33.000Z</time>
      </trkpt>
      <trkpt lat="45.77568" lon="4.639">
        <ele>602.9</ele>
        <time>2021-02-08T09:09:37.000Z</time>
      </trkpt>
      <trkpt lat="45.77576" lon="4.63891">
        <ele>603.4</ele>
        <time>2021-02-08T09:09:41.000Z</time>
      </trkpt>
      <trkpt lat="45.77581" lon="4.63879">
        <ele>604</ele>
        <time>2021-02-08T09:09:45.000Z</time>
      </trkpt>
      <trkpt lat="45.77586" lon="4.63865">
        <ele>604.6</ele>
        <time>2021-02-08T09:09:49.000Z</time>
      </trkpt>
      <trkpt lat="45.77589" lon="4.63852">
        <ele>605.1</ele>
        <time>2021-02-08T09:09:53.000Z</time>
      </trkpt>
      <trkpt lat="45.77582" lon="4.63842">
        <ele>606.1</ele>
        <time>2021-02-08T09:10:00.000Z</time>
      </trkpt>
      <trkpt lat="45.77573" lon="4.63839">
        <ele>607.1</ele>
        <time>2021-02-08T09:10:06.000Z</time>
      </trkpt>
      <trkpt lat="45.77564" lon="4.63832">
        <ele>608.3</ele>
        <time>2021-02-08T09:10:14.000Z</time>
      </trkpt>
      <trkpt lat="45.77558" lon="4.63823">
        <ele>609.6</ele>
        <time>2021-02-08T09:10:21.000Z</time>
      </trkpt>
      <trkpt lat="45.77551" lon="4.63813">
        <ele>611.2</ele>
        <time>2021-02-08T09:10:29.000Z</time>
      </trkpt>
      <trkpt lat="45.77544" lon="4.63806">
        <ele>613</ele>
        <time>2021-02-08T09:10:37.000Z</time>
      </trkpt>
      <trkpt lat="45.77536" lon="4.63798">
        <ele>615.1</ele>
        <time>2021-02-08T09:10:46.000Z</time>
      </trkpt>
      <trkpt lat="45.77529" lon="4.63789">
        <ele>617.3</ele>
        <time>2021-02-08T09:10:55.000Z</time>
      </trkpt>
      <trkpt lat="45.77521" lon="4.63783">
        <ele>619.6</ele>
        <time>2021-02-08T09:11:04.000Z</time>
      </trkpt>
      <trkpt lat="45.77512" lon="4.63776">
        <ele>621.8</ele>
        <time>2021-02-08T09:11:14.000Z</time>
      </trkpt>
      <trkpt lat="45.77504" lon="4.63769">
        <ele>623.5</ele>
        <time>2021-02-08T09:11:23.000Z</time>
      </trkpt>
      <trkpt lat="45.77497" lon="4.63761">
        <ele>625.2</ele>
        <time>2021-02-08T09:11:32.000Z</time>
      </trkpt>
      <trkpt lat="45.77489" lon="4.63754">
        <ele>626.8</ele>
        <time>2021-02-08T09:11:41.000Z</time>
      </trkpt>
      <trkpt lat="45.77479" lon="4.63749">
        <ele>628.8</ele>
        <time>2021-02-08T09:11:51.000Z</time>
      </trkpt>
      <trkpt lat="45.7747" lon="4.63744">
        <ele>630.8</ele>
        <time>2021-02-08T09:12:01.000Z</time>
      </trkpt>
      <trkpt lat="45.7746" lon="4.63746">
        <ele>632.8</ele>
        <time>2021-02-08T09:12:09.000Z</time>
      </trkpt>
      <trkpt lat="45.77451" lon="4.63749">
        <ele>634.5</ele>
        <time>2021-02-08T09:12:17.000Z</time>
      </trkpt>
      <trkpt lat="45.77444" lon="4.63757">
        <ele>636.2</ele>
        <time>2021-02-08T09:12:25.000Z</time>
      </trkpt>
      <trkpt lat="45.77439" lon="4.63768">
        <ele>637.8</ele>
        <time>2021-02-08T09:12:33.000Z</time>
      </trkpt>
      <trkpt lat="45.77431" lon="4.63776">
        <ele>639.3</ele>
        <time>2021-02-08T09:12:40.000Z</time>
      </trkpt>
      <trkpt lat="45.77422" lon="4.63781">
        <ele>640.8</ele>
        <time>2021-02-08T09:12:49.000Z</time>
      </trkpt>
      <trkpt lat="45.77412" lon="4.63784">
        <ele>642.2</ele>
        <time>2021-02-08T09:12:58.000Z</time>
      </trkpt>
      <trkpt lat="45.77402" lon="4.63787">
        <ele>643.7</ele>
        <time>2021-02-08T09:13:06.000Z</time>
      </trkpt>
      <trkpt lat="45.77395" lon="4.63794">
        <ele>645.1</ele>
        <time>2021-02-08T09:13:14.000Z</time>
      </trkpt>
      <trkpt lat="45.77387" lon="4.63801">
        <ele>646.4</ele>
        <time>2021-02-08T09:13:23.000Z</time>
      </trkpt>
      <trkpt lat="45.7738" lon="4.63811">
        <ele>647.6</ele>
        <time>2021-02-08T09:13:31.000Z</time>
      </trkpt>
      <trkpt lat="45.77371" lon="4.63819">
        <ele>648.7</ele>
        <time>2021-02-08T09:13:38.000Z</time>
      </trkpt>
      <trkpt lat="45.77363" lon="4.63827">
        <ele>649.7</ele>
        <time>2021-02-08T09:13:44.000Z</time>
      </trkpt>
      <trkpt lat="45.77355" lon="4.63836">
        <ele>650.6</ele>
        <time>2021-02-08T09:13:49.000Z</time>
      </trkpt>
      <trkpt lat="45.77345" lon="4.63838">
        <ele>651.8</ele>
        <time>2021-02-08T09:13:55.000Z</time>
      </trkpt>
      <trkpt lat="45.77334" lon="4.6384">
        <ele>653</ele>
        <time>2021-02-08T09:14:02.000Z</time>
      </trkpt>
      <trkpt lat="45.77325" lon="4.63842">
        <ele>654.2</ele>
        <time>2021-02-08T09:14:09.000Z</time>
      </trkpt>
      <trkpt lat="45.77315" lon="4.63839">
        <ele>655.5</ele>
        <time>2021-02-08T09:14:16.000Z</time>
      </trkpt>
      <trkpt lat="45.77307" lon="4.63832">
        <ele>656.8</ele>
        <time>2021-02-08T09:14:24.000Z</time>
      </trkpt>
      <trkpt lat="45.77298" lon="4.63826">
        <ele>658.1</ele>
        <time>2021-02-08T09:14:32.000Z</time>
      </trkpt>
      <trkpt lat="45.7729" lon="4.63821">
        <ele>659.3</ele>
        <time>2021-02-08T09:14:39.000Z</time>
      </trkpt>
      <trkpt lat="45.77281" lon="4.63817">
        <ele>660.3</ele>
        <time>2021-02-08T09:14:46.000Z</time>
      </trkpt>
      <trkpt lat="45.77271" lon="4.63812">
        <ele>661.3</ele>
        <time>2021-02-08T09:14:53.000Z</time>
      </trkpt>
      <trkpt lat="45.77262" lon="4.63808">
        <ele>662.2</ele>
        <time>2021-02-08T09:14:59.000Z</time>
      </trkpt>
      <trkpt lat="45.77253" lon="4.63801">
        <ele>663.1</ele>
        <time>2021-02-08T09:15:05.000Z</time>
      </trkpt>
      <trkpt lat="45.77246" lon="4.63792">
        <ele>663.9</ele>
        <time>2021-02-08T09:15:11.000Z</time>
      </trkpt>
      <trkpt lat="45.77242" lon="4.6378">
        <ele>665</ele>
        <time>2021-02-08T09:15:17.000Z</time>
      </trkpt>
      <trkpt lat="45.77239" lon="4.63767">
        <ele>666.2</ele>
        <time>2021-02-08T09:15:24.000Z</time>
      </trkpt>
      <trkpt lat="45.77236" lon="4.63754">
        <ele>667.6</ele>
        <time>2021-02-08T09:15:30.000Z</time>
      </trkpt>
      <trkpt lat="45.77231" lon="4.63742">
        <ele>669.2</ele>
        <time>2021-02-08T09:15:38.000Z</time>
      </trkpt>
      <trkpt lat="45.77224" lon="4.63731">
        <ele>670.9</ele>
        <time>2021-02-08T09:15:46.000Z</time>
      </trkpt>
      <trkpt lat="45.77216" lon="4.63725">
        <ele>672.8</ele>
        <time>2021-02-08T09:15:55.000Z</time>
      </trkpt>
      <trkpt lat="45.77207" lon="4.63721">
        <ele>674.3</ele>
        <time>2021-02-08T09:16:03.000Z</time>
      </trkpt>
      <trkpt lat="45.77199" lon="4.63715">
        <ele>675.8</ele>
        <time>2021-02-08T09:16:11.000Z</time>
      </trkpt>
      <trkpt lat="45.7719" lon="4.63713">
        <ele>677.2</ele>
        <time>2021-02-08T09:16:20.000Z</time>
      </trkpt>
      <trkpt lat="45.7718" lon="4.63713">
        <ele>678.7</ele>
        <time>2021-02-08T09:16:28.000Z</time>
      </trkpt>
      <trkpt lat="45.77171" lon="4.6371">
        <ele>680.3</ele>
        <time>2021-02-08T09:16:36.000Z</time>
      </trkpt>
      <trkpt lat="45.77163" lon="4.63705">
        <ele>682</ele>
        <time>2021-02-08T09:16:45.000Z</time>
      </trkpt>
      <trkpt lat="45.77154" lon="4.63701">
        <ele>683.7</ele>
        <time>2021-02-08T09:16:53.000Z</time>
      </trkpt>
      <trkpt lat="45.77145" lon="4.63701">
        <ele>685.3</ele>
        <time>2021-02-08T09:17:01.000Z</time>
      </trkpt>
      <trkpt lat="45.77135" lon="4.63702">
        <ele>686.8</ele>
        <time>2021-02-08T09:17:09.000Z</time>
      </trkpt>
      <trkpt lat="45.77126" lon="4.63704">
        <ele>688.2</ele>
        <time>2021-02-08T09:17:18.000Z</time>
      </trkpt>
      <trkpt lat="45.77116" lon="4.63705">
        <ele>689.4</ele>
        <time>2021-02-08T09:17:26.000Z</time>
      </trkpt>
      <trkpt lat="45.77107" lon="4.637">
        <ele>690.6</ele>
        <time>2021-02-08T09:17:35.000Z</time>
      </trkpt>
      <trkpt lat="45.77098" lon="4.637">
        <ele>691.7</ele>
        <time>2021-02-08T09:17:42.000Z</time>
      </trkpt>
      <trkpt lat="45.77089" lon="4.63693">
        <ele>693</ele>
        <time>2021-02-08T09:17:50.000Z</time>
      </trkpt>
      <trkpt lat="45.7708" lon="4.63692">
        <ele>694.2</ele>
        <time>2021-02-08T09:17:58.000Z</time>
      </trkpt>
      <trkpt lat="45.77072" lon="4.63684">
        <ele>695.4</ele>
        <time>2021-02-08T09:18:06.000Z</time>
      </trkpt>
      <trkpt lat="45.77062" lon="4.63685">
        <ele>696.7</ele>
        <time>2021-02-08T09:18:13.000Z</time>
      </trkpt>
      <trkpt lat="45.77052" lon="4.63687">
        <ele>697.9</ele>
        <time>2021-02-08T09:18:20.000Z</time>
      </trkpt>
      <trkpt lat="45.77043" lon="4.63687">
        <ele>699.1</ele>
        <time>2021-02-08T09:18:27.000Z</time>
      </trkpt>
      <trkpt lat="45.77034" lon="4.63687">
        <ele>700.4</ele>
        <time>2021-02-08T09:18:35.000Z</time>
      </trkpt>
      <trkpt lat="45.77025" lon="4.63689">
        <ele>701.6</ele>
        <time>2021-02-08T09:18:42.000Z</time>
      </trkpt>
      <trkpt lat="45.77015" lon="4.63687">
        <ele>703</ele>
        <time>2021-02-08T09:18:50.000Z</time>
      </trkpt>
      <trkpt lat="45.77006" lon="4.6369">
        <ele>704.2</ele>
        <time>2021-02-08T09:18:57.000Z</time>
      </trkpt>
      <trkpt lat="45.76998" lon="4.63684">
        <ele>705.4</ele>
        <time>2021-02-08T09:19:03.000Z</time>
      </trkpt>
      <trkpt lat="45.76989" lon="4.63677">
        <ele>706.5</ele>
        <time>2021-02-08T09:19:10.000Z</time>
      </trkpt>
      <trkpt lat="45.76979" lon="4.63673">
        <ele>707.5</ele>
        <time>2021-02-08T09:19:17.000Z</time>
      </trkpt>
      <trkpt lat="45.76971" lon="4.63666">
        <ele>708.3</ele>
        <time>2021-02-08T09:19:24.000Z</time>
      </trkpt>
      <trkpt lat="45.76962" lon="4.63659">
        <ele>709</ele>
        <time>2021-02-08T09:19:29.000Z</time>
      </trkpt>
      <trkpt lat="45.76954" lon="4.63654">
        <ele>709.7</ele>
        <time>2021-02-08T09:19:34.000Z</time>
      </trkpt>
      <trkpt lat="45.76947" lon="4.63644">
        <ele>710.4</ele>
        <time>2021-02-08T09:19:39.000Z</time>
      </trkpt>
      <trkpt lat="45.76941" lon="4.63633">
        <ele>711</ele>
        <time>2021-02-08T09:19:44.000Z</time>
      </trkpt>
      <trkpt lat="45.76935" lon="4.63621">
        <ele>711.6</ele>
        <time>2021-02-08T09:19:49.000Z</time>
      </trkpt>
      <trkpt lat="45.76929" lon="4.63609">
        <ele>711.9</ele>
        <time>2021-02-08T09:19:55.000Z</time>
      </trkpt>
      <trkpt lat="45.76929" lon="4.63595">
        <ele>713.3</ele>
        <time>2021-02-08T09:20:00.000Z</time>
      </trkpt>
      <trkpt lat="45.76934" lon="4.63584">
        <ele>714.6</ele>
        <time>2021-02-08T09:20:06.000Z</time>
      </trkpt>
      <trkpt lat="45.76935" lon="4.63569">
        <ele>716.2</ele>
        <time>2021-02-08T09:20:14.000Z</time>
      </trkpt>
      <trkpt lat="45.76937" lon="4.63556">
        <ele>717.7</ele>
        <time>2021-02-08T09:20:21.000Z</time>
      </trkpt>
      <trkpt lat="45.76942" lon="4.63544">
        <ele>719.1</ele>
        <time>2021-02-08T09:20:29.000Z</time>
      </trkpt>
      <trkpt lat="45.76943" lon="4.6353">
        <ele>720.3</ele>
        <time>2021-02-08T09:20:37.000Z</time>
      </trkpt>
      <trkpt lat="45.76943" lon="4.63516">
        <ele>721.1</ele>
        <time>2021-02-08T09:20:43.000Z</time>
      </trkpt>
      <trkpt lat="45.76938" lon="4.63503">
        <ele>721.7</ele>
        <time>2021-02-08T09:20:49.000Z</time>
      </trkpt>
      <trkpt lat="45.76933" lon="4.63492">
        <ele>722.2</ele>
        <time>2021-02-08T09:20:54.000Z</time>
      </trkpt>
      <trkpt lat="45.7693" lon="4.63479">
        <ele>722.7</ele>
        <time>2021-02-08T09:20:59.000Z</time>
      </trkpt>
      <trkpt lat="45.76927" lon="4.63466">
        <ele>723.3</ele>
        <time>2021-02-08T09:21:04.000Z</time>
      </trkpt>
      <trkpt lat="45.76925" lon="4.63454">
        <ele>724</ele>
        <time>2021-02-08T09:21:09.000Z</time>
      </trkpt>
      <trkpt lat="45.76927" lon="4.63441">
        <ele>724.8</ele>
        <time>2021-02-08T09:21:14.000Z</time>
      </trkpt>
      <trkpt lat="45.76927" lon="4.63427">
        <ele>725.7</ele>
        <time>2021-02-08T09:21:19.000Z</time>
      </trkpt>
      <trkpt lat="45.76925" lon="4.63412">
        <ele>726.7</ele>
        <time>2021-02-08T09:21:25.000Z</time>
      </trkpt>
      <trkpt lat="45.7693" lon="4.63401">
        <ele>727.8</ele>
        <time>2021-02-08T09:21:32.000Z</time>
      </trkpt>
      <trkpt lat="45.76936" lon="4.63389">
        <ele>729</ele>
        <time>2021-02-08T09:21:38.000Z</time>
      </trkpt>
      <trkpt lat="45.76936" lon="4.63375">
        <ele>729.6</ele>
        <time>2021-02-08T09:21:44.000Z</time>
      </trkpt>
      <trkpt lat="45.76934" lon="4.63362">
        <ele>729.9</ele>
        <time>2021-02-08T09:21:48.000Z</time>
      </trkpt>
      <trkpt lat="45.76931" lon="4.63348">
        <ele>729.8</ele>
        <time>2021-02-08T09:21:52.000Z</time>
      </trkpt>
      <trkpt lat="45.76931" lon="4.63333">
        <ele>729.7</ele>
        <time>2021-02-08T09:21:56.000Z</time>
      </trkpt>
      <trkpt lat="45.76936" lon="4.63322">
        <ele>729.6</ele>
        <time>2021-02-08T09:22:00.000Z</time>
      </trkpt>
      <trkpt lat="45.76941" lon="4.6331">
        <ele>729.4</ele>
        <time>2021-02-08T09:22:05.000Z</time>
      </trkpt>
      <trkpt lat="45.76946" lon="4.63297">
        <ele>729.1</ele>
        <time>2021-02-08T09:22:11.000Z</time>
      </trkpt>
      <trkpt lat="45.76947" lon="4.63296">
        <ele>729</ele>
        <time>2021-02-08T09:22:14.000Z</time>
      </trkpt>
      <trkpt lat="45.76946" lon="4.63295">
        <ele>729</ele>
        <time>2021-02-08T09:22:16.000Z</time>
      </trkpt>
      <trkpt lat="45.76946" lon="4.63295">
        <ele>729</ele>
        <time>2021-02-08T09:22:18.000Z</time>
      </trkpt>
      <trkpt lat="45.76946" lon="4.63295">
        <ele>729</ele>
        <time>2021-02-08T09:22:19.000Z</time>
      </trkpt>
      <trkpt lat="45.76939" lon="4.63285">
        <ele>728.2</ele>
        <time>2021-02-08T09:22:28.000Z</time>
      </trkpt>
      <trkpt lat="45.76937" lon="4.63283">
        <ele>728.2</ele>
        <time>2021-02-08T09:22:34.000Z</time>
      </trkpt>
      <trkpt lat="45.76936" lon="4.63283">
        <ele>728.2</ele>
        <time>2021-02-08T09:22:35.000Z</time>
      </trkpt>
      <trkpt lat="45.76929" lon="4.63275">
        <ele>728</ele>
        <time>2021-02-08T09:22:45.000Z</time>
      </trkpt>
      <trkpt lat="45.76937" lon="4.63266">
        <ele>727.6</ele>
        <time>2021-02-08T09:22:52.000Z</time>
      </trkpt>
      <trkpt lat="45.76946" lon="4.63267">
        <ele>726.9</ele>
        <time>2021-02-08T09:22:57.000Z</time>
      </trkpt>
      <trkpt lat="45.76956" lon="4.63263">
        <ele>725.7</ele>
        <time>2021-02-08T09:23:04.000Z</time>
      </trkpt>
      <trkpt lat="45.76964" lon="4.63256">
        <ele>724.3</ele>
        <time>2021-02-08T09:23:09.000Z</time>
      </trkpt>
      <trkpt lat="45.76973" lon="4.63246">
        <ele>722.6</ele>
        <time>2021-02-08T09:23:13.000Z</time>
      </trkpt>
      <trkpt lat="45.76984" lon="4.63237">
        <ele>720.7</ele>
        <time>2021-02-08T09:23:16.000Z</time>
      </trkpt>
      <trkpt lat="45.76994" lon="4.63233">
        <ele>719.1</ele>
        <time>2021-02-08T09:23:18.000Z</time>
      </trkpt>
      <trkpt lat="45.77005" lon="4.6323">
        <ele>717.4</ele>
        <time>2021-02-08T09:23:20.000Z</time>
      </trkpt>
      <trkpt lat="45.77017" lon="4.63224">
        <ele>715.6</ele>
        <time>2021-02-08T09:23:22.000Z</time>
      </trkpt>
      <trkpt lat="45.77029" lon="4.63219">
        <ele>713.9</ele>
        <time>2021-02-08T09:23:24.000Z</time>
      </trkpt>
      <trkpt lat="45.77043" lon="4.63213">
        <ele>712.1</ele>
        <time>2021-02-08T09:23:26.000Z</time>
      </trkpt>
      <trkpt lat="45.77055" lon="4.6321">
        <ele>710.7</ele>
        <time>2021-02-08T09:23:28.000Z</time>
      </trkpt>
      <trkpt lat="45.77068" lon="4.63209">
        <ele>709.4</ele>
        <time>2021-02-08T09:23:30.000Z</time>
      </trkpt>
      <trkpt lat="45.77084" lon="4.6321">
        <ele>707.9</ele>
        <time>2021-02-08T09:23:32.000Z</time>
      </trkpt>
      <trkpt lat="45.771" lon="4.63206">
        <ele>706.5</ele>
        <time>2021-02-08T09:23:34.000Z</time>
      </trkpt>
      <trkpt lat="45.77115" lon="4.63199">
        <ele>705.2</ele>
        <time>2021-02-08T09:23:36.000Z</time>
      </trkpt>
      <trkpt lat="45.77128" lon="4.6319">
        <ele>704.1</ele>
        <time>2021-02-08T09:23:38.000Z</time>
      </trkpt>
      <trkpt lat="45.77139" lon="4.63175">
        <ele>702.7</ele>
        <time>2021-02-08T09:23:40.000Z</time>
      </trkpt>
      <trkpt lat="45.77148" lon="4.6316">
        <ele>701.6</ele>
        <time>2021-02-08T09:23:42.000Z</time>
      </trkpt>
      <trkpt lat="45.77156" lon="4.63149">
        <ele>700.8</ele>
        <time>2021-02-08T09:23:44.000Z</time>
      </trkpt>
      <trkpt lat="45.77166" lon="4.6313">
        <ele>699.9</ele>
        <time>2021-02-08T09:23:46.000Z</time>
      </trkpt>
      <trkpt lat="45.77175" lon="4.63114">
        <ele>699.2</ele>
        <time>2021-02-08T09:23:48.000Z</time>
      </trkpt>
      <trkpt lat="45.77184" lon="4.63098">
        <ele>698.6</ele>
        <time>2021-02-08T09:23:50.000Z</time>
      </trkpt>
      <trkpt lat="45.77191" lon="4.63085">
        <ele>698.3</ele>
        <time>2021-02-08T09:23:52.000Z</time>
      </trkpt>
      <trkpt lat="45.77196" lon="4.63072">
        <ele>698.1</ele>
        <time>2021-02-08T09:23:54.000Z</time>
      </trkpt>
      <trkpt lat="45.772" lon="4.6306">
        <ele>697.9</ele>
        <time>2021-02-08T09:23:56.000Z</time>
      </trkpt>
      <trkpt lat="45.77209" lon="4.63051">
        <ele>697.8</ele>
        <time>2021-02-08T09:23:59.000Z</time>
      </trkpt>
      <trkpt lat="45.77212" lon="4.63034">
        <ele>697.6</ele>
        <time>2021-02-08T09:24:03.000Z</time>
      </trkpt>
      <trkpt lat="45.77216" lon="4.63021">
        <ele>697.6</ele>
        <time>2021-02-08T09:24:06.000Z</time>
      </trkpt>
      <trkpt lat="45.7722" lon="4.63008">
        <ele>697.5</ele>
        <time>2021-02-08T09:24:09.000Z</time>
      </trkpt>
      <trkpt lat="45.77224" lon="4.62992">
        <ele>697.5</ele>
        <time>2021-02-08T09:24:12.000Z</time>
      </trkpt>
      <trkpt lat="45.77231" lon="4.62978">
        <ele>697.4</ele>
        <time>2021-02-08T09:24:15.000Z</time>
      </trkpt>
      <trkpt lat="45.77235" lon="4.62964">
        <ele>697.3</ele>
        <time>2021-02-08T09:24:18.000Z</time>
      </trkpt>
      <trkpt lat="45.7724" lon="4.62952">
        <ele>697</ele>
        <time>2021-02-08T09:24:21.000Z</time>
      </trkpt>
      <trkpt lat="45.7724" lon="4.62936">
        <ele>696.7</ele>
        <time>2021-02-08T09:24:24.000Z</time>
      </trkpt>
      <trkpt lat="45.77238" lon="4.62916">
        <ele>696.3</ele>
        <time>2021-02-08T09:24:27.000Z</time>
      </trkpt>
      <trkpt lat="45.77235" lon="4.62901">
        <ele>695.9</ele>
        <time>2021-02-08T09:24:29.000Z</time>
      </trkpt>
      <trkpt lat="45.77237" lon="4.62887">
        <ele>695.6</ele>
        <time>2021-02-08T09:24:32.000Z</time>
      </trkpt>
      <trkpt lat="45.7724" lon="4.62885">
        <ele>695.5</ele>
        <time>2021-02-08T09:24:36.000Z</time>
      </trkpt>
      <trkpt lat="45.77239" lon="4.62884">
        <ele>695.5</ele>
        <time>2021-02-08T09:24:37.000Z</time>
      </trkpt>
      <trkpt lat="45.7723" lon="4.6289">
        <ele>695.1</ele>
        <time>2021-02-08T09:24:48.000Z</time>
      </trkpt>
      <trkpt lat="45.77221" lon="4.6288">
        <ele>694.1</ele>
        <time>2021-02-08T09:24:53.000Z</time>
      </trkpt>
      <trkpt lat="45.77212" lon="4.62873">
        <ele>692.8</ele>
        <time>2021-02-08T09:24:56.000Z</time>
      </trkpt>
      <trkpt lat="45.77204" lon="4.6286">
        <ele>691.1</ele>
        <time>2021-02-08T09:24:59.000Z</time>
      </trkpt>
      <trkpt lat="45.77198" lon="4.62848">
        <ele>689.1</ele>
        <time>2021-02-08T09:25:02.000Z</time>
      </trkpt>
      <trkpt lat="45.77192" lon="4.62836">
        <ele>687.5</ele>
        <time>2021-02-08T09:25:05.000Z</time>
      </trkpt>
      <trkpt lat="45.77182" lon="4.62836">
        <ele>686</ele>
        <time>2021-02-08T09:25:08.000Z</time>
      </trkpt>
      <trkpt lat="45.77179" lon="4.62824">
        <ele>684.8</ele>
        <time>2021-02-08T09:25:12.000Z</time>
      </trkpt>
      <trkpt lat="45.77178" lon="4.62811">
        <ele>683.6</ele>
        <time>2021-02-08T09:25:15.000Z</time>
      </trkpt>
      <trkpt lat="45.77182" lon="4.62795">
        <ele>682.1</ele>
        <time>2021-02-08T09:25:19.000Z</time>
      </trkpt>
      <trkpt lat="45.77177" lon="4.62783">
        <ele>681</ele>
        <time>2021-02-08T09:25:22.000Z</time>
      </trkpt>
      <trkpt lat="45.7717" lon="4.62776">
        <ele>680.1</ele>
        <time>2021-02-08T09:25:24.000Z</time>
      </trkpt>
      <trkpt lat="45.77165" lon="4.62759">
        <ele>679</ele>
        <time>2021-02-08T09:25:27.000Z</time>
      </trkpt>
      <trkpt lat="45.77165" lon="4.6274">
        <ele>678.1</ele>
        <time>2021-02-08T09:25:30.000Z</time>
      </trkpt>
      <trkpt lat="45.77165" lon="4.62725">
        <ele>677.5</ele>
        <time>2021-02-08T09:25:33.000Z</time>
      </trkpt>
      <trkpt lat="45.77159" lon="4.62713">
        <ele>677.1</ele>
        <time>2021-02-08T09:25:36.000Z</time>
      </trkpt>
      <trkpt lat="45.77154" lon="4.62697">
        <ele>676.7</ele>
        <time>2021-02-08T09:25:39.000Z</time>
      </trkpt>
      <trkpt lat="45.77151" lon="4.62683">
        <ele>676.3</ele>
        <time>2021-02-08T09:25:42.000Z</time>
      </trkpt>
      <trkpt lat="45.77151" lon="4.62667">
        <ele>675.8</ele>
        <time>2021-02-08T09:25:46.000Z</time>
      </trkpt>
      <trkpt lat="45.77145" lon="4.62654">
        <ele>675.1</ele>
        <time>2021-02-08T09:25:49.000Z</time>
      </trkpt>
      <trkpt lat="45.77144" lon="4.62633">
        <ele>674.1</ele>
        <time>2021-02-08T09:25:52.000Z</time>
      </trkpt>
      <trkpt lat="45.77143" lon="4.62618">
        <ele>673.9</ele>
        <time>2021-02-08T09:25:54.000Z</time>
      </trkpt>
      <trkpt lat="45.77143" lon="4.62603">
        <ele>674</ele>
        <time>2021-02-08T09:25:56.000Z</time>
      </trkpt>
      <trkpt lat="45.77149" lon="4.6259">
        <ele>674.3</ele>
        <time>2021-02-08T09:25:59.000Z</time>
      </trkpt>
      <trkpt lat="45.77159" lon="4.62586">
        <ele>674.2</ele>
        <time>2021-02-08T09:26:03.000Z</time>
      </trkpt>
      <trkpt lat="45.77168" lon="4.62582">
        <ele>673.6</ele>
        <time>2021-02-08T09:26:07.000Z</time>
      </trkpt>
      <trkpt lat="45.77177" lon="4.62575">
        <ele>672.3</ele>
        <time>2021-02-08T09:26:12.000Z</time>
      </trkpt>
      <trkpt lat="45.7718" lon="4.62561">
        <ele>670.8</ele>
        <time>2021-02-08T09:26:16.000Z</time>
      </trkpt>
      <trkpt lat="45.77184" lon="4.62548">
        <ele>669.4</ele>
        <time>2021-02-08T09:26:19.000Z</time>
      </trkpt>
      <trkpt lat="45.77179" lon="4.62537">
        <ele>668.2</ele>
        <time>2021-02-08T09:26:22.000Z</time>
      </trkpt>
      <trkpt lat="45.77175" lon="4.62523">
        <ele>667</ele>
        <time>2021-02-08T09:26:25.000Z</time>
      </trkpt>
      <trkpt lat="45.7717" lon="4.62512">
        <ele>665.8</ele>
        <time>2021-02-08T09:26:27.000Z</time>
      </trkpt>
      <trkpt lat="45.77162" lon="4.62499">
        <ele>664</ele>
        <time>2021-02-08T09:26:30.000Z</time>
      </trkpt>
      <trkpt lat="45.77152" lon="4.6249">
        <ele>662.2</ele>
        <time>2021-02-08T09:26:33.000Z</time>
      </trkpt>
      <trkpt lat="45.77154" lon="4.62474">
        <ele>660.7</ele>
        <time>2021-02-08T09:26:37.000Z</time>
      </trkpt>
      <trkpt lat="45.77159" lon="4.62462">
        <ele>659.8</ele>
        <time>2021-02-08T09:26:39.000Z</time>
      </trkpt>
      <trkpt lat="45.77165" lon="4.62449">
        <ele>658.9</ele>
        <time>2021-02-08T09:26:41.000Z</time>
      </trkpt>
      <trkpt lat="45.77173" lon="4.62437">
        <ele>658.2</ele>
        <time>2021-02-08T09:26:43.000Z</time>
      </trkpt>
      <trkpt lat="45.77181" lon="4.62428">
        <ele>657.7</ele>
        <time>2021-02-08T09:26:45.000Z</time>
      </trkpt>
      <trkpt lat="45.77188" lon="4.62414">
        <ele>657.3</ele>
        <time>2021-02-08T09:26:48.000Z</time>
      </trkpt>
      <trkpt lat="45.77188" lon="4.62396">
        <ele>657.1</ele>
        <time>2021-02-08T09:26:51.000Z</time>
      </trkpt>
      <trkpt lat="45.77185" lon="4.62381">
        <ele>656.9</ele>
        <time>2021-02-08T09:26:54.000Z</time>
      </trkpt>
      <trkpt lat="45.7718" lon="4.62367">
        <ele>656.4</ele>
        <time>2021-02-08T09:26:57.000Z</time>
      </trkpt>
      <trkpt lat="45.77171" lon="4.62363">
        <ele>655.5</ele>
        <time>2021-02-08T09:27:00.000Z</time>
      </trkpt>
      <trkpt lat="45.77162" lon="4.62355">
        <ele>654.5</ele>
        <time>2021-02-08T09:27:03.000Z</time>
      </trkpt>
      <trkpt lat="45.77155" lon="4.62344">
        <ele>653.3</ele>
        <time>2021-02-08T09:27:06.000Z</time>
      </trkpt>
      <trkpt lat="45.77147" lon="4.62334">
        <ele>652</ele>
        <time>2021-02-08T09:27:09.000Z</time>
      </trkpt>
      <trkpt lat="45.77146" lon="4.6232">
        <ele>650.9</ele>
        <time>2021-02-08T09:27:12.000Z</time>
      </trkpt>
      <trkpt lat="45.77138" lon="4.6231">
        <ele>649.7</ele>
        <time>2021-02-08T09:27:15.000Z</time>
      </trkpt>
      <trkpt lat="45.77128" lon="4.62305">
        <ele>648.6</ele>
        <time>2021-02-08T09:27:18.000Z</time>
      </trkpt>
      <trkpt lat="45.77118" lon="4.62307">
        <ele>647.5</ele>
        <time>2021-02-08T09:27:21.000Z</time>
      </trkpt>
      <trkpt lat="45.77115" lon="4.62291">
        <ele>646.4</ele>
        <time>2021-02-08T09:27:24.000Z</time>
      </trkpt>
      <trkpt lat="45.77119" lon="4.62278">
        <ele>645.8</ele>
        <time>2021-02-08T09:27:26.000Z</time>
      </trkpt>
      <trkpt lat="45.77126" lon="4.62269">
        <ele>645.4</ele>
        <time>2021-02-08T09:27:28.000Z</time>
      </trkpt>
      <trkpt lat="45.77134" lon="4.62259">
        <ele>644.8</ele>
        <time>2021-02-08T09:27:31.000Z</time>
      </trkpt>
      <trkpt lat="45.77126" lon="4.62251">
        <ele>643.9</ele>
        <time>2021-02-08T09:27:38.000Z</time>
      </trkpt>
      <trkpt lat="45.77115" lon="4.62247">
        <ele>642.4</ele>
        <time>2021-02-08T09:27:41.000Z</time>
      </trkpt>
      <trkpt lat="45.77104" lon="4.62257">
        <ele>640.8</ele>
        <time>2021-02-08T09:27:44.000Z</time>
      </trkpt>
      <trkpt lat="45.77094" lon="4.62255">
        <ele>639.4</ele>
        <time>2021-02-08T09:27:47.000Z</time>
      </trkpt>
      <trkpt lat="45.77086" lon="4.62248">
        <ele>638</ele>
        <time>2021-02-08T09:27:50.000Z</time>
      </trkpt>
      <trkpt lat="45.77087" lon="4.62232">
        <ele>636.8</ele>
        <time>2021-02-08T09:27:53.000Z</time>
      </trkpt>
      <trkpt lat="45.77096" lon="4.62223">
        <ele>636</ele>
        <time>2021-02-08T09:27:56.000Z</time>
      </trkpt>
      <trkpt lat="45.771" lon="4.6221">
        <ele>635.1</ele>
        <time>2021-02-08T09:28:00.000Z</time>
      </trkpt>
      <trkpt lat="45.77106" lon="4.62197">
        <ele>633.9</ele>
        <time>2021-02-08T09:28:03.000Z</time>
      </trkpt>
      <trkpt lat="45.77118" lon="4.62192">
        <ele>632.1</ele>
        <time>2021-02-08T09:28:06.000Z</time>
      </trkpt>
      <trkpt lat="45.77115" lon="4.62178">
        <ele>630.2</ele>
        <time>2021-02-08T09:28:11.000Z</time>
      </trkpt>
      <trkpt lat="45.77112" lon="4.62162">
        <ele>628.1</ele>
        <time>2021-02-08T09:28:15.000Z</time>
      </trkpt>
      <trkpt lat="45.77118" lon="4.6215">
        <ele>626.6</ele>
        <time>2021-02-08T09:28:17.000Z</time>
      </trkpt>
      <trkpt lat="45.77126" lon="4.62144">
        <ele>625.7</ele>
        <time>2021-02-08T09:28:19.000Z</time>
      </trkpt>
      <trkpt lat="45.77135" lon="4.62137">
        <ele>625.2</ele>
        <time>2021-02-08T09:28:22.000Z</time>
      </trkpt>
      <trkpt lat="45.77145" lon="4.62135">
        <ele>625.3</ele>
        <time>2021-02-08T09:28:25.000Z</time>
      </trkpt>
      <trkpt lat="45.77155" lon="4.62137">
        <ele>625.7</ele>
        <time>2021-02-08T09:28:30.000Z</time>
      </trkpt>
      <trkpt lat="45.77163" lon="4.62144">
        <ele>626.2</ele>
        <time>2021-02-08T09:28:35.000Z</time>
      </trkpt>
      <trkpt lat="45.77172" lon="4.6215">
        <ele>626.3</ele>
        <time>2021-02-08T09:28:43.000Z</time>
      </trkpt>
      <trkpt lat="45.77181" lon="4.62151">
        <ele>626</ele>
        <time>2021-02-08T09:28:47.000Z</time>
      </trkpt>
      <trkpt lat="45.7719" lon="4.62149">
        <ele>625.3</ele>
        <time>2021-02-08T09:28:50.000Z</time>
      </trkpt>
      <trkpt lat="45.77201" lon="4.62143">
        <ele>624.1</ele>
        <time>2021-02-08T09:28:53.000Z</time>
      </trkpt>
      <trkpt lat="45.77211" lon="4.62136">
        <ele>622.6</ele>
        <time>2021-02-08T09:28:56.000Z</time>
      </trkpt>
      <trkpt lat="45.77223" lon="4.62135">
        <ele>621.2</ele>
        <time>2021-02-08T09:29:00.000Z</time>
      </trkpt>
      <trkpt lat="45.77233" lon="4.62135">
        <ele>620.5</ele>
        <time>2021-02-08T09:29:06.000Z</time>
      </trkpt>
      <trkpt lat="45.77243" lon="4.62144">
        <ele>619.9</ele>
        <time>2021-02-08T09:29:12.000Z</time>
      </trkpt>
      <trkpt lat="45.77252" lon="4.62154">
        <ele>619.4</ele>
        <time>2021-02-08T09:29:16.000Z</time>
      </trkpt>
      <trkpt lat="45.7726" lon="4.62163">
        <ele>619</ele>
        <time>2021-02-08T09:29:19.000Z</time>
      </trkpt>
      <trkpt lat="45.7727" lon="4.62166">
        <ele>618.4</ele>
        <time>2021-02-08T09:29:23.000Z</time>
      </trkpt>
      <trkpt lat="45.7728" lon="4.62153">
        <ele>617</ele>
        <time>2021-02-08T09:29:26.000Z</time>
      </trkpt>
      <trkpt lat="45.77284" lon="4.62138">
        <ele>615.2</ele>
        <time>2021-02-08T09:29:30.000Z</time>
      </trkpt>
      <trkpt lat="45.77276" lon="4.62126">
        <ele>613.3</ele>
        <time>2021-02-08T09:29:33.000Z</time>
      </trkpt>
      <trkpt lat="45.77267" lon="4.62115">
        <ele>611.5</ele>
        <time>2021-02-08T09:29:36.000Z</time>
      </trkpt>
      <trkpt lat="45.77262" lon="4.62101">
        <ele>610.2</ele>
        <time>2021-02-08T09:29:38.000Z</time>
      </trkpt>
      <trkpt lat="45.77254" lon="4.62089">
        <ele>609</ele>
        <time>2021-02-08T09:29:40.000Z</time>
      </trkpt>
      <trkpt lat="45.7725" lon="4.62075">
        <ele>607.7</ele>
        <time>2021-02-08T09:29:43.000Z</time>
      </trkpt>
      <trkpt lat="45.7726" lon="4.62077">
        <ele>606.2</ele>
        <time>2021-02-08T09:29:46.000Z</time>
      </trkpt>
      <trkpt lat="45.7727" lon="4.62084">
        <ele>604.6</ele>
        <time>2021-02-08T09:29:48.000Z</time>
      </trkpt>
      <trkpt lat="45.77279" lon="4.62091">
        <ele>602.8</ele>
        <time>2021-02-08T09:29:50.000Z</time>
      </trkpt>
      <trkpt lat="45.77289" lon="4.62095">
        <ele>600.3</ele>
        <time>2021-02-08T09:29:53.000Z</time>
      </trkpt>
      <trkpt lat="45.77301" lon="4.62091">
        <ele>597.4</ele>
        <time>2021-02-08T09:29:57.000Z</time>
      </trkpt>
      <trkpt lat="45.7731" lon="4.62098">
        <ele>594.2</ele>
        <time>2021-02-08T09:30:00.000Z</time>
      </trkpt>
      <trkpt lat="45.7732" lon="4.62099">
        <ele>591.1</ele>
        <time>2021-02-08T09:30:03.000Z</time>
      </trkpt>
      <trkpt lat="45.77328" lon="4.62093">
        <ele>588</ele>
        <time>2021-02-08T09:30:07.000Z</time>
      </trkpt>
      <trkpt lat="45.77332" lon="4.62079">
        <ele>584.8</ele>
        <time>2021-02-08T09:30:13.000Z</time>
      </trkpt>
      <trkpt lat="45.7734" lon="4.62073">
        <ele>582.3</ele>
        <time>2021-02-08T09:30:17.000Z</time>
      </trkpt>
      <trkpt lat="45.77351" lon="4.62077">
        <ele>579.6</ele>
        <time>2021-02-08T09:30:20.000Z</time>
      </trkpt>
      <trkpt lat="45.77361" lon="4.62083">
        <ele>577.3</ele>
        <time>2021-02-08T09:30:22.000Z</time>
      </trkpt>
      <trkpt lat="45.7737" lon="4.62091">
        <ele>574.7</ele>
        <time>2021-02-08T09:30:25.000Z</time>
      </trkpt>
      <trkpt lat="45.7737" lon="4.62076">
        <ele>571.9</ele>
        <time>2021-02-08T09:30:31.000Z</time>
      </trkpt>
      <trkpt lat="45.7738" lon="4.62075">
        <ele>569.1</ele>
        <time>2021-02-08T09:30:36.000Z</time>
      </trkpt>
      <trkpt lat="45.77391" lon="4.62076">
        <ele>566</ele>
        <time>2021-02-08T09:30:39.000Z</time>
      </trkpt>
      <trkpt lat="45.774" lon="4.62075">
        <ele>563.1</ele>
        <time>2021-02-08T09:30:42.000Z</time>
      </trkpt>
      <trkpt lat="45.77403" lon="4.62062">
        <ele>559.7</ele>
        <time>2021-02-08T09:30:47.000Z</time>
      </trkpt>
      <trkpt lat="45.77412" lon="4.62058">
        <ele>556.5</ele>
        <time>2021-02-08T09:30:51.000Z</time>
      </trkpt>
      <trkpt lat="45.77419" lon="4.6205">
        <ele>553.8</ele>
        <time>2021-02-08T09:30:55.000Z</time>
      </trkpt>
      <trkpt lat="45.77428" lon="4.62043">
        <ele>550.9</ele>
        <time>2021-02-08T09:30:58.000Z</time>
      </trkpt>
      <trkpt lat="45.77436" lon="4.6205">
        <ele>548.5</ele>
        <time>2021-02-08T09:31:00.000Z</time>
      </trkpt>
      <trkpt lat="45.77445" lon="4.62056">
        <ele>546</ele>
        <time>2021-02-08T09:31:03.000Z</time>
      </trkpt>
      <trkpt lat="45.77446" lon="4.6204">
        <ele>543.3</ele>
        <time>2021-02-08T09:31:07.000Z</time>
      </trkpt>
      <trkpt lat="45.77439" lon="4.62029">
        <ele>540.8</ele>
        <time>2021-02-08T09:31:10.000Z</time>
      </trkpt>
      <trkpt lat="45.77442" lon="4.62016">
        <ele>538.5</ele>
        <time>2021-02-08T09:31:14.000Z</time>
      </trkpt>
      <trkpt lat="45.77453" lon="4.6202">
        <ele>536</ele>
        <time>2021-02-08T09:31:17.000Z</time>
      </trkpt>
      <trkpt lat="45.77465" lon="4.6203">
        <ele>533.5</ele>
        <time>2021-02-08T09:31:20.000Z</time>
      </trkpt>
      <trkpt lat="45.77472" lon="4.62038">
        <ele>532.1</ele>
        <time>2021-02-08T09:31:22.000Z</time>
      </trkpt>
      <trkpt lat="45.77484" lon="4.62042">
        <ele>530.3</ele>
        <time>2021-02-08T09:31:25.000Z</time>
      </trkpt>
      <trkpt lat="45.77491" lon="4.62049">
        <ele>529.2</ele>
        <time>2021-02-08T09:31:27.000Z</time>
      </trkpt>
      <trkpt lat="45.77499" lon="4.62062">
        <ele>527.8</ele>
        <time>2021-02-08T09:31:30.000Z</time>
      </trkpt>
      <trkpt lat="45.77503" lon="4.62074">
        <ele>526.6</ele>
        <time>2021-02-08T09:31:32.000Z</time>
      </trkpt>
      <trkpt lat="45.7751" lon="4.62088">
        <ele>524.7</ele>
        <time>2021-02-08T09:31:35.000Z</time>
      </trkpt>
      <trkpt lat="45.77521" lon="4.62097">
        <ele>519.6</ele>
        <time>2021-02-08T09:31:38.000Z</time>
      </trkpt>
      <trkpt lat="45.7753" lon="4.62096">
        <ele>517</ele>
        <time>2021-02-08T09:31:41.000Z</time>
      </trkpt>
      <trkpt lat="45.7754" lon="4.62086">
        <ele>513.7</ele>
        <time>2021-02-08T09:31:44.000Z</time>
      </trkpt>
      <trkpt lat="45.77554" lon="4.62077">
        <ele>510</ele>
        <time>2021-02-08T09:31:46.000Z</time>
      </trkpt>
      <trkpt lat="45.77571" lon="4.6207">
        <ele>506.5</ele>
        <time>2021-02-08T09:31:48.000Z</time>
      </trkpt>
      <trkpt lat="45.77583" lon="4.6206">
        <ele>504.9</ele>
        <time>2021-02-08T09:31:50.000Z</time>
      </trkpt>
      <trkpt lat="45.77588" lon="4.62047">
        <ele>504.8</ele>
        <time>2021-02-08T09:31:52.000Z</time>
      </trkpt>
      <trkpt lat="45.77585" lon="4.62031">
        <ele>504.1</ele>
        <time>2021-02-08T09:31:54.000Z</time>
      </trkpt>
      <trkpt lat="45.77578" lon="4.62015">
        <ele>502.9</ele>
        <time>2021-02-08T09:31:56.000Z</time>
      </trkpt>
      <trkpt lat="45.77569" lon="4.62">
        <ele>501.8</ele>
        <time>2021-02-08T09:31:58.000Z</time>
      </trkpt>
      <trkpt lat="45.77557" lon="4.6199">
        <ele>500.7</ele>
        <time>2021-02-08T09:32:00.000Z</time>
      </trkpt>
      <trkpt lat="45.77545" lon="4.61988">
        <ele>500.7</ele>
        <time>2021-02-08T09:32:02.000Z</time>
      </trkpt>
      <trkpt lat="45.77534" lon="4.61992">
        <ele>501.7</ele>
        <time>2021-02-08T09:32:05.000Z</time>
      </trkpt>
      <trkpt lat="45.77525" lon="4.61993">
        <ele>503</ele>
        <time>2021-02-08T09:32:10.000Z</time>
      </trkpt>
      <trkpt lat="45.77516" lon="4.6199">
        <ele>504.5</ele>
        <time>2021-02-08T09:32:17.000Z</time>
      </trkpt>
      <trkpt lat="45.77507" lon="4.61987">
        <ele>506.5</ele>
        <time>2021-02-08T09:32:25.000Z</time>
      </trkpt>
      <trkpt lat="45.77497" lon="4.61981">
        <ele>508.4</ele>
        <time>2021-02-08T09:32:34.000Z</time>
      </trkpt>
      <trkpt lat="45.77488" lon="4.6198">
        <ele>510.3</ele>
        <time>2021-02-08T09:32:44.000Z</time>
      </trkpt>
      <trkpt lat="45.77479" lon="4.61979">
        <ele>512</ele>
        <time>2021-02-08T09:32:53.000Z</time>
      </trkpt>
      <trkpt lat="45.77469" lon="4.6198">
        <ele>513.8</ele>
        <time>2021-02-08T09:33:03.000Z</time>
      </trkpt>
      <trkpt lat="45.77461" lon="4.61984">
        <ele>515.7</ele>
        <time>2021-02-08T09:33:13.000Z</time>
      </trkpt>
      <trkpt lat="45.77452" lon="4.61982">
        <ele>517.7</ele>
        <time>2021-02-08T09:33:24.000Z</time>
      </trkpt>
      <trkpt lat="45.77442" lon="4.61984">
        <ele>520.1</ele>
        <time>2021-02-08T09:33:34.000Z</time>
      </trkpt>
      <trkpt lat="45.77432" lon="4.61986">
        <ele>522.5</ele>
        <time>2021-02-08T09:33:47.000Z</time>
      </trkpt>
      <trkpt lat="45.77422" lon="4.61988">
        <ele>524.6</ele>
        <time>2021-02-08T09:33:56.000Z</time>
      </trkpt>
      <trkpt lat="45.77413" lon="4.61986">
        <ele>526.4</ele>
        <time>2021-02-08T09:34:05.000Z</time>
      </trkpt>
      <trkpt lat="45.77405" lon="4.61982">
        <ele>528.2</ele>
        <time>2021-02-08T09:34:15.000Z</time>
      </trkpt>
      <trkpt lat="45.77396" lon="4.61979">
        <ele>530.2</ele>
        <time>2021-02-08T09:34:25.000Z</time>
      </trkpt>
      <trkpt lat="45.77387" lon="4.61976">
        <ele>532.2</ele>
        <time>2021-02-08T09:34:35.000Z</time>
      </trkpt>
      <trkpt lat="45.77379" lon="4.61969">
        <ele>534</ele>
        <time>2021-02-08T09:34:45.000Z</time>
      </trkpt>
      <trkpt lat="45.77371" lon="4.6196">
        <ele>535.8</ele>
        <time>2021-02-08T09:34:55.000Z</time>
      </trkpt>
      <trkpt lat="45.77363" lon="4.61953">
        <ele>537.6</ele>
        <time>2021-02-08T09:35:04.000Z</time>
      </trkpt>
      <trkpt lat="45.77355" lon="4.61946">
        <ele>539.3</ele>
        <time>2021-02-08T09:35:13.000Z</time>
      </trkpt>
      <trkpt lat="45.77347" lon="4.61939">
        <ele>540.9</ele>
        <time>2021-02-08T09:35:22.000Z</time>
      </trkpt>
      <trkpt lat="45.7734" lon="4.61931">
        <ele>542.3</ele>
        <time>2021-02-08T09:35:31.000Z</time>
      </trkpt>
      <trkpt lat="45.77333" lon="4.61921">
        <ele>543.5</ele>
        <time>2021-02-08T09:35:40.000Z</time>
      </trkpt>
      <trkpt lat="45.77326" lon="4.61912">
        <ele>544.6</ele>
        <time>2021-02-08T09:35:47.000Z</time>
      </trkpt>
      <trkpt lat="45.7732" lon="4.61902">
        <ele>545.8</ele>
        <time>2021-02-08T09:35:55.000Z</time>
      </trkpt>
      <trkpt lat="45.77312" lon="4.61893">
        <ele>547.3</ele>
        <time>2021-02-08T09:36:03.000Z</time>
      </trkpt>
      <trkpt lat="45.77305" lon="4.61884">
        <ele>548.7</ele>
        <time>2021-02-08T09:36:12.000Z</time>
      </trkpt>
      <trkpt lat="45.773" lon="4.61872">
        <ele>550.2</ele>
        <time>2021-02-08T09:36:21.000Z</time>
      </trkpt>
      <trkpt lat="45.77297" lon="4.61859">
        <ele>551.5</ele>
        <time>2021-02-08T09:36:29.000Z</time>
      </trkpt>
      <trkpt lat="45.77292" lon="4.61847">
        <ele>552.5</ele>
        <time>2021-02-08T09:36:35.000Z</time>
      </trkpt>
      <trkpt lat="45.77285" lon="4.61834">
        <ele>553.1</ele>
        <time>2021-02-08T09:36:41.000Z</time>
      </trkpt>
      <trkpt lat="45.7728" lon="4.61824">
        <ele>553.5</ele>
        <time>2021-02-08T09:36:45.000Z</time>
      </trkpt>
      <trkpt lat="45.77273" lon="4.61812">
        <ele>553.9</ele>
        <time>2021-02-08T09:36:50.000Z</time>
      </trkpt>
      <trkpt lat="45.77264" lon="4.61802">
        <ele>554.4</ele>
        <time>2021-02-08T09:36:55.000Z</time>
      </trkpt>
      <trkpt lat="45.77254" lon="4.61797">
        <ele>554.9</ele>
        <time>2021-02-08T09:37:00.000Z</time>
      </trkpt>
      <trkpt lat="45.77245" lon="4.61792">
        <ele>555.4</ele>
        <time>2021-02-08T09:37:04.000Z</time>
      </trkpt>
      <trkpt lat="45.77237" lon="4.61787">
        <ele>555.9</ele>
        <time>2021-02-08T09:37:08.000Z</time>
      </trkpt>
      <trkpt lat="45.77228" lon="4.61786">
        <ele>556.5</ele>
        <time>2021-02-08T09:37:12.000Z</time>
      </trkpt>
      <trkpt lat="45.77219" lon="4.61789">
        <ele>557.2</ele>
        <time>2021-02-08T09:37:16.000Z</time>
      </trkpt>
      <trkpt lat="45.77209" lon="4.61793">
        <ele>558</ele>
        <time>2021-02-08T09:37:20.000Z</time>
      </trkpt>
      <trkpt lat="45.772" lon="4.61795">
        <ele>558.7</ele>
        <time>2021-02-08T09:37:25.000Z</time>
      </trkpt>
      <trkpt lat="45.7719" lon="4.61801">
        <ele>559.3</ele>
        <time>2021-02-08T09:37:30.000Z</time>
      </trkpt>
      <trkpt lat="45.77182" lon="4.61808">
        <ele>559.6</ele>
        <time>2021-02-08T09:37:34.000Z</time>
      </trkpt>
      <trkpt lat="45.77175" lon="4.6182">
        <ele>559.8</ele>
        <time>2021-02-08T09:37:38.000Z</time>
      </trkpt>
      <trkpt lat="45.77168" lon="4.61832">
        <ele>560.2</ele>
        <time>2021-02-08T09:37:42.000Z</time>
      </trkpt>
      <trkpt lat="45.77163" lon="4.61845">
        <ele>560.5</ele>
        <time>2021-02-08T09:37:46.000Z</time>
      </trkpt>
      <trkpt lat="45.77159" lon="4.6186">
        <ele>561</ele>
        <time>2021-02-08T09:37:50.000Z</time>
      </trkpt>
      <trkpt lat="45.77154" lon="4.61873">
        <ele>561.5</ele>
        <time>2021-02-08T09:37:54.000Z</time>
      </trkpt>
      <trkpt lat="45.77153" lon="4.61888">
        <ele>562.2</ele>
        <time>2021-02-08T09:37:58.000Z</time>
      </trkpt>
      <trkpt lat="45.77151" lon="4.61901">
        <ele>562.9</ele>
        <time>2021-02-08T09:38:02.000Z</time>
      </trkpt>
      <trkpt lat="45.77148" lon="4.61914">
        <ele>563.8</ele>
        <time>2021-02-08T09:38:07.000Z</time>
      </trkpt>
      <trkpt lat="45.77144" lon="4.61927">
        <ele>564.8</ele>
        <time>2021-02-08T09:38:12.000Z</time>
      </trkpt>
      <trkpt lat="45.77138" lon="4.61937">
        <ele>565.9</ele>
        <time>2021-02-08T09:38:17.000Z</time>
      </trkpt>
      <trkpt lat="45.77131" lon="4.61946">
        <ele>567</ele>
        <time>2021-02-08T09:38:23.000Z</time>
      </trkpt>
      <trkpt lat="45.77123" lon="4.61956">
        <ele>568.3</ele>
        <time>2021-02-08T09:38:30.000Z</time>
      </trkpt>
      <trkpt lat="45.77115" lon="4.61963">
        <ele>569.4</ele>
        <time>2021-02-08T09:38:38.000Z</time>
      </trkpt>
      <trkpt lat="45.77108" lon="4.61972">
        <ele>570.5</ele>
        <time>2021-02-08T09:38:45.000Z</time>
      </trkpt>
      <trkpt lat="45.77101" lon="4.61982">
        <ele>571.9</ele>
        <time>2021-02-08T09:38:54.000Z</time>
      </trkpt>
      <trkpt lat="45.77095" lon="4.61992">
        <ele>573.4</ele>
        <time>2021-02-08T09:39:02.000Z</time>
      </trkpt>
      <trkpt lat="45.77087" lon="4.61997">
        <ele>574.9</ele>
        <time>2021-02-08T09:39:11.000Z</time>
      </trkpt>
      <trkpt lat="45.77078" lon="4.62002">
        <ele>576.3</ele>
        <time>2021-02-08T09:39:20.000Z</time>
      </trkpt>
      <trkpt lat="45.7707" lon="4.62008">
        <ele>577.6</ele>
        <time>2021-02-08T09:39:26.000Z</time>
      </trkpt>
      <trkpt lat="45.77063" lon="4.62017">
        <ele>578.9</ele>
        <time>2021-02-08T09:39:33.000Z</time>
      </trkpt>
      <trkpt lat="45.77054" lon="4.62021">
        <ele>580.2</ele>
        <time>2021-02-08T09:39:40.000Z</time>
      </trkpt>
      <trkpt lat="45.77047" lon="4.62028">
        <ele>581.5</ele>
        <time>2021-02-08T09:39:48.000Z</time>
      </trkpt>
      <trkpt lat="45.77041" lon="4.6204">
        <ele>583.2</ele>
        <time>2021-02-08T09:39:56.000Z</time>
      </trkpt>
      <trkpt lat="45.77035" lon="4.62051">
        <ele>585.2</ele>
        <time>2021-02-08T09:40:06.000Z</time>
      </trkpt>
      <trkpt lat="45.77029" lon="4.62062">
        <ele>587.2</ele>
        <time>2021-02-08T09:40:14.000Z</time>
      </trkpt>
      <trkpt lat="45.77022" lon="4.62069">
        <ele>588.7</ele>
        <time>2021-02-08T09:40:22.000Z</time>
      </trkpt>
      <trkpt lat="45.77015" lon="4.62078">
        <ele>589.7</ele>
        <time>2021-02-08T09:40:29.000Z</time>
      </trkpt>
      <trkpt lat="45.77007" lon="4.62087">
        <ele>590.5</ele>
        <time>2021-02-08T09:40:36.000Z</time>
      </trkpt>
      <trkpt lat="45.77001" lon="4.62097">
        <ele>591.3</ele>
        <time>2021-02-08T09:40:43.000Z</time>
      </trkpt>
      <trkpt lat="45.76996" lon="4.62111">
        <ele>592.1</ele>
        <time>2021-02-08T09:40:51.000Z</time>
      </trkpt>
      <trkpt lat="45.76993" lon="4.62124">
        <ele>592.9</ele>
        <time>2021-02-08T09:40:58.000Z</time>
      </trkpt>
      <trkpt lat="45.7699" lon="4.62138">
        <ele>593.6</ele>
        <time>2021-02-08T09:41:05.000Z</time>
      </trkpt>
      <trkpt lat="45.76987" lon="4.62152">
        <ele>594.3</ele>
        <time>2021-02-08T09:41:11.000Z</time>
      </trkpt>
      <trkpt lat="45.76985" lon="4.62165">
        <ele>595</ele>
        <time>2021-02-08T09:41:16.000Z</time>
      </trkpt>
      <trkpt lat="45.76984" lon="4.62175">
        <ele>595.5</ele>
        <time>2021-02-08T09:41:21.000Z</time>
      </trkpt>
      <trkpt lat="45.76983" lon="4.62177">
        <ele>595.6</ele>
        <time>2021-02-08T09:41:23.000Z</time>
      </trkpt>
      <trkpt lat="45.76982" lon="4.62191">
        <ele>596.3</ele>
        <time>2021-02-08T09:41:28.000Z</time>
      </trkpt>
      <trkpt lat="45.76982" lon="4.62206">
        <ele>597.1</ele>
        <time>2021-02-08T09:41:33.000Z</time>
      </trkpt>
      <trkpt lat="45.76981" lon="4.6222">
        <ele>597.9</ele>
        <time>2021-02-08T09:41:38.000Z</time>
      </trkpt>
      <trkpt lat="45.76981" lon="4.62234">
        <ele>598.7</ele>
        <time>2021-02-08T09:41:43.000Z</time>
      </trkpt>
      <trkpt lat="45.7698" lon="4.62247">
        <ele>599.3</ele>
        <time>2021-02-08T09:41:48.000Z</time>
      </trkpt>
      <trkpt lat="45.76978" lon="4.62261">
        <ele>599.9</ele>
        <time>2021-02-08T09:41:53.000Z</time>
      </trkpt>
      <trkpt lat="45.76977" lon="4.62275">
        <ele>600.5</ele>
        <time>2021-02-08T09:41:58.000Z</time>
      </trkpt>
      <trkpt lat="45.76975" lon="4.62288">
        <ele>601</ele>
        <time>2021-02-08T09:42:03.000Z</time>
      </trkpt>
      <trkpt lat="45.76974" lon="4.62304">
        <ele>601.6</ele>
        <time>2021-02-08T09:42:08.000Z</time>
      </trkpt>
      <trkpt lat="45.76972" lon="4.62319">
        <ele>602.2</ele>
        <time>2021-02-08T09:42:13.000Z</time>
      </trkpt>
      <trkpt lat="45.76968" lon="4.6233">
        <ele>602.4</ele>
        <time>2021-02-08T09:42:17.000Z</time>
      </trkpt>
      <trkpt lat="45.76964" lon="4.62343">
        <ele>602.7</ele>
        <time>2021-02-08T09:42:21.000Z</time>
      </trkpt>
      <trkpt lat="45.76958" lon="4.62356">
        <ele>603.1</ele>
        <time>2021-02-08T09:42:25.000Z</time>
      </trkpt>
      <trkpt lat="45.76952" lon="4.62367">
        <ele>603.5</ele>
        <time>2021-02-08T09:42:29.000Z</time>
      </trkpt>
      <trkpt lat="45.76946" lon="4.62377">
        <ele>604</ele>
        <time>2021-02-08T09:42:33.000Z</time>
      </trkpt>
      <trkpt lat="45.76939" lon="4.62389">
        <ele>604.9</ele>
        <time>2021-02-08T09:42:38.000Z</time>
      </trkpt>
      <trkpt lat="45.76934" lon="4.624">
        <ele>606</ele>
        <time>2021-02-08T09:42:44.000Z</time>
      </trkpt>
      <trkpt lat="45.76927" lon="4.6241">
        <ele>607.5</ele>
        <time>2021-02-08T09:42:51.000Z</time>
      </trkpt>
      <trkpt lat="45.7692" lon="4.6242">
        <ele>609.4</ele>
        <time>2021-02-08T09:42:59.000Z</time>
      </trkpt>
      <trkpt lat="45.76911" lon="4.62425">
        <ele>611</ele>
        <time>2021-02-08T09:43:07.000Z</time>
      </trkpt>
      <trkpt lat="45.76902" lon="4.6243">
        <ele>612.4</ele>
        <time>2021-02-08T09:43:16.000Z</time>
      </trkpt>
      <trkpt lat="45.76894" lon="4.62437">
        <ele>613.7</ele>
        <time>2021-02-08T09:43:24.000Z</time>
      </trkpt>
      <trkpt lat="45.76885" lon="4.62444">
        <ele>614.9</ele>
        <time>2021-02-08T09:43:32.000Z</time>
      </trkpt>
      <trkpt lat="45.76877" lon="4.62449">
        <ele>616</ele>
        <time>2021-02-08T09:43:39.000Z</time>
      </trkpt>
      <trkpt lat="45.76868" lon="4.62455">
        <ele>617.1</ele>
        <time>2021-02-08T09:43:46.000Z</time>
      </trkpt>
      <trkpt lat="45.76858" lon="4.6246">
        <ele>618.2</ele>
        <time>2021-02-08T09:43:54.000Z</time>
      </trkpt>
      <trkpt lat="45.7685" lon="4.62467">
        <ele>619.1</ele>
        <time>2021-02-08T09:44:01.000Z</time>
      </trkpt>
      <trkpt lat="45.76842" lon="4.62476">
        <ele>620</ele>
        <time>2021-02-08T09:44:08.000Z</time>
      </trkpt>
      <trkpt lat="45.76835" lon="4.62482">
        <ele>620.9</ele>
        <time>2021-02-08T09:44:15.000Z</time>
      </trkpt>
      <trkpt lat="45.76825" lon="4.62488">
        <ele>621.9</ele>
        <time>2021-02-08T09:44:23.000Z</time>
      </trkpt>
      <trkpt lat="45.76815" lon="4.62493">
        <ele>623</ele>
        <time>2021-02-08T09:44:30.000Z</time>
      </trkpt>
      <trkpt lat="45.76806" lon="4.62496">
        <ele>624</ele>
        <time>2021-02-08T09:44:37.000Z</time>
      </trkpt>
      <trkpt lat="45.76796" lon="4.62499">
        <ele>625</ele>
        <time>2021-02-08T09:44:44.000Z</time>
      </trkpt>
      <trkpt lat="45.76786" lon="4.62502">
        <ele>626.1</ele>
        <time>2021-02-08T09:44:51.000Z</time>
      </trkpt>
      <trkpt lat="45.76777" lon="4.62506">
        <ele>627.2</ele>
        <time>2021-02-08T09:44:58.000Z</time>
      </trkpt>
      <trkpt lat="45.76768" lon="4.6251">
        <ele>628.3</ele>
        <time>2021-02-08T09:45:05.000Z</time>
      </trkpt>
      <trkpt lat="45.76758" lon="4.62515">
        <ele>629.5</ele>
        <time>2021-02-08T09:45:12.000Z</time>
      </trkpt>
      <trkpt lat="45.76748" lon="4.62519">
        <ele>630.9</ele>
        <time>2021-02-08T09:45:19.000Z</time>
      </trkpt>
      <trkpt lat="45.76738" lon="4.62522">
        <ele>632.5</ele>
        <time>2021-02-08T09:45:27.000Z</time>
      </trkpt>
      <trkpt lat="45.76729" lon="4.62526">
        <ele>634.2</ele>
        <time>2021-02-08T09:45:35.000Z</time>
      </trkpt>
      <trkpt lat="45.7672" lon="4.6253">
        <ele>636.1</ele>
        <time>2021-02-08T09:45:43.000Z</time>
      </trkpt>
      <trkpt lat="45.7671" lon="4.62534">
        <ele>637.9</ele>
        <time>2021-02-08T09:45:51.000Z</time>
      </trkpt>
      <trkpt lat="45.767" lon="4.62537">
        <ele>639.6</ele>
        <time>2021-02-08T09:45:59.000Z</time>
      </trkpt>
      <trkpt lat="45.76691" lon="4.62538">
        <ele>641</ele>
        <time>2021-02-08T09:46:06.000Z</time>
      </trkpt>
      <trkpt lat="45.76682" lon="4.62539">
        <ele>642.4</ele>
        <time>2021-02-08T09:46:13.000Z</time>
      </trkpt>
      <trkpt lat="45.76673" lon="4.62544">
        <ele>643.9</ele>
        <time>2021-02-08T09:46:21.000Z</time>
      </trkpt>
      <trkpt lat="45.76664" lon="4.62548">
        <ele>645.4</ele>
        <time>2021-02-08T09:46:28.000Z</time>
      </trkpt>
      <trkpt lat="45.76656" lon="4.62554">
        <ele>647</ele>
        <time>2021-02-08T09:46:36.000Z</time>
      </trkpt>
      <trkpt lat="45.76647" lon="4.62561">
        <ele>648.7</ele>
        <time>2021-02-08T09:46:45.000Z</time>
      </trkpt>
      <trkpt lat="45.76638" lon="4.62565">
        <ele>650.4</ele>
        <time>2021-02-08T09:46:53.000Z</time>
      </trkpt>
      <trkpt lat="45.7663" lon="4.62573">
        <ele>652.4</ele>
        <time>2021-02-08T09:47:02.000Z</time>
      </trkpt>
      <trkpt lat="45.76622" lon="4.6258">
        <ele>654.2</ele>
        <time>2021-02-08T09:47:11.000Z</time>
      </trkpt>
      <trkpt lat="45.76614" lon="4.62586">
        <ele>656</ele>
        <time>2021-02-08T09:47:22.000Z</time>
      </trkpt>
      <trkpt lat="45.76605" lon="4.62589">
        <ele>657.6</ele>
        <time>2021-02-08T09:47:30.000Z</time>
      </trkpt>
      <trkpt lat="45.76596" lon="4.62592">
        <ele>659.1</ele>
        <time>2021-02-08T09:47:39.000Z</time>
      </trkpt>
      <trkpt lat="45.76586" lon="4.62595">
        <ele>660.4</ele>
        <time>2021-02-08T09:47:49.000Z</time>
      </trkpt>
      <trkpt lat="45.76577" lon="4.62597">
        <ele>661.6</ele>
        <time>2021-02-08T09:47:58.000Z</time>
      </trkpt>
      <trkpt lat="45.76568" lon="4.626">
        <ele>662.9</ele>
        <time>2021-02-08T09:48:06.000Z</time>
      </trkpt>
      <trkpt lat="45.76559" lon="4.62603">
        <ele>664.1</ele>
        <time>2021-02-08T09:48:14.000Z</time>
      </trkpt>
      <trkpt lat="45.76549" lon="4.62605">
        <ele>665.6</ele>
        <time>2021-02-08T09:48:22.000Z</time>
      </trkpt>
      <trkpt lat="45.76539" lon="4.62608">
        <ele>667.2</ele>
        <time>2021-02-08T09:48:30.000Z</time>
      </trkpt>
      <trkpt lat="45.7653" lon="4.62613">
        <ele>668.8</ele>
        <time>2021-02-08T09:48:38.000Z</time>
      </trkpt>
      <trkpt lat="45.76522" lon="4.6262">
        <ele>670.4</ele>
        <time>2021-02-08T09:48:46.000Z</time>
      </trkpt>
      <trkpt lat="45.76515" lon="4.6263">
        <ele>672.1</ele>
        <time>2021-02-08T09:48:56.000Z</time>
      </trkpt>
      <trkpt lat="45.76509" lon="4.62641">
        <ele>673.8</ele>
        <time>2021-02-08T09:49:05.000Z</time>
      </trkpt>
      <trkpt lat="45.76502" lon="4.62649">
        <ele>675.2</ele>
        <time>2021-02-08T09:49:13.000Z</time>
      </trkpt>
      <trkpt lat="45.76493" lon="4.62653">
        <ele>676.5</ele>
        <time>2021-02-08T09:49:21.000Z</time>
      </trkpt>
      <trkpt lat="45.76484" lon="4.62656">
        <ele>677.5</ele>
        <time>2021-02-08T09:49:28.000Z</time>
      </trkpt>
      <trkpt lat="45.76475" lon="4.62658">
        <ele>678.6</ele>
        <time>2021-02-08T09:49:35.000Z</time>
      </trkpt>
      <trkpt lat="45.76467" lon="4.62667">
        <ele>679.6</ele>
        <time>2021-02-08T09:49:42.000Z</time>
      </trkpt>
      <trkpt lat="45.76459" lon="4.62675">
        <ele>680.8</ele>
        <time>2021-02-08T09:49:49.000Z</time>
      </trkpt>
      <trkpt lat="45.76453" lon="4.62685">
        <ele>682</ele>
        <time>2021-02-08T09:49:56.000Z</time>
      </trkpt>
      <trkpt lat="45.76445" lon="4.62693">
        <ele>683.3</ele>
        <time>2021-02-08T09:50:03.000Z</time>
      </trkpt>
      <trkpt lat="45.7644" lon="4.62699">
        <ele>684.3</ele>
        <time>2021-02-08T09:50:11.000Z</time>
      </trkpt>
      <trkpt lat="45.7644" lon="4.627">
        <ele>684.4</ele>
        <time>2021-02-08T09:50:12.000Z</time>
      </trkpt>
      <trkpt lat="45.76432" lon="4.62707">
        <ele>685.9</ele>
        <time>2021-02-08T09:50:20.000Z</time>
      </trkpt>
      <trkpt lat="45.76425" lon="4.62716">
        <ele>687.6</ele>
        <time>2021-02-08T09:50:28.000Z</time>
      </trkpt>
      <trkpt lat="45.76418" lon="4.62726">
        <ele>689.3</ele>
        <time>2021-02-08T09:50:36.000Z</time>
      </trkpt>
      <trkpt lat="45.76415" lon="4.62739">
        <ele>690.7</ele>
        <time>2021-02-08T09:50:44.000Z</time>
      </trkpt>
      <trkpt lat="45.76411" lon="4.62751">
        <ele>691.8</ele>
        <time>2021-02-08T09:50:52.000Z</time>
      </trkpt>
      <trkpt lat="45.76407" lon="4.62764">
        <ele>692.8</ele>
        <time>2021-02-08T09:51:00.000Z</time>
      </trkpt>
      <trkpt lat="45.76402" lon="4.62776">
        <ele>693.9</ele>
        <time>2021-02-08T09:51:09.000Z</time>
      </trkpt>
      <trkpt lat="45.76395" lon="4.62785">
        <ele>695</ele>
        <time>2021-02-08T09:51:18.000Z</time>
      </trkpt>
      <trkpt lat="45.76387" lon="4.62791">
        <ele>696.2</ele>
        <time>2021-02-08T09:51:27.000Z</time>
      </trkpt>
      <trkpt lat="45.76379" lon="4.62799">
        <ele>697.4</ele>
        <time>2021-02-08T09:51:36.000Z</time>
      </trkpt>
      <trkpt lat="45.76373" lon="4.62809">
        <ele>698.6</ele>
        <time>2021-02-08T09:51:45.000Z</time>
      </trkpt>
      <trkpt lat="45.76363" lon="4.62812">
        <ele>699.7</ele>
        <time>2021-02-08T09:51:54.000Z</time>
      </trkpt>
      <trkpt lat="45.76354" lon="4.62806">
        <ele>701</ele>
        <time>2021-02-08T09:52:04.000Z</time>
      </trkpt>
      <trkpt lat="45.76351" lon="4.62793">
        <ele>702.4</ele>
        <time>2021-02-08T09:52:14.000Z</time>
      </trkpt>
      <trkpt lat="45.76347" lon="4.62781">
        <ele>706.2</ele>
        <time>2021-02-08T09:52:21.000Z</time>
      </trkpt>
      <trkpt lat="45.76347" lon="4.62773">
        <ele>706.6</ele>
        <time>2021-02-08T09:52:27.000Z</time>
      </trkpt>
      <trkpt lat="45.76346" lon="4.62773">
        <ele>706.6</ele>
        <time>2021-02-08T09:52:29.000Z</time>
      </trkpt>
      <trkpt lat="45.7634" lon="4.62785">
        <ele>707.2</ele>
        <time>2021-02-08T09:52:39.000Z</time>
      </trkpt>
      <trkpt lat="45.76337" lon="4.62792">
        <ele>707.6</ele>
        <time>2021-02-08T09:52:45.000Z</time>
      </trkpt>
      <trkpt lat="45.76337" lon="4.62794">
        <ele>707.7</ele>
        <time>2021-02-08T09:52:46.000Z</time>
      </trkpt>
      <trkpt lat="45.76332" lon="4.62806">
        <ele>708.3</ele>
        <time>2021-02-08T09:52:51.000Z</time>
      </trkpt>
      <trkpt lat="45.76328" lon="4.62819">
        <ele>708.8</ele>
        <time>2021-02-08T09:52:56.000Z</time>
      </trkpt>
      <trkpt lat="45.76324" lon="4.6283">
        <ele>709.4</ele>
        <time>2021-02-08T09:53:01.000Z</time>
      </trkpt>
      <trkpt lat="45.76318" lon="4.62842">
        <ele>710</ele>
        <time>2021-02-08T09:53:08.000Z</time>
      </trkpt>
      <trkpt lat="45.76313" lon="4.62853">
        <ele>710.6</ele>
        <time>2021-02-08T09:53:12.000Z</time>
      </trkpt>
      <trkpt lat="45.76306" lon="4.62863">
        <ele>711.2</ele>
        <time>2021-02-08T09:53:16.000Z</time>
      </trkpt>
      <trkpt lat="45.76299" lon="4.62873">
        <ele>711.9</ele>
        <time>2021-02-08T09:53:20.000Z</time>
      </trkpt>
      <trkpt lat="45.76291" lon="4.6288">
        <ele>712.4</ele>
        <time>2021-02-08T09:53:24.000Z</time>
      </trkpt>
      <trkpt lat="45.76282" lon="4.6288">
        <ele>714.9</ele>
        <time>2021-02-08T09:53:28.000Z</time>
      </trkpt>
      <trkpt lat="45.76276" lon="4.62879">
        <ele>715.9</ele>
        <time>2021-02-08T09:53:34.000Z</time>
      </trkpt>
      <trkpt lat="45.76276" lon="4.62879">
        <ele>716</ele>
        <time>2021-02-08T09:53:35.000Z</time>
      </trkpt>
      <trkpt lat="45.76276" lon="4.62879">
        <ele>716</ele>
        <time>2021-02-08T09:53:36.000Z</time>
      </trkpt>
      <trkpt lat="45.76276" lon="4.62879">
        <ele>716</ele>
        <time>2021-02-08T09:54:13.000Z</time>
      </trkpt>
      <trkpt lat="45.76276" lon="4.62879">
        <ele>716</ele>
        <time>2021-02-08T09:54:14.000Z</time>
      </trkpt>
      <trkpt lat="45.76276" lon="4.62878">
        <ele>716.1</ele>
        <time>2021-02-08T09:54:15.000Z</time>
      </trkpt>
      <trkpt lat="45.76276" lon="4.62878">
        <ele>716.1</ele>
        <time>2021-02-08T09:54:16.000Z</time>
      </trkpt>
      <trkpt lat="45.76276" lon="4.62878">
        <ele>716.2</ele>
        <time>2021-02-08T09:54:18.000Z</time>
      </trkpt>
      <trkpt lat="45.76269" lon="4.62867">
        <ele>718.8</ele>
        <time>2021-02-08T09:54:26.000Z</time>
      </trkpt>
      <trkpt lat="45.76259" lon="4.62865">
        <ele>718.9</ele>
        <time>2021-02-08T09:54:32.000Z</time>
      </trkpt>
      <trkpt lat="45.76249" lon="4.62865">
        <ele>719.1</ele>
        <time>2021-02-08T09:54:38.000Z</time>
      </trkpt>
      <trkpt lat="45.76239" lon="4.62864">
        <ele>719.4</ele>
        <time>2021-02-08T09:54:43.000Z</time>
      </trkpt>
      <trkpt lat="45.7623" lon="4.62864">
        <ele>719.6</ele>
        <time>2021-02-08T09:54:48.000Z</time>
      </trkpt>
      <trkpt lat="45.7622" lon="4.62865">
        <ele>719.8</ele>
        <time>2021-02-08T09:54:53.000Z</time>
      </trkpt>
      <trkpt lat="45.7621" lon="4.62865">
        <ele>720</ele>
        <time>2021-02-08T09:54:59.000Z</time>
      </trkpt>
      <trkpt lat="45.762" lon="4.62861">
        <ele>720.2</ele>
        <time>2021-02-08T09:55:05.000Z</time>
      </trkpt>
      <trkpt lat="45.76189" lon="4.62856">
        <ele>720.3</ele>
        <time>2021-02-08T09:55:11.000Z</time>
      </trkpt>
      <trkpt lat="45.76182" lon="4.62847">
        <ele>720.3</ele>
        <time>2021-02-08T09:55:15.000Z</time>
      </trkpt>
      <trkpt lat="45.76177" lon="4.62835">
        <ele>720.5</ele>
        <time>2021-02-08T09:55:20.000Z</time>
      </trkpt>
      <trkpt lat="45.76171" lon="4.62824">
        <ele>720.8</ele>
        <time>2021-02-08T09:55:25.000Z</time>
      </trkpt>
      <trkpt lat="45.76166" lon="4.6281">
        <ele>721.3</ele>
        <time>2021-02-08T09:55:31.000Z</time>
      </trkpt>
      <trkpt lat="45.76161" lon="4.62797">
        <ele>721.7</ele>
        <time>2021-02-08T09:55:37.000Z</time>
      </trkpt>
      <trkpt lat="45.76155" lon="4.62785">
        <ele>722.2</ele>
        <time>2021-02-08T09:55:43.000Z</time>
      </trkpt>
      <trkpt lat="45.76148" lon="4.62773">
        <ele>722.8</ele>
        <time>2021-02-08T09:55:49.000Z</time>
      </trkpt>
      <trkpt lat="45.7614" lon="4.62763">
        <ele>723.3</ele>
        <time>2021-02-08T09:55:55.000Z</time>
      </trkpt>
      <trkpt lat="45.76131" lon="4.62755">
        <ele>723.9</ele>
        <time>2021-02-08T09:56:01.000Z</time>
      </trkpt>
      <trkpt lat="45.7612" lon="4.62752">
        <ele>724.5</ele>
        <time>2021-02-08T09:56:07.000Z</time>
      </trkpt>
      <trkpt lat="45.76111" lon="4.62753">
        <ele>725</ele>
        <time>2021-02-08T09:56:12.000Z</time>
      </trkpt>
      <trkpt lat="45.76102" lon="4.62758">
        <ele>725.5</ele>
        <time>2021-02-08T09:56:17.000Z</time>
      </trkpt>
      <trkpt lat="45.76095" lon="4.6277">
        <ele>726</ele>
        <time>2021-02-08T09:56:22.000Z</time>
      </trkpt>
      <trkpt lat="45.7609" lon="4.62785">
        <ele>726.6</ele>
        <time>2021-02-08T09:56:27.000Z</time>
      </trkpt>
      <trkpt lat="45.76085" lon="4.62798">
        <ele>727.2</ele>
        <time>2021-02-08T09:56:32.000Z</time>
      </trkpt>
      <trkpt lat="45.76079" lon="4.62811">
        <ele>727.8</ele>
        <time>2021-02-08T09:56:37.000Z</time>
      </trkpt>
      <trkpt lat="45.76072" lon="4.62821">
        <ele>728.4</ele>
        <time>2021-02-08T09:56:41.000Z</time>
      </trkpt>
      <trkpt lat="45.76064" lon="4.62831">
        <ele>729</ele>
        <time>2021-02-08T09:56:46.000Z</time>
      </trkpt>
      <trkpt lat="45.76056" lon="4.62842">
        <ele>729.6</ele>
        <time>2021-02-08T09:56:51.000Z</time>
      </trkpt>
      <trkpt lat="45.76049" lon="4.62852">
        <ele>730.3</ele>
        <time>2021-02-08T09:56:56.000Z</time>
      </trkpt>
      <trkpt lat="45.76042" lon="4.62841">
        <ele>731</ele>
        <time>2021-02-08T09:57:01.000Z</time>
      </trkpt>
      <trkpt lat="45.76049" lon="4.62833">
        <ele>731.6</ele>
        <time>2021-02-08T09:57:05.000Z</time>
      </trkpt>
      <trkpt lat="45.76057" lon="4.62824">
        <ele>732.2</ele>
        <time>2021-02-08T09:57:09.000Z</time>
      </trkpt>
      <trkpt lat="45.76064" lon="4.62812">
        <ele>732.7</ele>
        <time>2021-02-08T09:57:13.000Z</time>
      </trkpt>
      <trkpt lat="45.76067" lon="4.62798">
        <ele>733.3</ele>
        <time>2021-02-08T09:57:17.000Z</time>
      </trkpt>
      <trkpt lat="45.7607" lon="4.62783">
        <ele>733.8</ele>
        <time>2021-02-08T09:57:21.000Z</time>
      </trkpt>
      <trkpt lat="45.7607" lon="4.62769">
        <ele>734.4</ele>
        <time>2021-02-08T09:57:25.000Z</time>
      </trkpt>
      <trkpt lat="45.76069" lon="4.62754">
        <ele>735</ele>
        <time>2021-02-08T09:57:29.000Z</time>
      </trkpt>
      <trkpt lat="45.76066" lon="4.6274">
        <ele>735.5</ele>
        <time>2021-02-08T09:57:33.000Z</time>
      </trkpt>
      <trkpt lat="45.76065" lon="4.62726">
        <ele>736.1</ele>
        <time>2021-02-08T09:57:37.000Z</time>
      </trkpt>
      <trkpt lat="45.76065" lon="4.62712">
        <ele>736.6</ele>
        <time>2021-02-08T09:57:41.000Z</time>
      </trkpt>
      <trkpt lat="45.7607" lon="4.627">
        <ele>737.2</ele>
        <time>2021-02-08T09:57:45.000Z</time>
      </trkpt>
      <trkpt lat="45.76078" lon="4.62691">
        <ele>737.7</ele>
        <time>2021-02-08T09:57:49.000Z</time>
      </trkpt>
      <trkpt lat="45.76087" lon="4.62685">
        <ele>738.3</ele>
        <time>2021-02-08T09:57:53.000Z</time>
      </trkpt>
      <trkpt lat="45.76096" lon="4.62683">
        <ele>738.9</ele>
        <time>2021-02-08T09:57:57.000Z</time>
      </trkpt>
      <trkpt lat="45.76106" lon="4.6268">
        <ele>739.5</ele>
        <time>2021-02-08T09:58:01.000Z</time>
      </trkpt>
      <trkpt lat="45.76116" lon="4.62678">
        <ele>740.1</ele>
        <time>2021-02-08T09:58:05.000Z</time>
      </trkpt>
      <trkpt lat="45.76126" lon="4.62678">
        <ele>740.7</ele>
        <time>2021-02-08T09:58:09.000Z</time>
      </trkpt>
      <trkpt lat="45.76136" lon="4.62679">
        <ele>741.3</ele>
        <time>2021-02-08T09:58:13.000Z</time>
      </trkpt>
      <trkpt lat="45.76145" lon="4.62671">
        <ele>742</ele>
        <time>2021-02-08T09:58:18.000Z</time>
      </trkpt>
      <trkpt lat="45.76141" lon="4.6266">
        <ele>742.5</ele>
        <time>2021-02-08T09:58:23.000Z</time>
      </trkpt>
      <trkpt lat="45.76132" lon="4.62663">
        <ele>743.1</ele>
        <time>2021-02-08T09:58:27.000Z</time>
      </trkpt>
      <trkpt lat="45.76121" lon="4.62666">
        <ele>743.7</ele>
        <time>2021-02-08T09:58:32.000Z</time>
      </trkpt>
      <trkpt lat="45.76112" lon="4.62666">
        <ele>744.1</ele>
        <time>2021-02-08T09:58:36.000Z</time>
      </trkpt>
      <trkpt lat="45.76102" lon="4.62666">
        <ele>744.7</ele>
        <time>2021-02-08T09:58:41.000Z</time>
      </trkpt>
      <trkpt lat="45.76091" lon="4.62667">
        <ele>745.3</ele>
        <time>2021-02-08T09:58:46.000Z</time>
      </trkpt>
      <trkpt lat="45.76082" lon="4.62668">
        <ele>745.8</ele>
        <time>2021-02-08T09:58:50.000Z</time>
      </trkpt>
      <trkpt lat="45.76071" lon="4.62665">
        <ele>746.4</ele>
        <time>2021-02-08T09:58:55.000Z</time>
      </trkpt>
      <trkpt lat="45.76061" lon="4.6266">
        <ele>747.1</ele>
        <time>2021-02-08T09:58:59.000Z</time>
      </trkpt>
      <trkpt lat="45.76052" lon="4.62655">
        <ele>747.6</ele>
        <time>2021-02-08T09:59:03.000Z</time>
      </trkpt>
      <trkpt lat="45.76042" lon="4.62656">
        <ele>748.2</ele>
        <time>2021-02-08T09:59:07.000Z</time>
      </trkpt>
      <trkpt lat="45.76034" lon="4.62664">
        <ele>748.8</ele>
        <time>2021-02-08T09:59:11.000Z</time>
      </trkpt>
      <trkpt lat="45.76027" lon="4.62674">
        <ele>749.3</ele>
        <time>2021-02-08T09:59:15.000Z</time>
      </trkpt>
      <trkpt lat="45.76021" lon="4.62686">
        <ele>749.9</ele>
        <time>2021-02-08T09:59:19.000Z</time>
      </trkpt>
      <trkpt lat="45.76016" lon="4.62698">
        <ele>750.4</ele>
        <time>2021-02-08T09:59:23.000Z</time>
      </trkpt>
      <trkpt lat="45.76011" lon="4.62711">
        <ele>750.9</ele>
        <time>2021-02-08T09:59:27.000Z</time>
      </trkpt>
      <trkpt lat="45.76008" lon="4.62724">
        <ele>751.4</ele>
        <time>2021-02-08T09:59:31.000Z</time>
      </trkpt>
      <trkpt lat="45.76003" lon="4.62738">
        <ele>751.8</ele>
        <time>2021-02-08T09:59:35.000Z</time>
      </trkpt>
      <trkpt lat="45.76" lon="4.62752">
        <ele>752.3</ele>
        <time>2021-02-08T09:59:39.000Z</time>
      </trkpt>
      <trkpt lat="45.75996" lon="4.62764">
        <ele>752.7</ele>
        <time>2021-02-08T09:59:43.000Z</time>
      </trkpt>
      <trkpt lat="45.75987" lon="4.62772">
        <ele>753.2</ele>
        <time>2021-02-08T09:59:47.000Z</time>
      </trkpt>
      <trkpt lat="45.7598" lon="4.62781">
        <ele>753.5</ele>
        <time>2021-02-08T09:59:51.000Z</time>
      </trkpt>
      <trkpt lat="45.75973" lon="4.62792">
        <ele>753.9</ele>
        <time>2021-02-08T09:59:55.000Z</time>
      </trkpt>
      <trkpt lat="45.75966" lon="4.62802">
        <ele>754.3</ele>
        <time>2021-02-08T09:59:59.000Z</time>
      </trkpt>
      <trkpt lat="45.75956" lon="4.6281">
        <ele>754.8</ele>
        <time>2021-02-08T10:00:03.000Z</time>
      </trkpt>
      <trkpt lat="45.75944" lon="4.62815">
        <ele>755.2</ele>
        <time>2021-02-08T10:00:07.000Z</time>
      </trkpt>
      <trkpt lat="45.75936" lon="4.62818">
        <ele>755.4</ele>
        <time>2021-02-08T10:00:10.000Z</time>
      </trkpt>
      <trkpt lat="45.75927" lon="4.62821">
        <ele>755.6</ele>
        <time>2021-02-08T10:00:13.000Z</time>
      </trkpt>
      <trkpt lat="45.75917" lon="4.62823">
        <ele>755.8</ele>
        <time>2021-02-08T10:00:16.000Z</time>
      </trkpt>
      <trkpt lat="45.75907" lon="4.62825">
        <ele>755.9</ele>
        <time>2021-02-08T10:00:19.000Z</time>
      </trkpt>
      <trkpt lat="45.75896" lon="4.62826">
        <ele>755.9</ele>
        <time>2021-02-08T10:00:22.000Z</time>
      </trkpt>
      <trkpt lat="45.75885" lon="4.62824">
        <ele>756</ele>
        <time>2021-02-08T10:00:25.000Z</time>
      </trkpt>
      <trkpt lat="45.75875" lon="4.62823">
        <ele>756.1</ele>
        <time>2021-02-08T10:00:28.000Z</time>
      </trkpt>
      <trkpt lat="45.75864" lon="4.62821">
        <ele>756.2</ele>
        <time>2021-02-08T10:00:31.000Z</time>
      </trkpt>
      <trkpt lat="45.75853" lon="4.62819">
        <ele>756.3</ele>
        <time>2021-02-08T10:00:34.000Z</time>
      </trkpt>
      <trkpt lat="45.75843" lon="4.62817">
        <ele>756.4</ele>
        <time>2021-02-08T10:00:37.000Z</time>
      </trkpt>
      <trkpt lat="45.75832" lon="4.62816">
        <ele>756.4</ele>
        <time>2021-02-08T10:00:40.000Z</time>
      </trkpt>
      <trkpt lat="45.75821" lon="4.62814">
        <ele>756.4</ele>
        <time>2021-02-08T10:00:43.000Z</time>
      </trkpt>
      <trkpt lat="45.7581" lon="4.6281">
        <ele>756.4</ele>
        <time>2021-02-08T10:00:46.000Z</time>
      </trkpt>
      <trkpt lat="45.75799" lon="4.62808">
        <ele>756.5</ele>
        <time>2021-02-08T10:00:49.000Z</time>
      </trkpt>
      <trkpt lat="45.75789" lon="4.62804">
        <ele>756.5</ele>
        <time>2021-02-08T10:00:52.000Z</time>
      </trkpt>
      <trkpt lat="45.75779" lon="4.62798">
        <ele>756.6</ele>
        <time>2021-02-08T10:00:55.000Z</time>
      </trkpt>
      <trkpt lat="45.7577" lon="4.6279">
        <ele>756.7</ele>
        <time>2021-02-08T10:00:58.000Z</time>
      </trkpt>
      <trkpt lat="45.75761" lon="4.62782">
        <ele>756.9</ele>
        <time>2021-02-08T10:01:01.000Z</time>
      </trkpt>
      <trkpt lat="45.75753" lon="4.62773">
        <ele>757</ele>
        <time>2021-02-08T10:01:04.000Z</time>
      </trkpt>
      <trkpt lat="45.75746" lon="4.62763">
        <ele>757.3</ele>
        <time>2021-02-08T10:01:07.000Z</time>
      </trkpt>
      <trkpt lat="45.75738" lon="4.62751">
        <ele>757.7</ele>
        <time>2021-02-08T10:01:10.000Z</time>
      </trkpt>
      <trkpt lat="45.75733" lon="4.62738">
        <ele>758.2</ele>
        <time>2021-02-08T10:01:13.000Z</time>
      </trkpt>
      <trkpt lat="45.75729" lon="4.62724">
        <ele>758.7</ele>
        <time>2021-02-08T10:01:17.000Z</time>
      </trkpt>
      <trkpt lat="45.75725" lon="4.62708">
        <ele>759.2</ele>
        <time>2021-02-08T10:01:21.000Z</time>
      </trkpt>
      <trkpt lat="45.75723" lon="4.62692">
        <ele>759.7</ele>
        <time>2021-02-08T10:01:25.000Z</time>
      </trkpt>
      <trkpt lat="45.7572" lon="4.62677">
        <ele>760.2</ele>
        <time>2021-02-08T10:01:29.000Z</time>
      </trkpt>
      <trkpt lat="45.75718" lon="4.62662">
        <ele>760.7</ele>
        <time>2021-02-08T10:01:33.000Z</time>
      </trkpt>
      <trkpt lat="45.75716" lon="4.62646">
        <ele>761.1</ele>
        <time>2021-02-08T10:01:37.000Z</time>
      </trkpt>
      <trkpt lat="45.75714" lon="4.62629">
        <ele>761.4</ele>
        <time>2021-02-08T10:01:41.000Z</time>
      </trkpt>
      <trkpt lat="45.75712" lon="4.62616">
        <ele>761.6</ele>
        <time>2021-02-08T10:01:44.000Z</time>
      </trkpt>
      <trkpt lat="45.75711" lon="4.62602">
        <ele>761.8</ele>
        <time>2021-02-08T10:01:47.000Z</time>
      </trkpt>
      <trkpt lat="45.75709" lon="4.62588">
        <ele>762.1</ele>
        <time>2021-02-08T10:01:50.000Z</time>
      </trkpt>
      <trkpt lat="45.75709" lon="4.62573">
        <ele>762.3</ele>
        <time>2021-02-08T10:01:53.000Z</time>
      </trkpt>
      <trkpt lat="45.75708" lon="4.62559">
        <ele>762.5</ele>
        <time>2021-02-08T10:01:56.000Z</time>
      </trkpt>
      <trkpt lat="45.75708" lon="4.62543">
        <ele>762.6</ele>
        <time>2021-02-08T10:01:59.000Z</time>
      </trkpt>
      <trkpt lat="45.75708" lon="4.62528">
        <ele>762.7</ele>
        <time>2021-02-08T10:02:02.000Z</time>
      </trkpt>
      <trkpt lat="45.75707" lon="4.62512">
        <ele>762.8</ele>
        <time>2021-02-08T10:02:05.000Z</time>
      </trkpt>
      <trkpt lat="45.75706" lon="4.62497">
        <ele>762.9</ele>
        <time>2021-02-08T10:02:08.000Z</time>
      </trkpt>
      <trkpt lat="45.75705" lon="4.62481">
        <ele>762.9</ele>
        <time>2021-02-08T10:02:11.000Z</time>
      </trkpt>
      <trkpt lat="45.75704" lon="4.62465">
        <ele>762.9</ele>
        <time>2021-02-08T10:02:14.000Z</time>
      </trkpt>
      <trkpt lat="45.75703" lon="4.62448">
        <ele>763</ele>
        <time>2021-02-08T10:02:17.000Z</time>
      </trkpt>
      <trkpt lat="45.75702" lon="4.6243">
        <ele>763</ele>
        <time>2021-02-08T10:02:20.000Z</time>
      </trkpt>
      <trkpt lat="45.75702" lon="4.62413">
        <ele>763.1</ele>
        <time>2021-02-08T10:02:23.000Z</time>
      </trkpt>
      <trkpt lat="45.757" lon="4.62395">
        <ele>763</ele>
        <time>2021-02-08T10:02:26.000Z</time>
      </trkpt>
      <trkpt lat="45.757" lon="4.62376">
        <ele>762.9</ele>
        <time>2021-02-08T10:02:29.000Z</time>
      </trkpt>
      <trkpt lat="45.75699" lon="4.62357">
        <ele>762.8</ele>
        <time>2021-02-08T10:02:32.000Z</time>
      </trkpt>
      <trkpt lat="45.75699" lon="4.62338">
        <ele>762.8</ele>
        <time>2021-02-08T10:02:35.000Z</time>
      </trkpt>
      <trkpt lat="45.75698" lon="4.6232">
        <ele>762.8</ele>
        <time>2021-02-08T10:02:38.000Z</time>
      </trkpt>
      <trkpt lat="45.75695" lon="4.62304">
        <ele>762.9</ele>
        <time>2021-02-08T10:02:41.000Z</time>
      </trkpt>
      <trkpt lat="45.75693" lon="4.62287">
        <ele>763</ele>
        <time>2021-02-08T10:02:44.000Z</time>
      </trkpt>
      <trkpt lat="45.7569" lon="4.62271">
        <ele>763.2</ele>
        <time>2021-02-08T10:02:47.000Z</time>
      </trkpt>
      <trkpt lat="45.75688" lon="4.62254">
        <ele>763.4</ele>
        <time>2021-02-08T10:02:50.000Z</time>
      </trkpt>
      <trkpt lat="45.75687" lon="4.62238">
        <ele>763.6</ele>
        <time>2021-02-08T10:02:53.000Z</time>
      </trkpt>
      <trkpt lat="45.75683" lon="4.62222">
        <ele>763.8</ele>
        <time>2021-02-08T10:02:56.000Z</time>
      </trkpt>
      <trkpt lat="45.7568" lon="4.62206">
        <ele>764.1</ele>
        <time>2021-02-08T10:02:59.000Z</time>
      </trkpt>
      <trkpt lat="45.7568" lon="4.6219">
        <ele>764.4</ele>
        <time>2021-02-08T10:03:02.000Z</time>
      </trkpt>
      <trkpt lat="45.75681" lon="4.62176">
        <ele>764.6</ele>
        <time>2021-02-08T10:03:04.000Z</time>
      </trkpt>
      <trkpt lat="45.75683" lon="4.62163">
        <ele>764.7</ele>
        <time>2021-02-08T10:03:06.000Z</time>
      </trkpt>
      <trkpt lat="45.75682" lon="4.62147">
        <ele>764.6</ele>
        <time>2021-02-08T10:03:09.000Z</time>
      </trkpt>
      <trkpt lat="45.75672" lon="4.62134">
        <ele>763.6</ele>
        <time>2021-02-08T10:03:12.000Z</time>
      </trkpt>
      <trkpt lat="45.75659" lon="4.62128">
        <ele>762.2</ele>
        <time>2021-02-08T10:03:15.000Z</time>
      </trkpt>
      <trkpt lat="45.7565" lon="4.62119">
        <ele>760.7</ele>
        <time>2021-02-08T10:03:18.000Z</time>
      </trkpt>
      <trkpt lat="45.75646" lon="4.62106">
        <ele>759.6</ele>
        <time>2021-02-08T10:03:20.000Z</time>
      </trkpt>
      <trkpt lat="45.75641" lon="4.62094">
        <ele>758.5</ele>
        <time>2021-02-08T10:03:22.000Z</time>
      </trkpt>
      <trkpt lat="45.75644" lon="4.62082">
        <ele>757.7</ele>
        <time>2021-02-08T10:03:26.000Z</time>
      </trkpt>
      <trkpt lat="45.75637" lon="4.62069">
        <ele>756.8</ele>
        <time>2021-02-08T10:03:30.000Z</time>
      </trkpt>
      <trkpt lat="45.75632" lon="4.62055">
        <ele>755.8</ele>
        <time>2021-02-08T10:03:32.000Z</time>
      </trkpt>
      <trkpt lat="45.75627" lon="4.6204">
        <ele>755</ele>
        <time>2021-02-08T10:03:34.000Z</time>
      </trkpt>
      <trkpt lat="45.75621" lon="4.62026">
        <ele>754.5</ele>
        <time>2021-02-08T10:03:36.000Z</time>
      </trkpt>
      <trkpt lat="45.75618" lon="4.62008">
        <ele>754.2</ele>
        <time>2021-02-08T10:03:38.000Z</time>
      </trkpt>
      <trkpt lat="45.75619" lon="4.61993">
        <ele>754.2</ele>
        <time>2021-02-08T10:03:40.000Z</time>
      </trkpt>
      <trkpt lat="45.75619" lon="4.6198">
        <ele>754.3</ele>
        <time>2021-02-08T10:03:42.000Z</time>
      </trkpt>
      <trkpt lat="45.75618" lon="4.61963">
        <ele>754.5</ele>
        <time>2021-02-08T10:03:45.000Z</time>
      </trkpt>
      <trkpt lat="45.75618" lon="4.61948">
        <ele>754.7</ele>
        <time>2021-02-08T10:03:48.000Z</time>
      </trkpt>
      <trkpt lat="45.75617" lon="4.61935">
        <ele>754.9</ele>
        <time>2021-02-08T10:03:51.000Z</time>
      </trkpt>
      <trkpt lat="45.75616" lon="4.61919">
        <ele>755.2</ele>
        <time>2021-02-08T10:03:55.000Z</time>
      </trkpt>
      <trkpt lat="45.75616" lon="4.61902">
        <ele>755.4</ele>
        <time>2021-02-08T10:03:59.000Z</time>
      </trkpt>
      <trkpt lat="45.75615" lon="4.61888">
        <ele>755.6</ele>
        <time>2021-02-08T10:04:02.000Z</time>
      </trkpt>
      <trkpt lat="45.75614" lon="4.6187">
        <ele>755.9</ele>
        <time>2021-02-08T10:04:06.000Z</time>
      </trkpt>
      <trkpt lat="45.75613" lon="4.61855">
        <ele>756.2</ele>
        <time>2021-02-08T10:04:09.000Z</time>
      </trkpt>
      <trkpt lat="45.75612" lon="4.61841">
        <ele>756.4</ele>
        <time>2021-02-08T10:04:12.000Z</time>
      </trkpt>
      <trkpt lat="45.75611" lon="4.61825">
        <ele>756.7</ele>
        <time>2021-02-08T10:04:15.000Z</time>
      </trkpt>
      <trkpt lat="45.75614" lon="4.6181">
        <ele>756.9</ele>
        <time>2021-02-08T10:04:19.000Z</time>
      </trkpt>
      <trkpt lat="45.75613" lon="4.61795">
        <ele>756.9</ele>
        <time>2021-02-08T10:04:24.000Z</time>
      </trkpt>
      <trkpt lat="45.75619" lon="4.61783">
        <ele>756.9</ele>
        <time>2021-02-08T10:04:28.000Z</time>
      </trkpt>
      <trkpt lat="45.75609" lon="4.61789">
        <ele>757.1</ele>
        <time>2021-02-08T10:04:34.000Z</time>
      </trkpt>
      <trkpt lat="45.75598" lon="4.61793">
        <ele>757.4</ele>
        <time>2021-02-08T10:04:38.000Z</time>
      </trkpt>
      <trkpt lat="45.7559" lon="4.61789">
        <ele>757.7</ele>
        <time>2021-02-08T10:04:42.000Z</time>
      </trkpt>
      <trkpt lat="45.75582" lon="4.61779">
        <ele>758.3</ele>
        <time>2021-02-08T10:04:47.000Z</time>
      </trkpt>
      <trkpt lat="45.75576" lon="4.61768">
        <ele>758.8</ele>
        <time>2021-02-08T10:04:52.000Z</time>
      </trkpt>
      <trkpt lat="45.75569" lon="4.61755">
        <ele>759.5</ele>
        <time>2021-02-08T10:04:57.000Z</time>
      </trkpt>
      <trkpt lat="45.75561" lon="4.61747">
        <ele>760.3</ele>
        <time>2021-02-08T10:05:01.000Z</time>
      </trkpt>
      <trkpt lat="45.75554" lon="4.61738">
        <ele>761.2</ele>
        <time>2021-02-08T10:05:06.000Z</time>
      </trkpt>
      <trkpt lat="45.75548" lon="4.61727">
        <ele>762.2</ele>
        <time>2021-02-08T10:05:12.000Z</time>
      </trkpt>
      <trkpt lat="45.75541" lon="4.61717">
        <ele>763.1</ele>
        <time>2021-02-08T10:05:17.000Z</time>
      </trkpt>
      <trkpt lat="45.75534" lon="4.61706">
        <ele>764.1</ele>
        <time>2021-02-08T10:05:23.000Z</time>
      </trkpt>
      <trkpt lat="45.75526" lon="4.61697">
        <ele>765</ele>
        <time>2021-02-08T10:05:28.000Z</time>
      </trkpt>
      <trkpt lat="45.75519" lon="4.61687">
        <ele>766</ele>
        <time>2021-02-08T10:05:33.000Z</time>
      </trkpt>
      <trkpt lat="45.75511" lon="4.61678">
        <ele>766.9</ele>
        <time>2021-02-08T10:05:38.000Z</time>
      </trkpt>
      <trkpt lat="45.75504" lon="4.61671">
        <ele>767.7</ele>
        <time>2021-02-08T10:05:43.000Z</time>
      </trkpt>
      <trkpt lat="45.75495" lon="4.61666">
        <ele>768.5</ele>
        <time>2021-02-08T10:05:48.000Z</time>
      </trkpt>
      <trkpt lat="45.75487" lon="4.61658">
        <ele>769.5</ele>
        <time>2021-02-08T10:05:54.000Z</time>
      </trkpt>
      <trkpt lat="45.75478" lon="4.61654">
        <ele>770.5</ele>
        <time>2021-02-08T10:06:01.000Z</time>
      </trkpt>
      <trkpt lat="45.75469" lon="4.61651">
        <ele>771.7</ele>
        <time>2021-02-08T10:06:08.000Z</time>
      </trkpt>
      <trkpt lat="45.75461" lon="4.61648">
        <ele>772.9</ele>
        <time>2021-02-08T10:06:15.000Z</time>
      </trkpt>
      <trkpt lat="45.75451" lon="4.61642">
        <ele>774.1</ele>
        <time>2021-02-08T10:06:23.000Z</time>
      </trkpt>
      <trkpt lat="45.75442" lon="4.61638">
        <ele>775.2</ele>
        <time>2021-02-08T10:06:30.000Z</time>
      </trkpt>
      <trkpt lat="45.75433" lon="4.61634">
        <ele>776</ele>
        <time>2021-02-08T10:06:36.000Z</time>
      </trkpt>
      <trkpt lat="45.75423" lon="4.61631">
        <ele>776.7</ele>
        <time>2021-02-08T10:06:42.000Z</time>
      </trkpt>
      <trkpt lat="45.75413" lon="4.61623">
        <ele>777.3</ele>
        <time>2021-02-08T10:06:48.000Z</time>
      </trkpt>
      <trkpt lat="45.75404" lon="4.6162">
        <ele>777.9</ele>
        <time>2021-02-08T10:06:53.000Z</time>
      </trkpt>
      <trkpt lat="45.75396" lon="4.61614">
        <ele>778.5</ele>
        <time>2021-02-08T10:06:58.000Z</time>
      </trkpt>
      <trkpt lat="45.75386" lon="4.61607">
        <ele>779.2</ele>
        <time>2021-02-08T10:07:03.000Z</time>
      </trkpt>
      <trkpt lat="45.75377" lon="4.616">
        <ele>779.8</ele>
        <time>2021-02-08T10:07:08.000Z</time>
      </trkpt>
      <trkpt lat="45.75367" lon="4.61594">
        <ele>780.4</ele>
        <time>2021-02-08T10:07:13.000Z</time>
      </trkpt>
      <trkpt lat="45.75358" lon="4.6159">
        <ele>780.8</ele>
        <time>2021-02-08T10:07:17.000Z</time>
      </trkpt>
      <trkpt lat="45.75347" lon="4.61586">
        <ele>781.1</ele>
        <time>2021-02-08T10:07:21.000Z</time>
      </trkpt>
      <trkpt lat="45.75337" lon="4.61582">
        <ele>781.3</ele>
        <time>2021-02-08T10:07:25.000Z</time>
      </trkpt>
      <trkpt lat="45.75326" lon="4.61582">
        <ele>781.3</ele>
        <time>2021-02-08T10:07:29.000Z</time>
      </trkpt>
      <trkpt lat="45.75315" lon="4.6158">
        <ele>781.3</ele>
        <time>2021-02-08T10:07:33.000Z</time>
      </trkpt>
      <trkpt lat="45.75306" lon="4.61578">
        <ele>781.2</ele>
        <time>2021-02-08T10:07:36.000Z</time>
      </trkpt>
      <trkpt lat="45.75297" lon="4.61571">
        <ele>780.8</ele>
        <time>2021-02-08T10:07:39.000Z</time>
      </trkpt>
      <trkpt lat="45.75289" lon="4.61558">
        <ele>780.2</ele>
        <time>2021-02-08T10:07:42.000Z</time>
      </trkpt>
      <trkpt lat="45.75285" lon="4.61545">
        <ele>779.5</ele>
        <time>2021-02-08T10:07:44.000Z</time>
      </trkpt>
      <trkpt lat="45.75283" lon="4.61531">
        <ele>778.7</ele>
        <time>2021-02-08T10:07:46.000Z</time>
      </trkpt>
      <trkpt lat="45.75281" lon="4.61516">
        <ele>777.9</ele>
        <time>2021-02-08T10:07:48.000Z</time>
      </trkpt>
      <trkpt lat="45.75279" lon="4.61497">
        <ele>776.8</ele>
        <time>2021-02-08T10:07:50.000Z</time>
      </trkpt>
      <trkpt lat="45.75276" lon="4.61474">
        <ele>775.5</ele>
        <time>2021-02-08T10:07:52.000Z</time>
      </trkpt>
      <trkpt lat="45.75273" lon="4.61452">
        <ele>774.4</ele>
        <time>2021-02-08T10:07:54.000Z</time>
      </trkpt>
      <trkpt lat="45.75272" lon="4.61431">
        <ele>773.5</ele>
        <time>2021-02-08T10:07:56.000Z</time>
      </trkpt>
      <trkpt lat="45.75273" lon="4.61411">
        <ele>772.8</ele>
        <time>2021-02-08T10:07:58.000Z</time>
      </trkpt>
      <trkpt lat="45.75275" lon="4.61389">
        <ele>772</ele>
        <time>2021-02-08T10:08:00.000Z</time>
      </trkpt>
      <trkpt lat="45.75274" lon="4.61369">
        <ele>771</ele>
        <time>2021-02-08T10:08:02.000Z</time>
      </trkpt>
      <trkpt lat="45.7527" lon="4.61347">
        <ele>769.6</ele>
        <time>2021-02-08T10:08:04.000Z</time>
      </trkpt>
      <trkpt lat="45.75266" lon="4.61326">
        <ele>768.3</ele>
        <time>2021-02-08T10:08:06.000Z</time>
      </trkpt>
      <trkpt lat="45.75262" lon="4.61305">
        <ele>767.2</ele>
        <time>2021-02-08T10:08:08.000Z</time>
      </trkpt>
      <trkpt lat="45.75257" lon="4.61284">
        <ele>766</ele>
        <time>2021-02-08T10:08:10.000Z</time>
      </trkpt>
      <trkpt lat="45.75252" lon="4.61263">
        <ele>764.7</ele>
        <time>2021-02-08T10:08:12.000Z</time>
      </trkpt>
      <trkpt lat="45.75248" lon="4.61241">
        <ele>763.2</ele>
        <time>2021-02-08T10:08:14.000Z</time>
      </trkpt>
      <trkpt lat="45.75242" lon="4.6122">
        <ele>762</ele>
        <time>2021-02-08T10:08:16.000Z</time>
      </trkpt>
      <trkpt lat="45.75237" lon="4.61199">
        <ele>760.9</ele>
        <time>2021-02-08T10:08:18.000Z</time>
      </trkpt>
      <trkpt lat="45.7523" lon="4.61183">
        <ele>759.9</ele>
        <time>2021-02-08T10:08:20.000Z</time>
      </trkpt>
      <trkpt lat="45.75219" lon="4.61171">
        <ele>758.8</ele>
        <time>2021-02-08T10:08:22.000Z</time>
      </trkpt>
      <trkpt lat="45.75207" lon="4.6116">
        <ele>758</ele>
        <time>2021-02-08T10:08:24.000Z</time>
      </trkpt>
      <trkpt lat="45.75196" lon="4.61148">
        <ele>757.3</ele>
        <time>2021-02-08T10:08:26.000Z</time>
      </trkpt>
      <trkpt lat="45.75186" lon="4.61134">
        <ele>756.8</ele>
        <time>2021-02-08T10:08:28.000Z</time>
      </trkpt>
      <trkpt lat="45.75178" lon="4.61121">
        <ele>756.5</ele>
        <time>2021-02-08T10:08:30.000Z</time>
      </trkpt>
      <trkpt lat="45.75169" lon="4.61108">
        <ele>756.2</ele>
        <time>2021-02-08T10:08:32.000Z</time>
      </trkpt>
      <trkpt lat="45.75162" lon="4.61096">
        <ele>756</ele>
        <time>2021-02-08T10:08:34.000Z</time>
      </trkpt>
      <trkpt lat="45.75155" lon="4.61085">
        <ele>755.8</ele>
        <time>2021-02-08T10:08:36.000Z</time>
      </trkpt>
      <trkpt lat="45.75149" lon="4.61073">
        <ele>755.6</ele>
        <time>2021-02-08T10:08:38.000Z</time>
      </trkpt>
      <trkpt lat="45.75145" lon="4.61061">
        <ele>755.3</ele>
        <time>2021-02-08T10:08:40.000Z</time>
      </trkpt>
      <trkpt lat="45.75142" lon="4.61044">
        <ele>754.5</ele>
        <time>2021-02-08T10:08:43.000Z</time>
      </trkpt>
      <trkpt lat="45.75134" lon="4.61032">
        <ele>753.4</ele>
        <time>2021-02-08T10:08:45.000Z</time>
      </trkpt>
      <trkpt lat="45.75122" lon="4.61025">
        <ele>752.3</ele>
        <time>2021-02-08T10:08:47.000Z</time>
      </trkpt>
      <trkpt lat="45.75109" lon="4.61023">
        <ele>751.7</ele>
        <time>2021-02-08T10:08:49.000Z</time>
      </trkpt>
      <trkpt lat="45.75098" lon="4.61022">
        <ele>751.5</ele>
        <time>2021-02-08T10:08:51.000Z</time>
      </trkpt>
      <trkpt lat="45.75088" lon="4.61023">
        <ele>751.4</ele>
        <time>2021-02-08T10:08:53.000Z</time>
      </trkpt>
      <trkpt lat="45.75079" lon="4.61024">
        <ele>751.2</ele>
        <time>2021-02-08T10:08:55.000Z</time>
      </trkpt>
      <trkpt lat="45.7507" lon="4.61025">
        <ele>751.1</ele>
        <time>2021-02-08T10:08:57.000Z</time>
      </trkpt>
      <trkpt lat="45.75061" lon="4.61027">
        <ele>751</ele>
        <time>2021-02-08T10:08:59.000Z</time>
      </trkpt>
      <trkpt lat="45.75048" lon="4.61031">
        <ele>751.2</ele>
        <time>2021-02-08T10:09:02.000Z</time>
      </trkpt>
      <trkpt lat="45.75036" lon="4.61033">
        <ele>751.5</ele>
        <time>2021-02-08T10:09:05.000Z</time>
      </trkpt>
      <trkpt lat="45.75027" lon="4.61034">
        <ele>751.9</ele>
        <time>2021-02-08T10:09:08.000Z</time>
      </trkpt>
      <trkpt lat="45.75018" lon="4.61035">
        <ele>752.2</ele>
        <time>2021-02-08T10:09:11.000Z</time>
      </trkpt>
      <trkpt lat="45.75008" lon="4.61039">
        <ele>752.5</ele>
        <time>2021-02-08T10:09:15.000Z</time>
      </trkpt>
      <trkpt lat="45.74997" lon="4.61043">
        <ele>752.3</ele>
        <time>2021-02-08T10:09:19.000Z</time>
      </trkpt>
      <trkpt lat="45.74988" lon="4.61048">
        <ele>751.8</ele>
        <time>2021-02-08T10:09:22.000Z</time>
      </trkpt>
      <trkpt lat="45.74979" lon="4.61051">
        <ele>751.2</ele>
        <time>2021-02-08T10:09:25.000Z</time>
      </trkpt>
      <trkpt lat="45.74969" lon="4.61051">
        <ele>750.3</ele>
        <time>2021-02-08T10:09:29.000Z</time>
      </trkpt>
      <trkpt lat="45.74962" lon="4.61061">
        <ele>749.4</ele>
        <time>2021-02-08T10:09:33.000Z</time>
      </trkpt>
      <trkpt lat="45.74953" lon="4.61068">
        <ele>748.6</ele>
        <time>2021-02-08T10:09:35.000Z</time>
      </trkpt>
      <trkpt lat="45.74945" lon="4.61072">
        <ele>747.8</ele>
        <time>2021-02-08T10:09:37.000Z</time>
      </trkpt>
      <trkpt lat="45.74935" lon="4.61075">
        <ele>747.2</ele>
        <time>2021-02-08T10:09:39.000Z</time>
      </trkpt>
      <trkpt lat="45.74925" lon="4.61081">
        <ele>746.6</ele>
        <time>2021-02-08T10:09:41.000Z</time>
      </trkpt>
      <trkpt lat="45.74916" lon="4.61088">
        <ele>746.3</ele>
        <time>2021-02-08T10:09:43.000Z</time>
      </trkpt>
      <trkpt lat="45.74909" lon="4.61097">
        <ele>746.1</ele>
        <time>2021-02-08T10:09:45.000Z</time>
      </trkpt>
      <trkpt lat="45.74899" lon="4.61105">
        <ele>745.9</ele>
        <time>2021-02-08T10:09:48.000Z</time>
      </trkpt>
      <trkpt lat="45.7489" lon="4.61107">
        <ele>745.5</ele>
        <time>2021-02-08T10:09:51.000Z</time>
      </trkpt>
      <trkpt lat="45.74879" lon="4.61107">
        <ele>744.8</ele>
        <time>2021-02-08T10:09:55.000Z</time>
      </trkpt>
      <trkpt lat="45.74869" lon="4.611">
        <ele>743.5</ele>
        <time>2021-02-08T10:10:00.000Z</time>
      </trkpt>
      <trkpt lat="45.74857" lon="4.61102">
        <ele>741.9</ele>
        <time>2021-02-08T10:10:04.000Z</time>
      </trkpt>
      <trkpt lat="45.74846" lon="4.61103">
        <ele>740.1</ele>
        <time>2021-02-08T10:10:07.000Z</time>
      </trkpt>
      <trkpt lat="45.74833" lon="4.61108">
        <ele>737.8</ele>
        <time>2021-02-08T10:10:10.000Z</time>
      </trkpt>
      <trkpt lat="45.74822" lon="4.61117">
        <ele>735.5</ele>
        <time>2021-02-08T10:10:13.000Z</time>
      </trkpt>
      <trkpt lat="45.74814" lon="4.61126">
        <ele>733.7</ele>
        <time>2021-02-08T10:10:16.000Z</time>
      </trkpt>
      <trkpt lat="45.74807" lon="4.61136">
        <ele>732.2</ele>
        <time>2021-02-08T10:10:19.000Z</time>
      </trkpt>
      <trkpt lat="45.748" lon="4.61145">
        <ele>730.8</ele>
        <time>2021-02-08T10:10:22.000Z</time>
      </trkpt>
      <trkpt lat="45.74789" lon="4.6115">
        <ele>729.6</ele>
        <time>2021-02-08T10:10:25.000Z</time>
      </trkpt>
      <trkpt lat="45.74778" lon="4.61149">
        <ele>730.7</ele>
        <time>2021-02-08T10:10:29.000Z</time>
      </trkpt>
      <trkpt lat="45.74768" lon="4.61143">
        <ele>730.8</ele>
        <time>2021-02-08T10:10:33.000Z</time>
      </trkpt>
      <trkpt lat="45.7476" lon="4.61134">
        <ele>730.4</ele>
        <time>2021-02-08T10:10:36.000Z</time>
      </trkpt>
      <trkpt lat="45.74751" lon="4.61123">
        <ele>729.5</ele>
        <time>2021-02-08T10:10:39.000Z</time>
      </trkpt>
      <trkpt lat="45.74744" lon="4.61114">
        <ele>728.8</ele>
        <time>2021-02-08T10:10:41.000Z</time>
      </trkpt>
      <trkpt lat="45.74736" lon="4.61103">
        <ele>728</ele>
        <time>2021-02-08T10:10:43.000Z</time>
      </trkpt>
      <trkpt lat="45.74726" lon="4.61091">
        <ele>726.9</ele>
        <time>2021-02-08T10:10:45.000Z</time>
      </trkpt>
      <trkpt lat="45.74715" lon="4.61079">
        <ele>725.7</ele>
        <time>2021-02-08T10:10:47.000Z</time>
      </trkpt>
      <trkpt lat="45.74702" lon="4.61065">
        <ele>724.4</ele>
        <time>2021-02-08T10:10:49.000Z</time>
      </trkpt>
      <trkpt lat="45.74689" lon="4.61051">
        <ele>723.1</ele>
        <time>2021-02-08T10:10:51.000Z</time>
      </trkpt>
      <trkpt lat="45.74676" lon="4.61036">
        <ele>722</ele>
        <time>2021-02-08T10:10:53.000Z</time>
      </trkpt>
      <trkpt lat="45.74664" lon="4.61019">
        <ele>720.8</ele>
        <time>2021-02-08T10:10:55.000Z</time>
      </trkpt>
      <trkpt lat="45.74654" lon="4.61">
        <ele>719.7</ele>
        <time>2021-02-08T10:10:57.000Z</time>
      </trkpt>
      <trkpt lat="45.74643" lon="4.60982">
        <ele>718.6</ele>
        <time>2021-02-08T10:10:59.000Z</time>
      </trkpt>
      <trkpt lat="45.74633" lon="4.60964">
        <ele>717.5</ele>
        <time>2021-02-08T10:11:01.000Z</time>
      </trkpt>
      <trkpt lat="45.74624" lon="4.60945">
        <ele>716.3</ele>
        <time>2021-02-08T10:11:03.000Z</time>
      </trkpt>
      <trkpt lat="45.74615" lon="4.60926">
        <ele>715.2</ele>
        <time>2021-02-08T10:11:05.000Z</time>
      </trkpt>
      <trkpt lat="45.74604" lon="4.60908">
        <ele>714</ele>
        <time>2021-02-08T10:11:07.000Z</time>
      </trkpt>
      <trkpt lat="45.74594" lon="4.60894">
        <ele>713.5</ele>
        <time>2021-02-08T10:11:09.000Z</time>
      </trkpt>
      <trkpt lat="45.74588" lon="4.60882">
        <ele>714</ele>
        <time>2021-02-08T10:11:11.000Z</time>
      </trkpt>
      <trkpt lat="45.74582" lon="4.60866">
        <ele>714.8</ele>
        <time>2021-02-08T10:11:14.000Z</time>
      </trkpt>
      <trkpt lat="45.74577" lon="4.60855">
        <ele>715.6</ele>
        <time>2021-02-08T10:11:18.000Z</time>
      </trkpt>
      <trkpt lat="45.74572" lon="4.60844">
        <ele>716.3</ele>
        <time>2021-02-08T10:11:22.000Z</time>
      </trkpt>
      <trkpt lat="45.74565" lon="4.60833">
        <ele>717</ele>
        <time>2021-02-08T10:11:27.000Z</time>
      </trkpt>
      <trkpt lat="45.74559" lon="4.6082">
        <ele>717.9</ele>
        <time>2021-02-08T10:11:33.000Z</time>
      </trkpt>
      <trkpt lat="45.74555" lon="4.60807">
        <ele>718.6</ele>
        <time>2021-02-08T10:11:38.000Z</time>
      </trkpt>
      <trkpt lat="45.7455" lon="4.60793">
        <ele>719.4</ele>
        <time>2021-02-08T10:11:44.000Z</time>
      </trkpt>
      <trkpt lat="45.74545" lon="4.60779">
        <ele>720.3</ele>
        <time>2021-02-08T10:11:50.000Z</time>
      </trkpt>
      <trkpt lat="45.74539" lon="4.60766">
        <ele>721.4</ele>
        <time>2021-02-08T10:11:56.000Z</time>
      </trkpt>
      <trkpt lat="45.74532" lon="4.60757">
        <ele>722.5</ele>
        <time>2021-02-08T10:12:02.000Z</time>
      </trkpt>
      <trkpt lat="45.74524" lon="4.60751">
        <ele>723.8</ele>
        <time>2021-02-08T10:12:09.000Z</time>
      </trkpt>
      <trkpt lat="45.74517" lon="4.60742">
        <ele>725.3</ele>
        <time>2021-02-08T10:12:17.000Z</time>
      </trkpt>
      <trkpt lat="45.74512" lon="4.6073">
        <ele>726.8</ele>
        <time>2021-02-08T10:12:26.000Z</time>
      </trkpt>
      <trkpt lat="45.74504" lon="4.60722">
        <ele>728.2</ele>
        <time>2021-02-08T10:12:34.000Z</time>
      </trkpt>
      <trkpt lat="45.74497" lon="4.60713">
        <ele>729.8</ele>
        <time>2021-02-08T10:12:42.000Z</time>
      </trkpt>
      <trkpt lat="45.74488" lon="4.60709">
        <ele>731.3</ele>
        <time>2021-02-08T10:12:50.000Z</time>
      </trkpt>
      <trkpt lat="45.74479" lon="4.60704">
        <ele>733</ele>
        <time>2021-02-08T10:12:59.000Z</time>
      </trkpt>
      <trkpt lat="45.7447" lon="4.60699">
        <ele>734.6</ele>
        <time>2021-02-08T10:13:06.000Z</time>
      </trkpt>
      <trkpt lat="45.74461" lon="4.60693">
        <ele>736.1</ele>
        <time>2021-02-08T10:13:14.000Z</time>
      </trkpt>
      <trkpt lat="45.74452" lon="4.60689">
        <ele>737.5</ele>
        <time>2021-02-08T10:13:23.000Z</time>
      </trkpt>
      <trkpt lat="45.74451" lon="4.60688">
        <ele>737.7</ele>
        <time>2021-02-08T10:13:26.000Z</time>
      </trkpt>
      <trkpt lat="45.7445" lon="4.60687">
        <ele>737.8</ele>
        <time>2021-02-08T10:13:27.000Z</time>
      </trkpt>
      <trkpt lat="45.74442" lon="4.60678">
        <ele>739.2</ele>
        <time>2021-02-08T10:13:35.000Z</time>
      </trkpt>
      <trkpt lat="45.74433" lon="4.60673">
        <ele>740.4</ele>
        <time>2021-02-08T10:13:42.000Z</time>
      </trkpt>
      <trkpt lat="45.74424" lon="4.6067">
        <ele>741.7</ele>
        <time>2021-02-08T10:13:49.000Z</time>
      </trkpt>
      <trkpt lat="45.74415" lon="4.60664">
        <ele>743</ele>
        <time>2021-02-08T10:13:57.000Z</time>
      </trkpt>
      <trkpt lat="45.74407" lon="4.60657">
        <ele>744.3</ele>
        <time>2021-02-08T10:14:05.000Z</time>
      </trkpt>
      <trkpt lat="45.74398" lon="4.60652">
        <ele>745.5</ele>
        <time>2021-02-08T10:14:13.000Z</time>
      </trkpt>
      <trkpt lat="45.7439" lon="4.60645">
        <ele>746.5</ele>
        <time>2021-02-08T10:14:20.000Z</time>
      </trkpt>
      <trkpt lat="45.74382" lon="4.60636">
        <ele>747.7</ele>
        <time>2021-02-08T10:14:28.000Z</time>
      </trkpt>
      <trkpt lat="45.74374" lon="4.6063">
        <ele>748.8</ele>
        <time>2021-02-08T10:14:35.000Z</time>
      </trkpt>
      <trkpt lat="45.74365" lon="4.60624">
        <ele>750.1</ele>
        <time>2021-02-08T10:14:43.000Z</time>
      </trkpt>
      <trkpt lat="45.74357" lon="4.60617">
        <ele>751.6</ele>
        <time>2021-02-08T10:14:52.000Z</time>
      </trkpt>
      <trkpt lat="45.74349" lon="4.60609">
        <ele>753.3</ele>
        <time>2021-02-08T10:15:01.000Z</time>
      </trkpt>
      <trkpt lat="45.74341" lon="4.60601">
        <ele>754.9</ele>
        <time>2021-02-08T10:15:09.000Z</time>
      </trkpt>
      <trkpt lat="45.74333" lon="4.60593">
        <ele>756.9</ele>
        <time>2021-02-08T10:15:18.000Z</time>
      </trkpt>
      <trkpt lat="45.74325" lon="4.60585">
        <ele>758.7</ele>
        <time>2021-02-08T10:15:25.000Z</time>
      </trkpt>
      <trkpt lat="45.74316" lon="4.60584">
        <ele>760.5</ele>
        <time>2021-02-08T10:15:32.000Z</time>
      </trkpt>
      <trkpt lat="45.74307" lon="4.60581">
        <ele>762.2</ele>
        <time>2021-02-08T10:15:41.000Z</time>
      </trkpt>
      <trkpt lat="45.74297" lon="4.60581">
        <ele>764</ele>
        <time>2021-02-08T10:15:51.000Z</time>
      </trkpt>
      <trkpt lat="45.74288" lon="4.60578">
        <ele>765.8</ele>
        <time>2021-02-08T10:16:01.000Z</time>
      </trkpt>
      <trkpt lat="45.74278" lon="4.60577">
        <ele>767.6</ele>
        <time>2021-02-08T10:16:10.000Z</time>
      </trkpt>
      <trkpt lat="45.7427" lon="4.60571">
        <ele>769.3</ele>
        <time>2021-02-08T10:16:18.000Z</time>
      </trkpt>
      <trkpt lat="45.74261" lon="4.60568">
        <ele>771</ele>
        <time>2021-02-08T10:16:29.000Z</time>
      </trkpt>
      <trkpt lat="45.74252" lon="4.60566">
        <ele>772.6</ele>
        <time>2021-02-08T10:16:39.000Z</time>
      </trkpt>
      <trkpt lat="45.74244" lon="4.60559">
        <ele>773.8</ele>
        <time>2021-02-08T10:16:47.000Z</time>
      </trkpt>
      <trkpt lat="45.74238" lon="4.60548">
        <ele>775</ele>
        <time>2021-02-08T10:16:56.000Z</time>
      </trkpt>
      <trkpt lat="45.74233" lon="4.60537">
        <ele>776.1</ele>
        <time>2021-02-08T10:17:04.000Z</time>
      </trkpt>
      <trkpt lat="45.74225" lon="4.60528">
        <ele>777.2</ele>
        <time>2021-02-08T10:17:12.000Z</time>
      </trkpt>
      <trkpt lat="45.74217" lon="4.60519">
        <ele>778.4</ele>
        <time>2021-02-08T10:17:18.000Z</time>
      </trkpt>
      <trkpt lat="45.74211" lon="4.6051">
        <ele>779.7</ele>
        <time>2021-02-08T10:17:26.000Z</time>
      </trkpt>
      <trkpt lat="45.74203" lon="4.60501">
        <ele>781.2</ele>
        <time>2021-02-08T10:17:34.000Z</time>
      </trkpt>
      <trkpt lat="45.74197" lon="4.60491">
        <ele>782.8</ele>
        <time>2021-02-08T10:17:42.000Z</time>
      </trkpt>
      <trkpt lat="45.74194" lon="4.60478">
        <ele>784.4</ele>
        <time>2021-02-08T10:17:53.000Z</time>
      </trkpt>
      <trkpt lat="45.74187" lon="4.60468">
        <ele>786</ele>
        <time>2021-02-08T10:17:58.000Z</time>
      </trkpt>
      <trkpt lat="45.7418" lon="4.60458">
        <ele>787.8</ele>
        <time>2021-02-08T10:18:06.000Z</time>
      </trkpt>
      <trkpt lat="45.74173" lon="4.60449">
        <ele>789.6</ele>
        <time>2021-02-08T10:18:14.000Z</time>
      </trkpt>
      <trkpt lat="45.74167" lon="4.60439">
        <ele>791.1</ele>
        <time>2021-02-08T10:18:22.000Z</time>
      </trkpt>
      <trkpt lat="45.74161" lon="4.60428">
        <ele>792.5</ele>
        <time>2021-02-08T10:18:30.000Z</time>
      </trkpt>
      <trkpt lat="45.74155" lon="4.60416">
        <ele>793.9</ele>
        <time>2021-02-08T10:18:41.000Z</time>
      </trkpt>
      <trkpt lat="45.74151" lon="4.60404">
        <ele>795.1</ele>
        <time>2021-02-08T10:18:49.000Z</time>
      </trkpt>
      <trkpt lat="45.74148" lon="4.60391">
        <ele>796.2</ele>
        <time>2021-02-08T10:18:57.000Z</time>
      </trkpt>
      <trkpt lat="45.74146" lon="4.60378">
        <ele>797.3</ele>
        <time>2021-02-08T10:19:04.000Z</time>
      </trkpt>
      <trkpt lat="45.74144" lon="4.60365">
        <ele>798.5</ele>
        <time>2021-02-08T10:19:11.000Z</time>
      </trkpt>
      <trkpt lat="45.74148" lon="4.60353">
        <ele>799.7</ele>
        <time>2021-02-08T10:19:20.000Z</time>
      </trkpt>
      <trkpt lat="45.74149" lon="4.6034">
        <ele>800.9</ele>
        <time>2021-02-08T10:19:27.000Z</time>
      </trkpt>
      <trkpt lat="45.7415" lon="4.60325">
        <ele>802.2</ele>
        <time>2021-02-08T10:19:35.000Z</time>
      </trkpt>
      <trkpt lat="45.74148" lon="4.60313">
        <ele>803.3</ele>
        <time>2021-02-08T10:19:41.000Z</time>
      </trkpt>
      <trkpt lat="45.7415" lon="4.60299">
        <ele>804.3</ele>
        <time>2021-02-08T10:19:49.000Z</time>
      </trkpt>
      <trkpt lat="45.74152" lon="4.60285">
        <ele>805.2</ele>
        <time>2021-02-08T10:19:56.000Z</time>
      </trkpt>
      <trkpt lat="45.74153" lon="4.60271">
        <ele>806.2</ele>
        <time>2021-02-08T10:20:03.000Z</time>
      </trkpt>
      <trkpt lat="45.74154" lon="4.60257">
        <ele>807.1</ele>
        <time>2021-02-08T10:20:10.000Z</time>
      </trkpt>
      <trkpt lat="45.74145" lon="4.60262">
        <ele>808.5</ele>
        <time>2021-02-08T10:20:21.000Z</time>
      </trkpt>
      <trkpt lat="45.74139" lon="4.60271">
        <ele>809.9</ele>
        <time>2021-02-08T10:20:28.000Z</time>
      </trkpt>
      <trkpt lat="45.7413" lon="4.60282">
        <ele>811.4</ele>
        <time>2021-02-08T10:20:38.000Z</time>
      </trkpt>
      <trkpt lat="45.74121" lon="4.60291">
        <ele>812.6</ele>
        <time>2021-02-08T10:20:44.000Z</time>
      </trkpt>
      <trkpt lat="45.74113" lon="4.60298">
        <ele>813.6</ele>
        <time>2021-02-08T10:20:50.000Z</time>
      </trkpt>
      <trkpt lat="45.74107" lon="4.60307">
        <ele>814.4</ele>
        <time>2021-02-08T10:20:58.000Z</time>
      </trkpt>
      <trkpt lat="45.74099" lon="4.60315">
        <ele>815.3</ele>
        <time>2021-02-08T10:21:05.000Z</time>
      </trkpt>
      <trkpt lat="45.74092" lon="4.60322">
        <ele>816.1</ele>
        <time>2021-02-08T10:21:11.000Z</time>
      </trkpt>
      <trkpt lat="45.74084" lon="4.60331">
        <ele>817</ele>
        <time>2021-02-08T10:21:19.000Z</time>
      </trkpt>
      <trkpt lat="45.74074" lon="4.60337">
        <ele>818</ele>
        <time>2021-02-08T10:21:26.000Z</time>
      </trkpt>
      <trkpt lat="45.74066" lon="4.60345">
        <ele>819.1</ele>
        <time>2021-02-08T10:21:32.000Z</time>
      </trkpt>
      <trkpt lat="45.74058" lon="4.60352">
        <ele>820.1</ele>
        <time>2021-02-08T10:21:41.000Z</time>
      </trkpt>
      <trkpt lat="45.7405" lon="4.60359">
        <ele>821.1</ele>
        <time>2021-02-08T10:21:49.000Z</time>
      </trkpt>
      <trkpt lat="45.7404" lon="4.60364">
        <ele>822.1</ele>
        <time>2021-02-08T10:21:55.000Z</time>
      </trkpt>
      <trkpt lat="45.74031" lon="4.60366">
        <ele>822.9</ele>
        <time>2021-02-08T10:22:01.000Z</time>
      </trkpt>
      <trkpt lat="45.74022" lon="4.60363">
        <ele>823.6</ele>
        <time>2021-02-08T10:22:07.000Z</time>
      </trkpt>
      <trkpt lat="45.74012" lon="4.60356">
        <ele>824</ele>
        <time>2021-02-08T10:22:13.000Z</time>
      </trkpt>
      <trkpt lat="45.74003" lon="4.60348">
        <ele>824.2</ele>
        <time>2021-02-08T10:22:18.000Z</time>
      </trkpt>
      <trkpt lat="45.73994" lon="4.60342">
        <ele>824.2</ele>
        <time>2021-02-08T10:22:23.000Z</time>
      </trkpt>
      <trkpt lat="45.73985" lon="4.60335">
        <ele>824.1</ele>
        <time>2021-02-08T10:22:28.000Z</time>
      </trkpt>
      <trkpt lat="45.73976" lon="4.60329">
        <ele>824</ele>
        <time>2021-02-08T10:22:32.000Z</time>
      </trkpt>
      <trkpt lat="45.73975" lon="4.60314">
        <ele>824.4</ele>
        <time>2021-02-08T10:22:38.000Z</time>
      </trkpt>
      <trkpt lat="45.73982" lon="4.60302">
        <ele>824.2</ele>
        <time>2021-02-08T10:22:42.000Z</time>
      </trkpt>
      <trkpt lat="45.73986" lon="4.60287">
        <ele>823.8</ele>
        <time>2021-02-08T10:22:47.000Z</time>
      </trkpt>
      <trkpt lat="45.7399" lon="4.60275">
        <ele>823.8</ele>
        <time>2021-02-08T10:22:53.000Z</time>
      </trkpt>
      <trkpt lat="45.73999" lon="4.60272">
        <ele>822.7</ele>
        <time>2021-02-08T10:22:58.000Z</time>
      </trkpt>
      <trkpt lat="45.74009" lon="4.60267">
        <ele>821.8</ele>
        <time>2021-02-08T10:23:04.000Z</time>
      </trkpt>
      <trkpt lat="45.74017" lon="4.60259">
        <ele>821.1</ele>
        <time>2021-02-08T10:23:08.000Z</time>
      </trkpt>
      <trkpt lat="45.74013" lon="4.60246">
        <ele>821.8</ele>
        <time>2021-02-08T10:23:13.000Z</time>
      </trkpt>
      <trkpt lat="45.74009" lon="4.60235">
        <ele>822.8</ele>
        <time>2021-02-08T10:23:19.000Z</time>
      </trkpt>
      <trkpt lat="45.74007" lon="4.60222">
        <ele>823.1</ele>
        <time>2021-02-08T10:23:25.000Z</time>
      </trkpt>
      <trkpt lat="45.7401" lon="4.60208">
        <ele>823.1</ele>
        <time>2021-02-08T10:23:33.000Z</time>
      </trkpt>
      <trkpt lat="45.74018" lon="4.602">
        <ele>822.6</ele>
        <time>2021-02-08T10:23:38.000Z</time>
      </trkpt>
      <trkpt lat="45.74026" lon="4.6019">
        <ele>821.9</ele>
        <time>2021-02-08T10:23:43.000Z</time>
      </trkpt>
      <trkpt lat="45.74035" lon="4.60184">
        <ele>821.2</ele>
        <time>2021-02-08T10:23:48.000Z</time>
      </trkpt>
      <trkpt lat="45.74033" lon="4.6017">
        <ele>821.9</ele>
        <time>2021-02-08T10:23:58.000Z</time>
      </trkpt>
      <trkpt lat="45.74025" lon="4.60161">
        <ele>822.7</ele>
        <time>2021-02-08T10:24:06.000Z</time>
      </trkpt>
      <trkpt lat="45.74021" lon="4.60148">
        <ele>823.6</ele>
        <time>2021-02-08T10:24:13.000Z</time>
      </trkpt>
      <trkpt lat="45.74015" lon="4.60138">
        <ele>824.5</ele>
        <time>2021-02-08T10:24:20.000Z</time>
      </trkpt>
      <trkpt lat="45.74013" lon="4.60124">
        <ele>824.7</ele>
        <time>2021-02-08T10:24:27.000Z</time>
      </trkpt>
      <trkpt lat="45.74019" lon="4.60113">
        <ele>824.4</ele>
        <time>2021-02-08T10:24:33.000Z</time>
      </trkpt>
      <trkpt lat="45.74015" lon="4.601">
        <ele>825.1</ele>
        <time>2021-02-08T10:24:42.000Z</time>
      </trkpt>
      <trkpt lat="45.74007" lon="4.60091">
        <ele>825.8</ele>
        <time>2021-02-08T10:24:48.000Z</time>
      </trkpt>
      <trkpt lat="45.74" lon="4.60083">
        <ele>826.2</ele>
        <time>2021-02-08T10:24:53.000Z</time>
      </trkpt>
      <trkpt lat="45.73994" lon="4.60073">
        <ele>826.3</ele>
        <time>2021-02-08T10:24:58.000Z</time>
      </trkpt>
      <trkpt lat="45.73991" lon="4.60059">
        <ele>826.5</ele>
        <time>2021-02-08T10:25:03.000Z</time>
      </trkpt>
      <trkpt lat="45.73987" lon="4.60046">
        <ele>826.5</ele>
        <time>2021-02-08T10:25:09.000Z</time>
      </trkpt>
      <trkpt lat="45.73984" lon="4.60032">
        <ele>826.3</ele>
        <time>2021-02-08T10:25:15.000Z</time>
      </trkpt>
      <trkpt lat="45.73983" lon="4.60027">
        <ele>826.2</ele>
        <time>2021-02-08T10:25:20.000Z</time>
      </trkpt>
      <trkpt lat="45.73983" lon="4.60026">
        <ele>826.2</ele>
        <time>2021-02-08T10:25:31.000Z</time>
      </trkpt>
      <trkpt lat="45.73983" lon="4.60026">
        <ele>826.1</ele>
        <time>2021-02-08T10:25:32.000Z</time>
      </trkpt>
      <trkpt lat="45.73983" lon="4.60025">
        <ele>826.1</ele>
        <time>2021-02-08T10:26:02.000Z</time>
      </trkpt>
      <trkpt lat="45.73983" lon="4.60025">
        <ele>826.1</ele>
        <time>2021-02-08T10:26:03.000Z</time>
      </trkpt>
      <trkpt lat="45.73984" lon="4.60025">
        <ele>826.1</ele>
        <time>2021-02-08T10:26:12.000Z</time>
      </trkpt>
      <trkpt lat="45.73984" lon="4.60025">
        <ele>826</ele>
        <time>2021-02-08T10:26:13.000Z</time>
      </trkpt>
      <trkpt lat="45.73984" lon="4.60025">
        <ele>826</ele>
        <time>2021-02-08T10:26:15.000Z</time>
      </trkpt>
      <trkpt lat="45.73984" lon="4.60025">
        <ele>826</ele>
        <time>2021-02-08T10:26:16.000Z</time>
      </trkpt>
      <trkpt lat="45.73984" lon="4.60024">
        <ele>826</ele>
        <time>2021-02-08T10:26:20.000Z</time>
      </trkpt>
      <trkpt lat="45.73984" lon="4.60024">
        <ele>825.9</ele>
        <time>2021-02-08T10:26:21.000Z</time>
      </trkpt>
      <trkpt lat="45.73983" lon="4.60024">
        <ele>825.9</ele>
        <time>2021-02-08T10:26:29.000Z</time>
      </trkpt>
      <trkpt lat="45.73983" lon="4.60024">
        <ele>825.9</ele>
        <time>2021-02-08T10:26:30.000Z</time>
      </trkpt>
      <trkpt lat="45.73983" lon="4.60023">
        <ele>825.9</ele>
        <time>2021-02-08T10:26:35.000Z</time>
      </trkpt>
      <trkpt lat="45.73983" lon="4.60023">
        <ele>825.8</ele>
        <time>2021-02-08T10:26:36.000Z</time>
      </trkpt>
      <trkpt lat="45.73983" lon="4.60023">
        <ele>825.8</ele>
        <time>2021-02-08T10:26:37.000Z</time>
      </trkpt>
      <trkpt lat="45.73987" lon="4.6003">
        <ele>825.9</ele>
        <time>2021-02-08T10:26:44.000Z</time>
      </trkpt>
      <trkpt lat="45.73987" lon="4.6003">
        <ele>825.9</ele>
        <time>2021-02-08T10:26:45.000Z</time>
      </trkpt>
      <trkpt lat="45.73987" lon="4.6003">
        <ele>825.9</ele>
        <time>2021-02-08T10:26:46.000Z</time>
      </trkpt>
      <trkpt lat="45.73987" lon="4.6003">
        <ele>825.9</ele>
        <time>2021-02-08T10:27:00.000Z</time>
      </trkpt>
      <trkpt lat="45.73987" lon="4.60031">
        <ele>825.9</ele>
        <time>2021-02-08T10:27:05.000Z</time>
      </trkpt>
      <trkpt lat="45.73988" lon="4.60031">
        <ele>825.8</ele>
        <time>2021-02-08T10:27:32.000Z</time>
      </trkpt>
      <trkpt lat="45.73988" lon="4.60031">
        <ele>825.8</ele>
        <time>2021-02-08T10:27:33.000Z</time>
      </trkpt>
      <trkpt lat="45.73988" lon="4.60032">
        <ele>825.8</ele>
        <time>2021-02-08T10:28:04.000Z</time>
      </trkpt>
      <trkpt lat="45.73988" lon="4.60036">
        <ele>825.8</ele>
        <time>2021-02-08T10:28:10.000Z</time>
      </trkpt>
      <trkpt lat="45.73988" lon="4.60036">
        <ele>825.7</ele>
        <time>2021-02-08T10:28:12.000Z</time>
      </trkpt>
      <trkpt lat="45.73991" lon="4.60051">
        <ele>825.8</ele>
        <time>2021-02-08T10:28:18.000Z</time>
      </trkpt>
      <trkpt lat="45.73995" lon="4.60067">
        <ele>825.6</ele>
        <time>2021-02-08T10:28:22.000Z</time>
      </trkpt>
      <trkpt lat="45.74" lon="4.60081">
        <ele>825.3</ele>
        <time>2021-02-08T10:28:25.000Z</time>
      </trkpt>
      <trkpt lat="45.74008" lon="4.60089">
        <ele>824.9</ele>
        <time>2021-02-08T10:28:28.000Z</time>
      </trkpt>
      <trkpt lat="45.74015" lon="4.60099">
        <ele>824.2</ele>
        <time>2021-02-08T10:28:31.000Z</time>
      </trkpt>
      <trkpt lat="45.74023" lon="4.60105">
        <ele>823.3</ele>
        <time>2021-02-08T10:28:34.000Z</time>
      </trkpt>
      <trkpt lat="45.74031" lon="4.60116">
        <ele>822.1</ele>
        <time>2021-02-08T10:28:38.000Z</time>
      </trkpt>
      <trkpt lat="45.74038" lon="4.60127">
        <ele>821.1</ele>
        <time>2021-02-08T10:28:43.000Z</time>
      </trkpt>
      <trkpt lat="45.74047" lon="4.60131">
        <ele>819.7</ele>
        <time>2021-02-08T10:28:49.000Z</time>
      </trkpt>
      <trkpt lat="45.74058" lon="4.60139">
        <ele>817.3</ele>
        <time>2021-02-08T10:28:52.000Z</time>
      </trkpt>
      <trkpt lat="45.74069" lon="4.6014">
        <ele>815.6</ele>
        <time>2021-02-08T10:28:54.000Z</time>
      </trkpt>
      <trkpt lat="45.7408" lon="4.60142">
        <ele>813.2</ele>
        <time>2021-02-08T10:28:56.000Z</time>
      </trkpt>
      <trkpt lat="45.7409" lon="4.60131">
        <ele>811.4</ele>
        <time>2021-02-08T10:28:59.000Z</time>
      </trkpt>
      <trkpt lat="45.741" lon="4.60123">
        <ele>809.1</ele>
        <time>2021-02-08T10:29:02.000Z</time>
      </trkpt>
      <trkpt lat="45.74107" lon="4.60113">
        <ele>807.8</ele>
        <time>2021-02-08T10:29:06.000Z</time>
      </trkpt>
      <trkpt lat="45.74117" lon="4.60113">
        <ele>805.2</ele>
        <time>2021-02-08T10:29:16.000Z</time>
      </trkpt>
      <trkpt lat="45.74125" lon="4.60121">
        <ele>802.6</ele>
        <time>2021-02-08T10:29:20.000Z</time>
      </trkpt>
      <trkpt lat="45.74134" lon="4.60125">
        <ele>800</ele>
        <time>2021-02-08T10:29:23.000Z</time>
      </trkpt>
      <trkpt lat="45.74145" lon="4.60123">
        <ele>795.8</ele>
        <time>2021-02-08T10:29:26.000Z</time>
      </trkpt>
      <trkpt lat="45.74156" lon="4.60129">
        <ele>793.3</ele>
        <time>2021-02-08T10:29:29.000Z</time>
      </trkpt>
      <trkpt lat="45.74168" lon="4.60126">
        <ele>789.7</ele>
        <time>2021-02-08T10:29:32.000Z</time>
      </trkpt>
      <trkpt lat="45.74173" lon="4.60114">
        <ele>787.6</ele>
        <time>2021-02-08T10:29:35.000Z</time>
      </trkpt>
      <trkpt lat="45.74181" lon="4.60127">
        <ele>785.5</ele>
        <time>2021-02-08T10:29:39.000Z</time>
      </trkpt>
      <trkpt lat="45.7419" lon="4.60142">
        <ele>783.1</ele>
        <time>2021-02-08T10:29:42.000Z</time>
      </trkpt>
      <trkpt lat="45.74198" lon="4.6015">
        <ele>781.5</ele>
        <time>2021-02-08T10:29:44.000Z</time>
      </trkpt>
      <trkpt lat="45.74208" lon="4.60146">
        <ele>777.4</ele>
        <time>2021-02-08T10:29:46.000Z</time>
      </trkpt>
      <trkpt lat="45.74216" lon="4.60136">
        <ele>775.4</ele>
        <time>2021-02-08T10:29:48.000Z</time>
      </trkpt>
      <trkpt lat="45.74225" lon="4.6014">
        <ele>772.6</ele>
        <time>2021-02-08T10:29:52.000Z</time>
      </trkpt>
      <trkpt lat="45.7423" lon="4.60153">
        <ele>770.6</ele>
        <time>2021-02-08T10:29:55.000Z</time>
      </trkpt>
      <trkpt lat="45.74238" lon="4.60148">
        <ele>767.8</ele>
        <time>2021-02-08T10:29:58.000Z</time>
      </trkpt>
      <trkpt lat="45.74246" lon="4.60155">
        <ele>765.9</ele>
        <time>2021-02-08T10:30:01.000Z</time>
      </trkpt>
      <trkpt lat="45.74255" lon="4.6016">
        <ele>762.4</ele>
        <time>2021-02-08T10:30:03.000Z</time>
      </trkpt>
      <trkpt lat="45.74265" lon="4.60158">
        <ele>758.4</ele>
        <time>2021-02-08T10:30:05.000Z</time>
      </trkpt>
      <trkpt lat="45.74278" lon="4.60156">
        <ele>753.5</ele>
        <time>2021-02-08T10:30:08.000Z</time>
      </trkpt>
      <trkpt lat="45.74283" lon="4.60144">
        <ele>751.4</ele>
        <time>2021-02-08T10:30:11.000Z</time>
      </trkpt>
      <trkpt lat="45.74285" lon="4.60129">
        <ele>750.6</ele>
        <time>2021-02-08T10:30:14.000Z</time>
      </trkpt>
      <trkpt lat="45.74294" lon="4.60121">
        <ele>747.2</ele>
        <time>2021-02-08T10:30:16.000Z</time>
      </trkpt>
      <trkpt lat="45.74306" lon="4.60126">
        <ele>741.7</ele>
        <time>2021-02-08T10:30:19.000Z</time>
      </trkpt>
      <trkpt lat="45.74318" lon="4.60119">
        <ele>737.5</ele>
        <time>2021-02-08T10:30:22.000Z</time>
      </trkpt>
      <trkpt lat="45.74328" lon="4.60108">
        <ele>732.5</ele>
        <time>2021-02-08T10:30:25.000Z</time>
      </trkpt>
      <trkpt lat="45.74336" lon="4.60096">
        <ele>729.4</ele>
        <time>2021-02-08T10:30:27.000Z</time>
      </trkpt>
      <trkpt lat="45.74344" lon="4.6009">
        <ele>725</ele>
        <time>2021-02-08T10:30:30.000Z</time>
      </trkpt>
      <trkpt lat="45.74353" lon="4.60078">
        <ele>720.9</ele>
        <time>2021-02-08T10:30:33.000Z</time>
      </trkpt>
      <trkpt lat="45.74359" lon="4.60064">
        <ele>717.6</ele>
        <time>2021-02-08T10:30:36.000Z</time>
      </trkpt>
      <trkpt lat="45.74367" lon="4.60055">
        <ele>712.6</ele>
        <time>2021-02-08T10:30:39.000Z</time>
      </trkpt>
      <trkpt lat="45.74374" lon="4.60043">
        <ele>709</ele>
        <time>2021-02-08T10:30:43.000Z</time>
      </trkpt>
      <trkpt lat="45.74369" lon="4.6003">
        <ele>709.8</ele>
        <time>2021-02-08T10:30:47.000Z</time>
      </trkpt>
      <trkpt lat="45.74369" lon="4.60016">
        <ele>709.3</ele>
        <time>2021-02-08T10:30:50.000Z</time>
      </trkpt>
      <trkpt lat="45.74373" lon="4.59999">
        <ele>707</ele>
        <time>2021-02-08T10:30:54.000Z</time>
      </trkpt>
      <trkpt lat="45.74382" lon="4.59989">
        <ele>702.6</ele>
        <time>2021-02-08T10:30:56.000Z</time>
      </trkpt>
      <trkpt lat="45.74392" lon="4.59982">
        <ele>698.3</ele>
        <time>2021-02-08T10:30:59.000Z</time>
      </trkpt>
      <trkpt lat="45.74397" lon="4.59988">
        <ele>695.9</ele>
        <time>2021-02-08T10:31:07.000Z</time>
      </trkpt>
      <trkpt lat="45.74398" lon="4.59988">
        <ele>695.9</ele>
        <time>2021-02-08T10:31:08.000Z</time>
      </trkpt>
      <trkpt lat="45.74401" lon="4.59991">
        <ele>694.7</ele>
        <time>2021-02-08T10:31:15.000Z</time>
      </trkpt>
      <trkpt lat="45.74401" lon="4.59991">
        <ele>694.7</ele>
        <time>2021-02-08T10:31:16.000Z</time>
      </trkpt>
      <trkpt lat="45.74403" lon="4.59975">
        <ele>692.9</ele>
        <time>2021-02-08T10:31:21.000Z</time>
      </trkpt>
      <trkpt lat="45.74403" lon="4.59957">
        <ele>692.5</ele>
        <time>2021-02-08T10:31:24.000Z</time>
      </trkpt>
      <trkpt lat="45.74407" lon="4.59942">
        <ele>691.1</ele>
        <time>2021-02-08T10:31:27.000Z</time>
      </trkpt>
      <trkpt lat="45.74417" lon="4.59929">
        <ele>687.6</ele>
        <time>2021-02-08T10:31:30.000Z</time>
      </trkpt>
      <trkpt lat="45.74422" lon="4.59919">
        <ele>684.8</ele>
        <time>2021-02-08T10:31:32.000Z</time>
      </trkpt>
      <trkpt lat="45.74427" lon="4.59904">
        <ele>682.1</ele>
        <time>2021-02-08T10:31:35.000Z</time>
      </trkpt>
      <trkpt lat="45.74433" lon="4.59888">
        <ele>679.6</ele>
        <time>2021-02-08T10:31:38.000Z</time>
      </trkpt>
      <trkpt lat="45.74431" lon="4.59875">
        <ele>679.9</ele>
        <time>2021-02-08T10:31:40.000Z</time>
      </trkpt>
      <trkpt lat="45.74437" lon="4.59862">
        <ele>677.6</ele>
        <time>2021-02-08T10:31:43.000Z</time>
      </trkpt>
      <trkpt lat="45.74442" lon="4.59846">
        <ele>675.2</ele>
        <time>2021-02-08T10:31:46.000Z</time>
      </trkpt>
      <trkpt lat="45.74444" lon="4.59831">
        <ele>674.8</ele>
        <time>2021-02-08T10:31:49.000Z</time>
      </trkpt>
      <trkpt lat="45.74444" lon="4.59815">
        <ele>673</ele>
        <time>2021-02-08T10:31:53.000Z</time>
      </trkpt>
      <trkpt lat="45.74449" lon="4.59799">
        <ele>670.7</ele>
        <time>2021-02-08T10:31:56.000Z</time>
      </trkpt>
      <trkpt lat="45.74448" lon="4.59783">
        <ele>669.7</ele>
        <time>2021-02-08T10:31:59.000Z</time>
      </trkpt>
      <trkpt lat="45.7445" lon="4.5977">
        <ele>668.7</ele>
        <time>2021-02-08T10:32:01.000Z</time>
      </trkpt>
      <trkpt lat="45.74459" lon="4.59761">
        <ele>663</ele>
        <time>2021-02-08T10:32:05.000Z</time>
      </trkpt>
      <trkpt lat="45.74469" lon="4.59758">
        <ele>659.5</ele>
        <time>2021-02-08T10:32:08.000Z</time>
      </trkpt>
      <trkpt lat="45.74479" lon="4.59755">
        <ele>656.3</ele>
        <time>2021-02-08T10:32:11.000Z</time>
      </trkpt>
      <trkpt lat="45.74487" lon="4.59746">
        <ele>653.4</ele>
        <time>2021-02-08T10:32:14.000Z</time>
      </trkpt>
      <trkpt lat="45.74497" lon="4.5975">
        <ele>651.8</ele>
        <time>2021-02-08T10:32:18.000Z</time>
      </trkpt>
      <trkpt lat="45.74506" lon="4.59743">
        <ele>649</ele>
        <time>2021-02-08T10:32:23.000Z</time>
      </trkpt>
      <trkpt lat="45.74514" lon="4.59734">
        <ele>646.8</ele>
        <time>2021-02-08T10:32:28.000Z</time>
      </trkpt>
      <trkpt lat="45.74511" lon="4.5972">
        <ele>646.2</ele>
        <time>2021-02-08T10:32:32.000Z</time>
      </trkpt>
      <trkpt lat="45.74518" lon="4.5971">
        <ele>644.9</ele>
        <time>2021-02-08T10:32:35.000Z</time>
      </trkpt>
      <trkpt lat="45.74528" lon="4.59703">
        <ele>642.7</ele>
        <time>2021-02-08T10:32:39.000Z</time>
      </trkpt>
      <trkpt lat="45.74532" lon="4.59684">
        <ele>641.5</ele>
        <time>2021-02-08T10:32:42.000Z</time>
      </trkpt>
      <trkpt lat="45.74534" lon="4.59671">
        <ele>640.6</ele>
        <time>2021-02-08T10:32:44.000Z</time>
      </trkpt>
      <trkpt lat="45.74544" lon="4.59666">
        <ele>641.1</ele>
        <time>2021-02-08T10:32:47.000Z</time>
      </trkpt>
      <trkpt lat="45.74557" lon="4.5967">
        <ele>641.5</ele>
        <time>2021-02-08T10:32:50.000Z</time>
      </trkpt>
      <trkpt lat="45.74569" lon="4.59667">
        <ele>641.8</ele>
        <time>2021-02-08T10:32:52.000Z</time>
      </trkpt>
      <trkpt lat="45.74579" lon="4.59667">
        <ele>642</ele>
        <time>2021-02-08T10:32:54.000Z</time>
      </trkpt>
      <trkpt lat="45.74588" lon="4.59671">
        <ele>642.4</ele>
        <time>2021-02-08T10:33:00.000Z</time>
      </trkpt>
      <trkpt lat="45.74598" lon="4.59671">
        <ele>642.9</ele>
        <time>2021-02-08T10:33:07.000Z</time>
      </trkpt>
      <trkpt lat="45.74608" lon="4.59678">
        <ele>643.5</ele>
        <time>2021-02-08T10:33:13.000Z</time>
      </trkpt>
      <trkpt lat="45.74616" lon="4.59685">
        <ele>644.2</ele>
        <time>2021-02-08T10:33:18.000Z</time>
      </trkpt>
      <trkpt lat="45.74624" lon="4.59694">
        <ele>645</ele>
        <time>2021-02-08T10:33:23.000Z</time>
      </trkpt>
      <trkpt lat="45.74633" lon="4.59705">
        <ele>645.8</ele>
        <time>2021-02-08T10:33:28.000Z</time>
      </trkpt>
      <trkpt lat="45.74639" lon="4.59717">
        <ele>646.5</ele>
        <time>2021-02-08T10:33:33.000Z</time>
      </trkpt>
      <trkpt lat="45.74643" lon="4.59729">
        <ele>647.2</ele>
        <time>2021-02-08T10:33:38.000Z</time>
      </trkpt>
      <trkpt lat="45.74647" lon="4.59741">
        <ele>647.7</ele>
        <time>2021-02-08T10:33:43.000Z</time>
      </trkpt>
      <trkpt lat="45.74649" lon="4.59755">
        <ele>648.3</ele>
        <time>2021-02-08T10:33:48.000Z</time>
      </trkpt>
      <trkpt lat="45.7465" lon="4.5977">
        <ele>648.9</ele>
        <time>2021-02-08T10:33:53.000Z</time>
      </trkpt>
      <trkpt lat="45.7465" lon="4.59786">
        <ele>649.5</ele>
        <time>2021-02-08T10:33:58.000Z</time>
      </trkpt>
      <trkpt lat="45.74647" lon="4.59798">
        <ele>650</ele>
        <time>2021-02-08T10:34:02.000Z</time>
      </trkpt>
      <trkpt lat="45.74643" lon="4.59811">
        <ele>650.6</ele>
        <time>2021-02-08T10:34:06.000Z</time>
      </trkpt>
      <trkpt lat="45.7464" lon="4.59824">
        <ele>651.2</ele>
        <time>2021-02-08T10:34:10.000Z</time>
      </trkpt>
      <trkpt lat="45.74637" lon="4.59839">
        <ele>651.9</ele>
        <time>2021-02-08T10:34:15.000Z</time>
      </trkpt>
      <trkpt lat="45.74634" lon="4.59851">
        <ele>652.4</ele>
        <time>2021-02-08T10:34:19.000Z</time>
      </trkpt>
      <trkpt lat="45.7463" lon="4.59866">
        <ele>653.1</ele>
        <time>2021-02-08T10:34:24.000Z</time>
      </trkpt>
      <trkpt lat="45.74626" lon="4.59878">
        <ele>653.7</ele>
        <time>2021-02-08T10:34:28.000Z</time>
      </trkpt>
      <trkpt lat="45.74621" lon="4.59893">
        <ele>654.4</ele>
        <time>2021-02-08T10:34:33.000Z</time>
      </trkpt>
      <trkpt lat="45.74616" lon="4.59906">
        <ele>655.2</ele>
        <time>2021-02-08T10:34:38.000Z</time>
      </trkpt>
      <trkpt lat="45.74611" lon="4.5992">
        <ele>655.9</ele>
        <time>2021-02-08T10:34:43.000Z</time>
      </trkpt>
      <trkpt lat="45.74606" lon="4.59931">
        <ele>656.5</ele>
        <time>2021-02-08T10:34:47.000Z</time>
      </trkpt>
      <trkpt lat="45.74601" lon="4.59945">
        <ele>657.3</ele>
        <time>2021-02-08T10:34:52.000Z</time>
      </trkpt>
      <trkpt lat="45.74596" lon="4.59959">
        <ele>658.1</ele>
        <time>2021-02-08T10:34:57.000Z</time>
      </trkpt>
      <trkpt lat="45.74589" lon="4.59972">
        <ele>658.8</ele>
        <time>2021-02-08T10:35:02.000Z</time>
      </trkpt>
      <trkpt lat="45.74585" lon="4.59984">
        <ele>659.5</ele>
        <time>2021-02-08T10:35:06.000Z</time>
      </trkpt>
      <trkpt lat="45.74579" lon="4.59997">
        <ele>660.2</ele>
        <time>2021-02-08T10:35:11.000Z</time>
      </trkpt>
      <trkpt lat="45.74575" lon="4.60008">
        <ele>660.9</ele>
        <time>2021-02-08T10:35:15.000Z</time>
      </trkpt>
      <trkpt lat="45.7457" lon="4.6002">
        <ele>661.6</ele>
        <time>2021-02-08T10:35:19.000Z</time>
      </trkpt>
      <trkpt lat="45.74565" lon="4.60031">
        <ele>662.3</ele>
        <time>2021-02-08T10:35:23.000Z</time>
      </trkpt>
      <trkpt lat="45.7456" lon="4.60044">
        <ele>663.1</ele>
        <time>2021-02-08T10:35:27.000Z</time>
      </trkpt>
      <trkpt lat="45.74555" lon="4.60055">
        <ele>663.8</ele>
        <time>2021-02-08T10:35:31.000Z</time>
      </trkpt>
      <trkpt lat="45.74549" lon="4.60068">
        <ele>664.7</ele>
        <time>2021-02-08T10:35:35.000Z</time>
      </trkpt>
      <trkpt lat="45.74543" lon="4.6008">
        <ele>665.5</ele>
        <time>2021-02-08T10:35:39.000Z</time>
      </trkpt>
      <trkpt lat="45.74538" lon="4.60092">
        <ele>666.3</ele>
        <time>2021-02-08T10:35:43.000Z</time>
      </trkpt>
      <trkpt lat="45.74531" lon="4.60103">
        <ele>667.1</ele>
        <time>2021-02-08T10:35:47.000Z</time>
      </trkpt>
      <trkpt lat="45.74524" lon="4.60114">
        <ele>667.9</ele>
        <time>2021-02-08T10:35:51.000Z</time>
      </trkpt>
      <trkpt lat="45.74516" lon="4.60124">
        <ele>668.8</ele>
        <time>2021-02-08T10:35:55.000Z</time>
      </trkpt>
      <trkpt lat="45.74508" lon="4.60134">
        <ele>669.6</ele>
        <time>2021-02-08T10:35:59.000Z</time>
      </trkpt>
      <trkpt lat="45.745" lon="4.60143">
        <ele>670.5</ele>
        <time>2021-02-08T10:36:03.000Z</time>
      </trkpt>
      <trkpt lat="45.74492" lon="4.6015">
        <ele>671.3</ele>
        <time>2021-02-08T10:36:07.000Z</time>
      </trkpt>
      <trkpt lat="45.74483" lon="4.60157">
        <ele>672.2</ele>
        <time>2021-02-08T10:36:11.000Z</time>
      </trkpt>
      <trkpt lat="45.74476" lon="4.60166">
        <ele>672.9</ele>
        <time>2021-02-08T10:36:16.000Z</time>
      </trkpt>
      <trkpt lat="45.74469" lon="4.60177">
        <ele>673.6</ele>
        <time>2021-02-08T10:36:21.000Z</time>
      </trkpt>
      <trkpt lat="45.74464" lon="4.60189">
        <ele>674.3</ele>
        <time>2021-02-08T10:36:25.000Z</time>
      </trkpt>
      <trkpt lat="45.74458" lon="4.60202">
        <ele>675.1</ele>
        <time>2021-02-08T10:36:30.000Z</time>
      </trkpt>
      <trkpt lat="45.74452" lon="4.60215">
        <ele>675.9</ele>
        <time>2021-02-08T10:36:35.000Z</time>
      </trkpt>
      <trkpt lat="45.74447" lon="4.60226">
        <ele>676.6</ele>
        <time>2021-02-08T10:36:40.000Z</time>
      </trkpt>
      <trkpt lat="45.74441" lon="4.60239">
        <ele>677.3</ele>
        <time>2021-02-08T10:36:45.000Z</time>
      </trkpt>
      <trkpt lat="45.74434" lon="4.60252">
        <ele>678.1</ele>
        <time>2021-02-08T10:36:50.000Z</time>
      </trkpt>
      <trkpt lat="45.74428" lon="4.60262">
        <ele>678.7</ele>
        <time>2021-02-08T10:36:54.000Z</time>
      </trkpt>
      <trkpt lat="45.74421" lon="4.60272">
        <ele>679.3</ele>
        <time>2021-02-08T10:36:58.000Z</time>
      </trkpt>
      <trkpt lat="45.74415" lon="4.60283">
        <ele>680</ele>
        <time>2021-02-08T10:37:02.000Z</time>
      </trkpt>
      <trkpt lat="45.74412" lon="4.60297">
        <ele>680.7</ele>
        <time>2021-02-08T10:37:07.000Z</time>
      </trkpt>
      <trkpt lat="45.74414" lon="4.60313">
        <ele>681.5</ele>
        <time>2021-02-08T10:37:12.000Z</time>
      </trkpt>
      <trkpt lat="45.74418" lon="4.60325">
        <ele>682.1</ele>
        <time>2021-02-08T10:37:16.000Z</time>
      </trkpt>
      <trkpt lat="45.74423" lon="4.60336">
        <ele>682.7</ele>
        <time>2021-02-08T10:37:20.000Z</time>
      </trkpt>
      <trkpt lat="45.74428" lon="4.60347">
        <ele>683.3</ele>
        <time>2021-02-08T10:37:24.000Z</time>
      </trkpt>
      <trkpt lat="45.74434" lon="4.60357">
        <ele>683.9</ele>
        <time>2021-02-08T10:37:28.000Z</time>
      </trkpt>
      <trkpt lat="45.7444" lon="4.60371">
        <ele>684.6</ele>
        <time>2021-02-08T10:37:33.000Z</time>
      </trkpt>
      <trkpt lat="45.74445" lon="4.60385">
        <ele>685.2</ele>
        <time>2021-02-08T10:37:38.000Z</time>
      </trkpt>
      <trkpt lat="45.7445" lon="4.60396">
        <ele>685.8</ele>
        <time>2021-02-08T10:37:42.000Z</time>
      </trkpt>
      <trkpt lat="45.74456" lon="4.60407">
        <ele>686.4</ele>
        <time>2021-02-08T10:37:46.000Z</time>
      </trkpt>
      <trkpt lat="45.74462" lon="4.60417">
        <ele>687.1</ele>
        <time>2021-02-08T10:37:50.000Z</time>
      </trkpt>
      <trkpt lat="45.74467" lon="4.60431">
        <ele>687.9</ele>
        <time>2021-02-08T10:37:55.000Z</time>
      </trkpt>
      <trkpt lat="45.74474" lon="4.60443">
        <ele>688.7</ele>
        <time>2021-02-08T10:38:00.000Z</time>
      </trkpt>
      <trkpt lat="45.7448" lon="4.60454">
        <ele>689.4</ele>
        <time>2021-02-08T10:38:04.000Z</time>
      </trkpt>
      <trkpt lat="45.74485" lon="4.60464">
        <ele>690</ele>
        <time>2021-02-08T10:38:08.000Z</time>
      </trkpt>
      <trkpt lat="45.74491" lon="4.60474">
        <ele>690.7</ele>
        <time>2021-02-08T10:38:12.000Z</time>
      </trkpt>
      <trkpt lat="45.74497" lon="4.60485">
        <ele>691.4</ele>
        <time>2021-02-08T10:38:16.000Z</time>
      </trkpt>
      <trkpt lat="45.74503" lon="4.60495">
        <ele>692.1</ele>
        <time>2021-02-08T10:38:20.000Z</time>
      </trkpt>
      <trkpt lat="45.74508" lon="4.60506">
        <ele>692.7</ele>
        <time>2021-02-08T10:38:24.000Z</time>
      </trkpt>
      <trkpt lat="45.74513" lon="4.60519">
        <ele>693.4</ele>
        <time>2021-02-08T10:38:28.000Z</time>
      </trkpt>
      <trkpt lat="45.74517" lon="4.60531">
        <ele>694.1</ele>
        <time>2021-02-08T10:38:32.000Z</time>
      </trkpt>
      <trkpt lat="45.74521" lon="4.60544">
        <ele>694.8</ele>
        <time>2021-02-08T10:38:36.000Z</time>
      </trkpt>
      <trkpt lat="45.74526" lon="4.60557">
        <ele>695.5</ele>
        <time>2021-02-08T10:38:40.000Z</time>
      </trkpt>
      <trkpt lat="45.74531" lon="4.6057">
        <ele>696.2</ele>
        <time>2021-02-08T10:38:44.000Z</time>
      </trkpt>
      <trkpt lat="45.74536" lon="4.60582">
        <ele>696.9</ele>
        <time>2021-02-08T10:38:48.000Z</time>
      </trkpt>
      <trkpt lat="45.74541" lon="4.60595">
        <ele>697.6</ele>
        <time>2021-02-08T10:38:52.000Z</time>
      </trkpt>
      <trkpt lat="45.74546" lon="4.60607">
        <ele>698.4</ele>
        <time>2021-02-08T10:38:56.000Z</time>
      </trkpt>
      <trkpt lat="45.74551" lon="4.6062">
        <ele>699.1</ele>
        <time>2021-02-08T10:39:00.000Z</time>
      </trkpt>
      <trkpt lat="45.74555" lon="4.60633">
        <ele>699.8</ele>
        <time>2021-02-08T10:39:04.000Z</time>
      </trkpt>
      <trkpt lat="45.7456" lon="4.60645">
        <ele>700.5</ele>
        <time>2021-02-08T10:39:08.000Z</time>
      </trkpt>
      <trkpt lat="45.74565" lon="4.60657">
        <ele>701.2</ele>
        <time>2021-02-08T10:39:12.000Z</time>
      </trkpt>
      <trkpt lat="45.7457" lon="4.60671">
        <ele>701.9</ele>
        <time>2021-02-08T10:39:16.000Z</time>
      </trkpt>
      <trkpt lat="45.74573" lon="4.60684">
        <ele>702.6</ele>
        <time>2021-02-08T10:39:20.000Z</time>
      </trkpt>
      <trkpt lat="45.74576" lon="4.60698">
        <ele>703.4</ele>
        <time>2021-02-08T10:39:24.000Z</time>
      </trkpt>
      <trkpt lat="45.74578" lon="4.60712">
        <ele>704.1</ele>
        <time>2021-02-08T10:39:28.000Z</time>
      </trkpt>
      <trkpt lat="45.7458" lon="4.60726">
        <ele>704.8</ele>
        <time>2021-02-08T10:39:32.000Z</time>
      </trkpt>
      <trkpt lat="45.74581" lon="4.60741">
        <ele>705.6</ele>
        <time>2021-02-08T10:39:36.000Z</time>
      </trkpt>
      <trkpt lat="45.74582" lon="4.60755">
        <ele>706.3</ele>
        <time>2021-02-08T10:39:40.000Z</time>
      </trkpt>
      <trkpt lat="45.74585" lon="4.60769">
        <ele>707</ele>
        <time>2021-02-08T10:39:44.000Z</time>
      </trkpt>
      <trkpt lat="45.74586" lon="4.60784">
        <ele>707.7</ele>
        <time>2021-02-08T10:39:48.000Z</time>
      </trkpt>
      <trkpt lat="45.74587" lon="4.60798">
        <ele>708.4</ele>
        <time>2021-02-08T10:39:52.000Z</time>
      </trkpt>
      <trkpt lat="45.74589" lon="4.60812">
        <ele>709.1</ele>
        <time>2021-02-08T10:39:56.000Z</time>
      </trkpt>
      <trkpt lat="45.74592" lon="4.60826">
        <ele>709.8</ele>
        <time>2021-02-08T10:40:00.000Z</time>
      </trkpt>
      <trkpt lat="45.74594" lon="4.6084">
        <ele>710.5</ele>
        <time>2021-02-08T10:40:04.000Z</time>
      </trkpt>
      <trkpt lat="45.74597" lon="4.60854">
        <ele>711.2</ele>
        <time>2021-02-08T10:40:08.000Z</time>
      </trkpt>
      <trkpt lat="45.74599" lon="4.60869">
        <ele>711.9</ele>
        <time>2021-02-08T10:40:12.000Z</time>
      </trkpt>
      <trkpt lat="45.74601" lon="4.60883">
        <ele>712.7</ele>
        <time>2021-02-08T10:40:16.000Z</time>
      </trkpt>
      <trkpt lat="45.74605" lon="4.60896">
        <ele>713.4</ele>
        <time>2021-02-08T10:40:20.000Z</time>
      </trkpt>
      <trkpt lat="45.74609" lon="4.6091">
        <ele>714.2</ele>
        <time>2021-02-08T10:40:25.000Z</time>
      </trkpt>
      <trkpt lat="45.74614" lon="4.60924">
        <ele>715</ele>
        <time>2021-02-08T10:40:30.000Z</time>
      </trkpt>
      <trkpt lat="45.74619" lon="4.60937">
        <ele>715.8</ele>
        <time>2021-02-08T10:40:35.000Z</time>
      </trkpt>
      <trkpt lat="45.74625" lon="4.60948">
        <ele>716.4</ele>
        <time>2021-02-08T10:40:39.000Z</time>
      </trkpt>
      <trkpt lat="45.74631" lon="4.60958">
        <ele>717.1</ele>
        <time>2021-02-08T10:40:43.000Z</time>
      </trkpt>
      <trkpt lat="45.74636" lon="4.60969">
        <ele>717.8</ele>
        <time>2021-02-08T10:40:47.000Z</time>
      </trkpt>
      <trkpt lat="45.74641" lon="4.60979">
        <ele>718.4</ele>
        <time>2021-02-08T10:40:51.000Z</time>
      </trkpt>
      <trkpt lat="45.74647" lon="4.6099">
        <ele>719</ele>
        <time>2021-02-08T10:40:55.000Z</time>
      </trkpt>
      <trkpt lat="45.74654" lon="4.61001">
        <ele>719.7</ele>
        <time>2021-02-08T10:40:59.000Z</time>
      </trkpt>
      <trkpt lat="45.74659" lon="4.61012">
        <ele>720.3</ele>
        <time>2021-02-08T10:41:03.000Z</time>
      </trkpt>
      <trkpt lat="45.74665" lon="4.61022">
        <ele>720.9</ele>
        <time>2021-02-08T10:41:07.000Z</time>
      </trkpt>
      <trkpt lat="45.74672" lon="4.61033">
        <ele>721.6</ele>
        <time>2021-02-08T10:41:11.000Z</time>
      </trkpt>
      <trkpt lat="45.7468" lon="4.61042">
        <ele>722.3</ele>
        <time>2021-02-08T10:41:15.000Z</time>
      </trkpt>
      <trkpt lat="45.74687" lon="4.61051">
        <ele>723</ele>
        <time>2021-02-08T10:41:19.000Z</time>
      </trkpt>
      <trkpt lat="45.74695" lon="4.61059">
        <ele>723.7</ele>
        <time>2021-02-08T10:41:23.000Z</time>
      </trkpt>
      <trkpt lat="45.74702" lon="4.61068">
        <ele>724.5</ele>
        <time>2021-02-08T10:41:27.000Z</time>
      </trkpt>
      <trkpt lat="45.7471" lon="4.61076">
        <ele>725.3</ele>
        <time>2021-02-08T10:41:31.000Z</time>
      </trkpt>
      <trkpt lat="45.74717" lon="4.61085">
        <ele>726.1</ele>
        <time>2021-02-08T10:41:35.000Z</time>
      </trkpt>
      <trkpt lat="45.74724" lon="4.61094">
        <ele>726.9</ele>
        <time>2021-02-08T10:41:39.000Z</time>
      </trkpt>
      <trkpt lat="45.74732" lon="4.61102">
        <ele>727.7</ele>
        <time>2021-02-08T10:41:43.000Z</time>
      </trkpt>
      <trkpt lat="45.74739" lon="4.6111">
        <ele>728.4</ele>
        <time>2021-02-08T10:41:47.000Z</time>
      </trkpt>
      <trkpt lat="45.74748" lon="4.61118">
        <ele>729.2</ele>
        <time>2021-02-08T10:41:51.000Z</time>
      </trkpt>
      <trkpt lat="45.74755" lon="4.61125">
        <ele>729.8</ele>
        <time>2021-02-08T10:41:55.000Z</time>
      </trkpt>
      <trkpt lat="45.74765" lon="4.61131">
        <ele>730.8</ele>
        <time>2021-02-08T10:41:59.000Z</time>
      </trkpt>
      <trkpt lat="45.74774" lon="4.61129">
        <ele>730</ele>
        <time>2021-02-08T10:42:03.000Z</time>
      </trkpt>
      <trkpt lat="45.74782" lon="4.61119">
        <ele>729.5</ele>
        <time>2021-02-08T10:42:06.000Z</time>
      </trkpt>
      <trkpt lat="45.74792" lon="4.61108">
        <ele>729</ele>
        <time>2021-02-08T10:42:09.000Z</time>
      </trkpt>
      <trkpt lat="45.74801" lon="4.61098">
        <ele>728.4</ele>
        <time>2021-02-08T10:42:12.000Z</time>
      </trkpt>
      <trkpt lat="45.74808" lon="4.61085">
        <ele>727.5</ele>
        <time>2021-02-08T10:42:15.000Z</time>
      </trkpt>
      <trkpt lat="45.74813" lon="4.61068">
        <ele>726.1</ele>
        <time>2021-02-08T10:42:18.000Z</time>
      </trkpt>
      <trkpt lat="45.74819" lon="4.61052">
        <ele>724.3</ele>
        <time>2021-02-08T10:42:20.000Z</time>
      </trkpt>
      <trkpt lat="45.74828" lon="4.61036">
        <ele>722.1</ele>
        <time>2021-02-08T10:42:22.000Z</time>
      </trkpt>
      <trkpt lat="45.74835" lon="4.61019">
        <ele>720</ele>
        <time>2021-02-08T10:42:24.000Z</time>
      </trkpt>
      <trkpt lat="45.74843" lon="4.60999">
        <ele>717.6</ele>
        <time>2021-02-08T10:42:26.000Z</time>
      </trkpt>
      <trkpt lat="45.74851" lon="4.60976">
        <ele>715.2</ele>
        <time>2021-02-08T10:42:28.000Z</time>
      </trkpt>
      <trkpt lat="45.74855" lon="4.60963">
        <ele>714</ele>
        <time>2021-02-08T10:42:29.000Z</time>
      </trkpt>
      <trkpt lat="45.7486" lon="4.6095">
        <ele>713</ele>
        <time>2021-02-08T10:42:30.000Z</time>
      </trkpt>
      <trkpt lat="45.74864" lon="4.60938">
        <ele>712</ele>
        <time>2021-02-08T10:42:31.000Z</time>
      </trkpt>
      <trkpt lat="45.74867" lon="4.60926">
        <ele>710.9</ele>
        <time>2021-02-08T10:42:32.000Z</time>
      </trkpt>
      <trkpt lat="45.74874" lon="4.60901">
        <ele>708.5</ele>
        <time>2021-02-08T10:42:34.000Z</time>
      </trkpt>
      <trkpt lat="45.74877" lon="4.60889">
        <ele>707.2</ele>
        <time>2021-02-08T10:42:35.000Z</time>
      </trkpt>
      <trkpt lat="45.74881" lon="4.60877">
        <ele>706.1</ele>
        <time>2021-02-08T10:42:36.000Z</time>
      </trkpt>
      <trkpt lat="45.74888" lon="4.60858">
        <ele>704.2</ele>
        <time>2021-02-08T10:42:38.000Z</time>
      </trkpt>
      <trkpt lat="45.74892" lon="4.60842">
        <ele>702.9</ele>
        <time>2021-02-08T10:42:40.000Z</time>
      </trkpt>
      <trkpt lat="45.74893" lon="4.60828">
        <ele>701.7</ele>
        <time>2021-02-08T10:42:42.000Z</time>
      </trkpt>
      <trkpt lat="45.74898" lon="4.60813">
        <ele>700.4</ele>
        <time>2021-02-08T10:42:44.000Z</time>
      </trkpt>
      <trkpt lat="45.74906" lon="4.60798">
        <ele>698.6</ele>
        <time>2021-02-08T10:42:46.000Z</time>
      </trkpt>
      <trkpt lat="45.74915" lon="4.60784">
        <ele>696.7</ele>
        <time>2021-02-08T10:42:48.000Z</time>
      </trkpt>
      <trkpt lat="45.74922" lon="4.60773">
        <ele>695.1</ele>
        <time>2021-02-08T10:42:50.000Z</time>
      </trkpt>
      <trkpt lat="45.74921" lon="4.60758">
        <ele>694.1</ele>
        <time>2021-02-08T10:42:53.000Z</time>
      </trkpt>
      <trkpt lat="45.74912" lon="4.60762">
        <ele>693.8</ele>
        <time>2021-02-08T10:42:57.000Z</time>
      </trkpt>
      <trkpt lat="45.749" lon="4.6077">
        <ele>693</ele>
        <time>2021-02-08T10:43:00.000Z</time>
      </trkpt>
      <trkpt lat="45.74888" lon="4.60779">
        <ele>692.1</ele>
        <time>2021-02-08T10:43:02.000Z</time>
      </trkpt>
      <trkpt lat="45.74878" lon="4.60788">
        <ele>691.4</ele>
        <time>2021-02-08T10:43:04.000Z</time>
      </trkpt>
      <trkpt lat="45.74869" lon="4.60798">
        <ele>690.6</ele>
        <time>2021-02-08T10:43:06.000Z</time>
      </trkpt>
      <trkpt lat="45.74861" lon="4.60811">
        <ele>689.7</ele>
        <time>2021-02-08T10:43:08.000Z</time>
      </trkpt>
      <trkpt lat="45.74855" lon="4.60825">
        <ele>688.7</ele>
        <time>2021-02-08T10:43:10.000Z</time>
      </trkpt>
      <trkpt lat="45.74846" lon="4.60834">
        <ele>687.6</ele>
        <time>2021-02-08T10:43:12.000Z</time>
      </trkpt>
      <trkpt lat="45.74837" lon="4.60846">
        <ele>686.2</ele>
        <time>2021-02-08T10:43:14.000Z</time>
      </trkpt>
      <trkpt lat="45.74827" lon="4.60856">
        <ele>684.6</ele>
        <time>2021-02-08T10:43:16.000Z</time>
      </trkpt>
      <trkpt lat="45.74813" lon="4.60864">
        <ele>682.8</ele>
        <time>2021-02-08T10:43:18.000Z</time>
      </trkpt>
      <trkpt lat="45.748" lon="4.6087">
        <ele>681.6</ele>
        <time>2021-02-08T10:43:20.000Z</time>
      </trkpt>
      <trkpt lat="45.74791" lon="4.60876">
        <ele>680.9</ele>
        <time>2021-02-08T10:43:22.000Z</time>
      </trkpt>
      <trkpt lat="45.74783" lon="4.60882">
        <ele>680.5</ele>
        <time>2021-02-08T10:43:24.000Z</time>
      </trkpt>
      <trkpt lat="45.74774" lon="4.60887">
        <ele>680.1</ele>
        <time>2021-02-08T10:43:27.000Z</time>
      </trkpt>
      <trkpt lat="45.74779" lon="4.6087">
        <ele>677.9</ele>
        <time>2021-02-08T10:43:31.000Z</time>
      </trkpt>
      <trkpt lat="45.74781" lon="4.60853">
        <ele>674.6</ele>
        <time>2021-02-08T10:43:34.000Z</time>
      </trkpt>
      <trkpt lat="45.74782" lon="4.60838">
        <ele>671.3</ele>
        <time>2021-02-08T10:43:37.000Z</time>
      </trkpt>
      <trkpt lat="45.74783" lon="4.60822">
        <ele>669.5</ele>
        <time>2021-02-08T10:43:39.000Z</time>
      </trkpt>
      <trkpt lat="45.7479" lon="4.60808">
        <ele>667.4</ele>
        <time>2021-02-08T10:43:42.000Z</time>
      </trkpt>
      <trkpt lat="45.74787" lon="4.6079">
        <ele>664.2</ele>
        <time>2021-02-08T10:43:45.000Z</time>
      </trkpt>
      <trkpt lat="45.74792" lon="4.60774">
        <ele>663.2</ele>
        <time>2021-02-08T10:43:48.000Z</time>
      </trkpt>
      <trkpt lat="45.74798" lon="4.60764">
        <ele>662.1</ele>
        <time>2021-02-08T10:43:50.000Z</time>
      </trkpt>
      <trkpt lat="45.74799" lon="4.60748">
        <ele>660.2</ele>
        <time>2021-02-08T10:43:54.000Z</time>
      </trkpt>
      <trkpt lat="45.74799" lon="4.60734">
        <ele>657.7</ele>
        <time>2021-02-08T10:43:56.000Z</time>
      </trkpt>
      <trkpt lat="45.74799" lon="4.60718">
        <ele>655.5</ele>
        <time>2021-02-08T10:43:58.000Z</time>
      </trkpt>
      <trkpt lat="45.74793" lon="4.60705">
        <ele>652.6</ele>
        <time>2021-02-08T10:44:01.000Z</time>
      </trkpt>
      <trkpt lat="45.74788" lon="4.60686">
        <ele>648.3</ele>
        <time>2021-02-08T10:44:04.000Z</time>
      </trkpt>
      <trkpt lat="45.7479" lon="4.60672">
        <ele>645.7</ele>
        <time>2021-02-08T10:44:06.000Z</time>
      </trkpt>
      <trkpt lat="45.74792" lon="4.60659">
        <ele>643.1</ele>
        <time>2021-02-08T10:44:09.000Z</time>
      </trkpt>
      <trkpt lat="45.7479" lon="4.60645">
        <ele>640.8</ele>
        <time>2021-02-08T10:44:16.000Z</time>
      </trkpt>
      <trkpt lat="45.7479" lon="4.60644">
        <ele>640.1</ele>
        <time>2021-02-08T10:44:19.000Z</time>
      </trkpt>
      <trkpt lat="45.7479" lon="4.60644">
        <ele>640.2</ele>
        <time>2021-02-08T10:44:20.000Z</time>
      </trkpt>
      <trkpt lat="45.74791" lon="4.6064">
        <ele>639.3</ele>
        <time>2021-02-08T10:44:25.000Z</time>
      </trkpt>
      <trkpt lat="45.74791" lon="4.6064">
        <ele>639.5</ele>
        <time>2021-02-08T10:44:27.000Z</time>
      </trkpt>
      <trkpt lat="45.74792" lon="4.6064">
        <ele>639.5</ele>
        <time>2021-02-08T10:44:30.000Z</time>
      </trkpt>
      <trkpt lat="45.74792" lon="4.60641">
        <ele>640.3</ele>
        <time>2021-02-08T10:44:31.000Z</time>
      </trkpt>
      <trkpt lat="45.74799" lon="4.60632">
        <ele>637.7</ele>
        <time>2021-02-08T10:44:38.000Z</time>
      </trkpt>
      <trkpt lat="45.74797" lon="4.60614">
        <ele>634.7</ele>
        <time>2021-02-08T10:44:42.000Z</time>
      </trkpt>
      <trkpt lat="45.7479" lon="4.606">
        <ele>632.9</ele>
        <time>2021-02-08T10:44:45.000Z</time>
      </trkpt>
      <trkpt lat="45.74782" lon="4.60589">
        <ele>631.4</ele>
        <time>2021-02-08T10:44:48.000Z</time>
      </trkpt>
      <trkpt lat="45.74776" lon="4.60576">
        <ele>630.8</ele>
        <time>2021-02-08T10:44:51.000Z</time>
      </trkpt>
      <trkpt lat="45.74775" lon="4.60563">
        <ele>628.8</ele>
        <time>2021-02-08T10:44:54.000Z</time>
      </trkpt>
      <trkpt lat="45.74771" lon="4.60549">
        <ele>627.7</ele>
        <time>2021-02-08T10:44:56.000Z</time>
      </trkpt>
      <trkpt lat="45.74764" lon="4.60534">
        <ele>627.8</ele>
        <time>2021-02-08T10:44:59.000Z</time>
      </trkpt>
      <trkpt lat="45.74758" lon="4.60521">
        <ele>627.4</ele>
        <time>2021-02-08T10:45:01.000Z</time>
      </trkpt>
      <trkpt lat="45.74752" lon="4.6051">
        <ele>628.6</ele>
        <time>2021-02-08T10:45:03.000Z</time>
      </trkpt>
      <trkpt lat="45.74744" lon="4.60499">
        <ele>629.4</ele>
        <time>2021-02-08T10:45:07.000Z</time>
      </trkpt>
      <trkpt lat="45.74737" lon="4.60487">
        <ele>630.6</ele>
        <time>2021-02-08T10:45:11.000Z</time>
      </trkpt>
      <trkpt lat="45.74728" lon="4.60482">
        <ele>632.3</ele>
        <time>2021-02-08T10:45:16.000Z</time>
      </trkpt>
      <trkpt lat="45.7472" lon="4.60474">
        <ele>633.7</ele>
        <time>2021-02-08T10:45:23.000Z</time>
      </trkpt>
      <trkpt lat="45.74723" lon="4.60456">
        <ele>633</ele>
        <time>2021-02-08T10:45:27.000Z</time>
      </trkpt>
      <trkpt lat="45.74724" lon="4.60441">
        <ele>632.6</ele>
        <time>2021-02-08T10:45:30.000Z</time>
      </trkpt>
      <trkpt lat="45.7473" lon="4.60428">
        <ele>630.4</ele>
        <time>2021-02-08T10:45:34.000Z</time>
      </trkpt>
      <trkpt lat="45.74733" lon="4.60415">
        <ele>628.8</ele>
        <time>2021-02-08T10:45:38.000Z</time>
      </trkpt>
      <trkpt lat="45.74736" lon="4.60402">
        <ele>627.4</ele>
        <time>2021-02-08T10:45:44.000Z</time>
      </trkpt>
      <trkpt lat="45.74741" lon="4.60391">
        <ele>625.9</ele>
        <time>2021-02-08T10:45:51.000Z</time>
      </trkpt>
      <trkpt lat="45.74751" lon="4.60385">
        <ele>624</ele>
        <time>2021-02-08T10:45:58.000Z</time>
      </trkpt>
      <trkpt lat="45.74759" lon="4.60374">
        <ele>621.8</ele>
        <time>2021-02-08T10:46:02.000Z</time>
      </trkpt>
      <trkpt lat="45.74759" lon="4.6036">
        <ele>621.2</ele>
        <time>2021-02-08T10:46:05.000Z</time>
      </trkpt>
      <trkpt lat="45.74767" lon="4.60348">
        <ele>619.4</ele>
        <time>2021-02-08T10:46:08.000Z</time>
      </trkpt>
      <trkpt lat="45.74778" lon="4.6035">
        <ele>616.6</ele>
        <time>2021-02-08T10:46:11.000Z</time>
      </trkpt>
      <trkpt lat="45.74789" lon="4.60352">
        <ele>613.3</ele>
        <time>2021-02-08T10:46:15.000Z</time>
      </trkpt>
      <trkpt lat="45.74798" lon="4.60344">
        <ele>610.2</ele>
        <time>2021-02-08T10:46:18.000Z</time>
      </trkpt>
      <trkpt lat="45.74803" lon="4.60332">
        <ele>607.9</ele>
        <time>2021-02-08T10:46:20.000Z</time>
      </trkpt>
      <trkpt lat="45.74813" lon="4.60324">
        <ele>604.2</ele>
        <time>2021-02-08T10:46:22.000Z</time>
      </trkpt>
      <trkpt lat="45.74823" lon="4.60314">
        <ele>600.8</ele>
        <time>2021-02-08T10:46:24.000Z</time>
      </trkpt>
      <trkpt lat="45.74834" lon="4.60302">
        <ele>596.1</ele>
        <time>2021-02-08T10:46:26.000Z</time>
      </trkpt>
      <trkpt lat="45.74845" lon="4.60291">
        <ele>591.3</ele>
        <time>2021-02-08T10:46:28.000Z</time>
      </trkpt>
      <trkpt lat="45.74856" lon="4.60281">
        <ele>588.1</ele>
        <time>2021-02-08T10:46:30.000Z</time>
      </trkpt>
      <trkpt lat="45.74866" lon="4.60272">
        <ele>584.8</ele>
        <time>2021-02-08T10:46:32.000Z</time>
      </trkpt>
      <trkpt lat="45.74874" lon="4.60262">
        <ele>581.8</ele>
        <time>2021-02-08T10:46:34.000Z</time>
      </trkpt>
      <trkpt lat="45.74886" lon="4.60257">
        <ele>579.3</ele>
        <time>2021-02-08T10:46:37.000Z</time>
      </trkpt>
      <trkpt lat="45.74885" lon="4.60242">
        <ele>578</ele>
        <time>2021-02-08T10:46:40.000Z</time>
      </trkpt>
      <trkpt lat="45.74889" lon="4.60228">
        <ele>575.6</ele>
        <time>2021-02-08T10:46:43.000Z</time>
      </trkpt>
      <trkpt lat="45.74889" lon="4.60214">
        <ele>574.2</ele>
        <time>2021-02-08T10:46:46.000Z</time>
      </trkpt>
      <trkpt lat="45.74899" lon="4.60205">
        <ele>571.6</ele>
        <time>2021-02-08T10:46:49.000Z</time>
      </trkpt>
      <trkpt lat="45.74904" lon="4.60192">
        <ele>569.7</ele>
        <time>2021-02-08T10:46:52.000Z</time>
      </trkpt>
      <trkpt lat="45.74896" lon="4.60179">
        <ele>568.6</ele>
        <time>2021-02-08T10:46:55.000Z</time>
      </trkpt>
      <trkpt lat="45.74884" lon="4.60179">
        <ele>570.8</ele>
        <time>2021-02-08T10:46:58.000Z</time>
      </trkpt>
      <trkpt lat="45.74875" lon="4.60177">
        <ele>571.6</ele>
        <time>2021-02-08T10:47:00.000Z</time>
      </trkpt>
      <trkpt lat="45.74866" lon="4.60175">
        <ele>573.2</ele>
        <time>2021-02-08T10:47:03.000Z</time>
      </trkpt>
      <trkpt lat="45.74862" lon="4.60162">
        <ele>572</ele>
        <time>2021-02-08T10:47:07.000Z</time>
      </trkpt>
      <trkpt lat="45.74858" lon="4.60148">
        <ele>570.9</ele>
        <time>2021-02-08T10:47:12.000Z</time>
      </trkpt>
      <trkpt lat="45.74853" lon="4.60135">
        <ele>570.3</ele>
        <time>2021-02-08T10:47:22.000Z</time>
      </trkpt>
      <trkpt lat="45.74844" lon="4.6013">
        <ele>570.7</ele>
        <time>2021-02-08T10:47:26.000Z</time>
      </trkpt>
      <trkpt lat="45.7485" lon="4.60116">
        <ele>568.5</ele>
        <time>2021-02-08T10:47:35.000Z</time>
      </trkpt>
      <trkpt lat="45.74857" lon="4.60108">
        <ele>566</ele>
        <time>2021-02-08T10:47:38.000Z</time>
      </trkpt>
      <trkpt lat="45.74865" lon="4.60102">
        <ele>564.2</ele>
        <time>2021-02-08T10:47:40.000Z</time>
      </trkpt>
      <trkpt lat="45.74874" lon="4.60095">
        <ele>561.7</ele>
        <time>2021-02-08T10:47:42.000Z</time>
      </trkpt>
      <trkpt lat="45.74883" lon="4.60088">
        <ele>559.8</ele>
        <time>2021-02-08T10:47:44.000Z</time>
      </trkpt>
      <trkpt lat="45.74888" lon="4.60077">
        <ele>557.9</ele>
        <time>2021-02-08T10:47:47.000Z</time>
      </trkpt>
      <trkpt lat="45.74896" lon="4.60068">
        <ele>555.8</ele>
        <time>2021-02-08T10:47:51.000Z</time>
      </trkpt>
      <trkpt lat="45.74906" lon="4.60065">
        <ele>554</ele>
        <time>2021-02-08T10:47:53.000Z</time>
      </trkpt>
      <trkpt lat="45.74917" lon="4.60065">
        <ele>551.8</ele>
        <time>2021-02-08T10:47:55.000Z</time>
      </trkpt>
      <trkpt lat="45.74925" lon="4.60072">
        <ele>552.5</ele>
        <time>2021-02-08T10:47:57.000Z</time>
      </trkpt>
      <trkpt lat="45.74931" lon="4.60084">
        <ele>553.1</ele>
        <time>2021-02-08T10:48:00.000Z</time>
      </trkpt>
      <trkpt lat="45.7494" lon="4.6009">
        <ele>553.7</ele>
        <time>2021-02-08T10:48:05.000Z</time>
      </trkpt>
      <trkpt lat="45.74949" lon="4.60094">
        <ele>554.2</ele>
        <time>2021-02-08T10:48:10.000Z</time>
      </trkpt>
      <trkpt lat="45.74959" lon="4.601">
        <ele>554.6</ele>
        <time>2021-02-08T10:48:15.000Z</time>
      </trkpt>
      <trkpt lat="45.74968" lon="4.60105">
        <ele>554.9</ele>
        <time>2021-02-08T10:48:20.000Z</time>
      </trkpt>
      <trkpt lat="45.74979" lon="4.60108">
        <ele>555.3</ele>
        <time>2021-02-08T10:48:25.000Z</time>
      </trkpt>
      <trkpt lat="45.74988" lon="4.60109">
        <ele>555.6</ele>
        <time>2021-02-08T10:48:29.000Z</time>
      </trkpt>
      <trkpt lat="45.74998" lon="4.60113">
        <ele>556</ele>
        <time>2021-02-08T10:48:33.000Z</time>
      </trkpt>
      <trkpt lat="45.75007" lon="4.60115">
        <ele>556.3</ele>
        <time>2021-02-08T10:48:37.000Z</time>
      </trkpt>
      <trkpt lat="45.75017" lon="4.60117">
        <ele>556.6</ele>
        <time>2021-02-08T10:48:41.000Z</time>
      </trkpt>
      <trkpt lat="45.75027" lon="4.6012">
        <ele>556.9</ele>
        <time>2021-02-08T10:48:45.000Z</time>
      </trkpt>
      <trkpt lat="45.75037" lon="4.6012">
        <ele>557.3</ele>
        <time>2021-02-08T10:48:49.000Z</time>
      </trkpt>
      <trkpt lat="45.75047" lon="4.60122">
        <ele>557.7</ele>
        <time>2021-02-08T10:48:53.000Z</time>
      </trkpt>
      <trkpt lat="45.75057" lon="4.60125">
        <ele>558.2</ele>
        <time>2021-02-08T10:48:57.000Z</time>
      </trkpt>
      <trkpt lat="45.75066" lon="4.60129">
        <ele>558.7</ele>
        <time>2021-02-08T10:49:01.000Z</time>
      </trkpt>
      <trkpt lat="45.75074" lon="4.60138">
        <ele>559.9</ele>
        <time>2021-02-08T10:49:07.000Z</time>
      </trkpt>
      <trkpt lat="45.75083" lon="4.60143">
        <ele>561.3</ele>
        <time>2021-02-08T10:49:14.000Z</time>
      </trkpt>
      <trkpt lat="45.75088" lon="4.60154">
        <ele>562.8</ele>
        <time>2021-02-08T10:49:21.000Z</time>
      </trkpt>
      <trkpt lat="45.75087" lon="4.60167">
        <ele>564.4</ele>
        <time>2021-02-08T10:49:28.000Z</time>
      </trkpt>
      <trkpt lat="45.75084" lon="4.6018">
        <ele>566</ele>
        <time>2021-02-08T10:49:36.000Z</time>
      </trkpt>
      <trkpt lat="45.75079" lon="4.60192">
        <ele>567.4</ele>
        <time>2021-02-08T10:49:43.000Z</time>
      </trkpt>
      <trkpt lat="45.75072" lon="4.60201">
        <ele>568.7</ele>
        <time>2021-02-08T10:49:50.000Z</time>
      </trkpt>
      <trkpt lat="45.75064" lon="4.6021">
        <ele>570.1</ele>
        <time>2021-02-08T10:49:57.000Z</time>
      </trkpt>
      <trkpt lat="45.75056" lon="4.60215">
        <ele>571.2</ele>
        <time>2021-02-08T10:50:04.000Z</time>
      </trkpt>
      <trkpt lat="45.75048" lon="4.60223">
        <ele>572.3</ele>
        <time>2021-02-08T10:50:11.000Z</time>
      </trkpt>
      <trkpt lat="45.75043" lon="4.60235">
        <ele>573.3</ele>
        <time>2021-02-08T10:50:18.000Z</time>
      </trkpt>
      <trkpt lat="45.75037" lon="4.60245">
        <ele>574.5</ele>
        <time>2021-02-08T10:50:25.000Z</time>
      </trkpt>
      <trkpt lat="45.75033" lon="4.60258">
        <ele>575.9</ele>
        <time>2021-02-08T10:50:32.000Z</time>
      </trkpt>
      <trkpt lat="45.75028" lon="4.6027">
        <ele>577.5</ele>
        <time>2021-02-08T10:50:40.000Z</time>
      </trkpt>
      <trkpt lat="45.75025" lon="4.60283">
        <ele>579.3</ele>
        <time>2021-02-08T10:50:48.000Z</time>
      </trkpt>
      <trkpt lat="45.75021" lon="4.60295">
        <ele>581</ele>
        <time>2021-02-08T10:50:57.000Z</time>
      </trkpt>
      <trkpt lat="45.75016" lon="4.60306">
        <ele>582.6</ele>
        <time>2021-02-08T10:51:05.000Z</time>
      </trkpt>
      <trkpt lat="45.75021" lon="4.60318">
        <ele>583.9</ele>
        <time>2021-02-08T10:51:14.000Z</time>
      </trkpt>
      <trkpt lat="45.7503" lon="4.60315">
        <ele>585.1</ele>
        <time>2021-02-08T10:51:21.000Z</time>
      </trkpt>
      <trkpt lat="45.75037" lon="4.60308">
        <ele>586.3</ele>
        <time>2021-02-08T10:51:27.000Z</time>
      </trkpt>
      <trkpt lat="45.75045" lon="4.60301">
        <ele>587.6</ele>
        <time>2021-02-08T10:51:34.000Z</time>
      </trkpt>
      <trkpt lat="45.75054" lon="4.60296">
        <ele>589.1</ele>
        <time>2021-02-08T10:51:43.000Z</time>
      </trkpt>
      <trkpt lat="45.75064" lon="4.60293">
        <ele>590.8</ele>
        <time>2021-02-08T10:51:52.000Z</time>
      </trkpt>
      <trkpt lat="45.75074" lon="4.60293">
        <ele>592.5</ele>
        <time>2021-02-08T10:52:01.000Z</time>
      </trkpt>
      <trkpt lat="45.75083" lon="4.60296">
        <ele>594</ele>
        <time>2021-02-08T10:52:13.000Z</time>
      </trkpt>
      <trkpt lat="45.75083" lon="4.60296">
        <ele>594</ele>
        <time>2021-02-08T10:52:18.000Z</time>
      </trkpt>
      <trkpt lat="45.75084" lon="4.60297">
        <ele>594.1</ele>
        <time>2021-02-08T10:52:21.000Z</time>
      </trkpt>
      <trkpt lat="45.75084" lon="4.60297">
        <ele>594.2</ele>
        <time>2021-02-08T10:52:22.000Z</time>
      </trkpt>
      <trkpt lat="45.75084" lon="4.60297">
        <ele>594.2</ele>
        <time>2021-02-08T10:52:23.000Z</time>
      </trkpt>
      <trkpt lat="45.75084" lon="4.60297">
        <ele>594.2</ele>
        <time>2021-02-08T10:52:26.000Z</time>
      </trkpt>
      <trkpt lat="45.75091" lon="4.60299">
        <ele>595.2</ele>
        <time>2021-02-08T10:52:40.000Z</time>
      </trkpt>
      <trkpt lat="45.75091" lon="4.60299">
        <ele>595.2</ele>
        <time>2021-02-08T10:52:41.000Z</time>
      </trkpt>
      <trkpt lat="45.75091" lon="4.60299">
        <ele>595.2</ele>
        <time>2021-02-08T10:52:42.000Z</time>
      </trkpt>
      <trkpt lat="45.75091" lon="4.603">
        <ele>595.3</ele>
        <time>2021-02-08T10:52:49.000Z</time>
      </trkpt>
      <trkpt lat="45.75099" lon="4.60308">
        <ele>596.6</ele>
        <time>2021-02-08T10:52:57.000Z</time>
      </trkpt>
      <trkpt lat="45.75109" lon="4.60312">
        <ele>598.1</ele>
        <time>2021-02-08T10:53:07.000Z</time>
      </trkpt>
      <trkpt lat="45.75118" lon="4.60318">
        <ele>599.4</ele>
        <time>2021-02-08T10:53:14.000Z</time>
      </trkpt>
      <trkpt lat="45.75127" lon="4.60323">
        <ele>601</ele>
        <time>2021-02-08T10:53:21.000Z</time>
      </trkpt>
      <trkpt lat="45.75136" lon="4.60327">
        <ele>602.6</ele>
        <time>2021-02-08T10:53:31.000Z</time>
      </trkpt>
      <trkpt lat="45.75145" lon="4.60331">
        <ele>604</ele>
        <time>2021-02-08T10:53:40.000Z</time>
      </trkpt>
      <trkpt lat="45.75154" lon="4.60336">
        <ele>605.4</ele>
        <time>2021-02-08T10:53:49.000Z</time>
      </trkpt>
      <trkpt lat="45.75157" lon="4.60339">
        <ele>606</ele>
        <time>2021-02-08T10:53:55.000Z</time>
      </trkpt>
      <trkpt lat="45.75157" lon="4.6034">
        <ele>606</ele>
        <time>2021-02-08T10:53:56.000Z</time>
      </trkpt>
      <trkpt lat="45.75166" lon="4.60342">
        <ele>607.2</ele>
        <time>2021-02-08T10:54:08.000Z</time>
      </trkpt>
      <trkpt lat="45.75168" lon="4.60343">
        <ele>607.6</ele>
        <time>2021-02-08T10:54:12.000Z</time>
      </trkpt>
      <trkpt lat="45.75169" lon="4.60343">
        <ele>607.6</ele>
        <time>2021-02-08T10:54:17.000Z</time>
      </trkpt>
      <trkpt lat="45.75177" lon="4.60349">
        <ele>609</ele>
        <time>2021-02-08T10:54:25.000Z</time>
      </trkpt>
      <trkpt lat="45.75186" lon="4.60355">
        <ele>610.5</ele>
        <time>2021-02-08T10:54:34.000Z</time>
      </trkpt>
      <trkpt lat="45.75196" lon="4.60355">
        <ele>612</ele>
        <time>2021-02-08T10:54:43.000Z</time>
      </trkpt>
      <trkpt lat="45.75204" lon="4.6035">
        <ele>613.5</ele>
        <time>2021-02-08T10:54:50.000Z</time>
      </trkpt>
      <trkpt lat="45.75213" lon="4.60344">
        <ele>615</ele>
        <time>2021-02-08T10:54:59.000Z</time>
      </trkpt>
      <trkpt lat="45.75221" lon="4.60337">
        <ele>616.4</ele>
        <time>2021-02-08T10:55:08.000Z</time>
      </trkpt>
      <trkpt lat="45.7523" lon="4.60333">
        <ele>617.8</ele>
        <time>2021-02-08T10:55:16.000Z</time>
      </trkpt>
      <trkpt lat="45.7524" lon="4.60332">
        <ele>619.1</ele>
        <time>2021-02-08T10:55:23.000Z</time>
      </trkpt>
      <trkpt lat="45.7525" lon="4.60332">
        <ele>620.5</ele>
        <time>2021-02-08T10:55:31.000Z</time>
      </trkpt>
      <trkpt lat="45.75259" lon="4.60326">
        <ele>621.9</ele>
        <time>2021-02-08T10:55:39.000Z</time>
      </trkpt>
      <trkpt lat="45.75269" lon="4.60323">
        <ele>623.3</ele>
        <time>2021-02-08T10:55:48.000Z</time>
      </trkpt>
      <trkpt lat="45.75278" lon="4.60328">
        <ele>624.7</ele>
        <time>2021-02-08T10:55:55.000Z</time>
      </trkpt>
      <trkpt lat="45.75287" lon="4.60335">
        <ele>626.1</ele>
        <time>2021-02-08T10:56:03.000Z</time>
      </trkpt>
      <trkpt lat="45.75295" lon="4.60342">
        <ele>627.6</ele>
        <time>2021-02-08T10:56:11.000Z</time>
      </trkpt>
      <trkpt lat="45.753" lon="4.60355">
        <ele>629.2</ele>
        <time>2021-02-08T10:56:20.000Z</time>
      </trkpt>
      <trkpt lat="45.75298" lon="4.60368">
        <ele>630.8</ele>
        <time>2021-02-08T10:56:30.000Z</time>
      </trkpt>
      <trkpt lat="45.75289" lon="4.60373">
        <ele>632.5</ele>
        <time>2021-02-08T10:56:40.000Z</time>
      </trkpt>
      <trkpt lat="45.7528" lon="4.60379">
        <ele>634.1</ele>
        <time>2021-02-08T10:56:48.000Z</time>
      </trkpt>
      <trkpt lat="45.75273" lon="4.60386">
        <ele>635.5</ele>
        <time>2021-02-08T10:56:55.000Z</time>
      </trkpt>
      <trkpt lat="45.75268" lon="4.60398">
        <ele>637</ele>
        <time>2021-02-08T10:57:06.000Z</time>
      </trkpt>
      <trkpt lat="45.75265" lon="4.60411">
        <ele>638.6</ele>
        <time>2021-02-08T10:57:15.000Z</time>
      </trkpt>
      <trkpt lat="45.75263" lon="4.60425">
        <ele>640.2</ele>
        <time>2021-02-08T10:57:24.000Z</time>
      </trkpt>
      <trkpt lat="45.75262" lon="4.60439">
        <ele>642</ele>
        <time>2021-02-08T10:57:34.000Z</time>
      </trkpt>
      <trkpt lat="45.75262" lon="4.60452">
        <ele>643.5</ele>
        <time>2021-02-08T10:57:44.000Z</time>
      </trkpt>
      <trkpt lat="45.75262" lon="4.60467">
        <ele>645.1</ele>
        <time>2021-02-08T10:57:55.000Z</time>
      </trkpt>
      <trkpt lat="45.75264" lon="4.60479">
        <ele>646.4</ele>
        <time>2021-02-08T10:58:02.000Z</time>
      </trkpt>
      <trkpt lat="45.75267" lon="4.60493">
        <ele>647.7</ele>
        <time>2021-02-08T10:58:09.000Z</time>
      </trkpt>
      <trkpt lat="45.75272" lon="4.60504">
        <ele>648.6</ele>
        <time>2021-02-08T10:58:17.000Z</time>
      </trkpt>
      <trkpt lat="45.75278" lon="4.60515">
        <ele>649.3</ele>
        <time>2021-02-08T10:58:24.000Z</time>
      </trkpt>
      <trkpt lat="45.75282" lon="4.60526">
        <ele>649.8</ele>
        <time>2021-02-08T10:58:29.000Z</time>
      </trkpt>
      <trkpt lat="45.75286" lon="4.6054">
        <ele>650.5</ele>
        <time>2021-02-08T10:58:35.000Z</time>
      </trkpt>
      <trkpt lat="45.7529" lon="4.60554">
        <ele>651.2</ele>
        <time>2021-02-08T10:58:41.000Z</time>
      </trkpt>
      <trkpt lat="45.75293" lon="4.60567">
        <ele>651.8</ele>
        <time>2021-02-08T10:58:46.000Z</time>
      </trkpt>
      <trkpt lat="45.75296" lon="4.60579">
        <ele>652.5</ele>
        <time>2021-02-08T10:58:51.000Z</time>
      </trkpt>
      <trkpt lat="45.75297" lon="4.60594">
        <ele>653.2</ele>
        <time>2021-02-08T10:58:57.000Z</time>
      </trkpt>
      <trkpt lat="45.75299" lon="4.60608">
        <ele>654</ele>
        <time>2021-02-08T10:59:02.000Z</time>
      </trkpt>
      <trkpt lat="45.75298" lon="4.60622">
        <ele>654.7</ele>
        <time>2021-02-08T10:59:07.000Z</time>
      </trkpt>
      <trkpt lat="45.75297" lon="4.60636">
        <ele>655.5</ele>
        <time>2021-02-08T10:59:12.000Z</time>
      </trkpt>
      <trkpt lat="45.75298" lon="4.60649">
        <ele>656.4</ele>
        <time>2021-02-08T10:59:17.000Z</time>
      </trkpt>
      <trkpt lat="45.75298" lon="4.60663">
        <ele>657.3</ele>
        <time>2021-02-08T10:59:23.000Z</time>
      </trkpt>
      <trkpt lat="45.75299" lon="4.60676">
        <ele>658.2</ele>
        <time>2021-02-08T10:59:31.000Z</time>
      </trkpt>
      <trkpt lat="45.75299" lon="4.60689">
        <ele>659.2</ele>
        <time>2021-02-08T10:59:38.000Z</time>
      </trkpt>
      <trkpt lat="45.75297" lon="4.60703">
        <ele>660.1</ele>
        <time>2021-02-08T10:59:45.000Z</time>
      </trkpt>
      <trkpt lat="45.75297" lon="4.60717">
        <ele>661.2</ele>
        <time>2021-02-08T10:59:52.000Z</time>
      </trkpt>
      <trkpt lat="45.753" lon="4.60731">
        <ele>662.2</ele>
        <time>2021-02-08T10:59:59.000Z</time>
      </trkpt>
      <trkpt lat="45.75302" lon="4.60745">
        <ele>663.3</ele>
        <time>2021-02-08T11:00:06.000Z</time>
      </trkpt>
      <trkpt lat="45.75302" lon="4.60759">
        <ele>664.7</ele>
        <time>2021-02-08T11:00:15.000Z</time>
      </trkpt>
      <trkpt lat="45.75303" lon="4.60771">
        <ele>666</ele>
        <time>2021-02-08T11:00:23.000Z</time>
      </trkpt>
      <trkpt lat="45.75305" lon="4.60785">
        <ele>667.6</ele>
        <time>2021-02-08T11:00:32.000Z</time>
      </trkpt>
      <trkpt lat="45.75308" lon="4.60798">
        <ele>669.1</ele>
        <time>2021-02-08T11:00:40.000Z</time>
      </trkpt>
      <trkpt lat="45.75309" lon="4.60811">
        <ele>670.5</ele>
        <time>2021-02-08T11:00:48.000Z</time>
      </trkpt>
      <trkpt lat="45.75311" lon="4.60824">
        <ele>671.8</ele>
        <time>2021-02-08T11:00:56.000Z</time>
      </trkpt>
      <trkpt lat="45.75312" lon="4.60837">
        <ele>672.9</ele>
        <time>2021-02-08T11:01:03.000Z</time>
      </trkpt>
      <trkpt lat="45.75314" lon="4.60851">
        <ele>673.9</ele>
        <time>2021-02-08T11:01:10.000Z</time>
      </trkpt>
      <trkpt lat="45.75318" lon="4.60863">
        <ele>674.8</ele>
        <time>2021-02-08T11:01:16.000Z</time>
      </trkpt>
      <trkpt lat="45.75321" lon="4.60875">
        <ele>675.7</ele>
        <time>2021-02-08T11:01:23.000Z</time>
      </trkpt>
      <trkpt lat="45.75327" lon="4.60887">
        <ele>676.8</ele>
        <time>2021-02-08T11:01:31.000Z</time>
      </trkpt>
      <trkpt lat="45.75332" lon="4.609">
        <ele>677.8</ele>
        <time>2021-02-08T11:01:39.000Z</time>
      </trkpt>
      <trkpt lat="45.75335" lon="4.60913">
        <ele>678.6</ele>
        <time>2021-02-08T11:01:45.000Z</time>
      </trkpt>
      <trkpt lat="45.75338" lon="4.60926">
        <ele>679.7</ele>
        <time>2021-02-08T11:01:52.000Z</time>
      </trkpt>
      <trkpt lat="45.75343" lon="4.60938">
        <ele>680.9</ele>
        <time>2021-02-08T11:01:59.000Z</time>
      </trkpt>
      <trkpt lat="45.75348" lon="4.60951">
        <ele>682</ele>
        <time>2021-02-08T11:02:07.000Z</time>
      </trkpt>
      <trkpt lat="45.75355" lon="4.6096">
        <ele>683</ele>
        <time>2021-02-08T11:02:14.000Z</time>
      </trkpt>
      <trkpt lat="45.75363" lon="4.60967">
        <ele>684.1</ele>
        <time>2021-02-08T11:02:21.000Z</time>
      </trkpt>
      <trkpt lat="45.75372" lon="4.6097">
        <ele>685</ele>
        <time>2021-02-08T11:02:28.000Z</time>
      </trkpt>
      <trkpt lat="45.75382" lon="4.60974">
        <ele>686</ele>
        <time>2021-02-08T11:02:35.000Z</time>
      </trkpt>
      <trkpt lat="45.75391" lon="4.60979">
        <ele>687</ele>
        <time>2021-02-08T11:02:41.000Z</time>
      </trkpt>
      <trkpt lat="45.75397" lon="4.60989">
        <ele>687.9</ele>
        <time>2021-02-08T11:02:46.000Z</time>
      </trkpt>
      <trkpt lat="45.75403" lon="4.60999">
        <ele>688.9</ele>
        <time>2021-02-08T11:02:53.000Z</time>
      </trkpt>
      <trkpt lat="45.75411" lon="4.61009">
        <ele>690.1</ele>
        <time>2021-02-08T11:03:01.000Z</time>
      </trkpt>
      <trkpt lat="45.75419" lon="4.61015">
        <ele>691.2</ele>
        <time>2021-02-08T11:03:09.000Z</time>
      </trkpt>
      <trkpt lat="45.75425" lon="4.61026">
        <ele>692.5</ele>
        <time>2021-02-08T11:03:19.000Z</time>
      </trkpt>
      <trkpt lat="45.75434" lon="4.61029">
        <ele>693.2</ele>
        <time>2021-02-08T11:03:25.000Z</time>
      </trkpt>
      <trkpt lat="45.75443" lon="4.61033">
        <ele>693.3</ele>
        <time>2021-02-08T11:03:30.000Z</time>
      </trkpt>
      <trkpt lat="45.75451" lon="4.61039">
        <ele>693.9</ele>
        <time>2021-02-08T11:03:35.000Z</time>
      </trkpt>
      <trkpt lat="45.7546" lon="4.61044">
        <ele>694.8</ele>
        <time>2021-02-08T11:03:42.000Z</time>
      </trkpt>
      <trkpt lat="45.75469" lon="4.61051">
        <ele>695.7</ele>
        <time>2021-02-08T11:03:50.000Z</time>
      </trkpt>
      <trkpt lat="45.75477" lon="4.61057">
        <ele>696.7</ele>
        <time>2021-02-08T11:03:57.000Z</time>
      </trkpt>
      <trkpt lat="45.75485" lon="4.61065">
        <ele>697.7</ele>
        <time>2021-02-08T11:04:04.000Z</time>
      </trkpt>
      <trkpt lat="45.75485" lon="4.61065">
        <ele>697.7</ele>
        <time>2021-02-08T11:04:06.000Z</time>
      </trkpt>
      <trkpt lat="45.75486" lon="4.61066">
        <ele>697.8</ele>
        <time>2021-02-08T11:04:07.000Z</time>
      </trkpt>
      <trkpt lat="45.75494" lon="4.61072">
        <ele>698.8</ele>
        <time>2021-02-08T11:04:12.000Z</time>
      </trkpt>
      <trkpt lat="45.75502" lon="4.6108">
        <ele>699.9</ele>
        <time>2021-02-08T11:04:18.000Z</time>
      </trkpt>
      <trkpt lat="45.75511" lon="4.61086">
        <ele>701</ele>
        <time>2021-02-08T11:04:26.000Z</time>
      </trkpt>
      <trkpt lat="45.7552" lon="4.61093">
        <ele>702</ele>
        <time>2021-02-08T11:04:35.000Z</time>
      </trkpt>
      <trkpt lat="45.75529" lon="4.611">
        <ele>702.5</ele>
        <time>2021-02-08T11:04:43.000Z</time>
      </trkpt>
      <trkpt lat="45.75539" lon="4.61106">
        <ele>702.8</ele>
        <time>2021-02-08T11:04:48.000Z</time>
      </trkpt>
      <trkpt lat="45.75547" lon="4.61113">
        <ele>702.9</ele>
        <time>2021-02-08T11:04:53.000Z</time>
      </trkpt>
      <trkpt lat="45.75556" lon="4.61119">
        <ele>703</ele>
        <time>2021-02-08T11:04:58.000Z</time>
      </trkpt>
      <trkpt lat="45.75564" lon="4.61129">
        <ele>703.3</ele>
        <time>2021-02-08T11:05:03.000Z</time>
      </trkpt>
      <trkpt lat="45.75571" lon="4.61137">
        <ele>703.5</ele>
        <time>2021-02-08T11:05:08.000Z</time>
      </trkpt>
      <trkpt lat="45.75579" lon="4.61144">
        <ele>703.8</ele>
        <time>2021-02-08T11:05:12.000Z</time>
      </trkpt>
      <trkpt lat="45.75587" lon="4.61153">
        <ele>704.1</ele>
        <time>2021-02-08T11:05:16.000Z</time>
      </trkpt>
      <trkpt lat="45.75593" lon="4.61162">
        <ele>704.5</ele>
        <time>2021-02-08T11:05:20.000Z</time>
      </trkpt>
      <trkpt lat="45.75601" lon="4.6117">
        <ele>705</ele>
        <time>2021-02-08T11:05:25.000Z</time>
      </trkpt>
      <trkpt lat="45.75609" lon="4.6118">
        <ele>705.5</ele>
        <time>2021-02-08T11:05:30.000Z</time>
      </trkpt>
      <trkpt lat="45.75616" lon="4.61191">
        <ele>706</ele>
        <time>2021-02-08T11:05:35.000Z</time>
      </trkpt>
      <trkpt lat="45.75623" lon="4.61201">
        <ele>706.4</ele>
        <time>2021-02-08T11:05:40.000Z</time>
      </trkpt>
      <trkpt lat="45.75632" lon="4.61209">
        <ele>706.9</ele>
        <time>2021-02-08T11:05:45.000Z</time>
      </trkpt>
      <trkpt lat="45.75641" lon="4.61215">
        <ele>707.4</ele>
        <time>2021-02-08T11:05:49.000Z</time>
      </trkpt>
      <trkpt lat="45.75649" lon="4.61225">
        <ele>707.8</ele>
        <time>2021-02-08T11:05:54.000Z</time>
      </trkpt>
      <trkpt lat="45.75657" lon="4.61235">
        <ele>708.3</ele>
        <time>2021-02-08T11:05:59.000Z</time>
      </trkpt>
      <trkpt lat="45.75665" lon="4.61246">
        <ele>708.8</ele>
        <time>2021-02-08T11:06:04.000Z</time>
      </trkpt>
      <trkpt lat="45.75672" lon="4.61258">
        <ele>709.4</ele>
        <time>2021-02-08T11:06:09.000Z</time>
      </trkpt>
      <trkpt lat="45.75678" lon="4.6127">
        <ele>710.2</ele>
        <time>2021-02-08T11:06:14.000Z</time>
      </trkpt>
      <trkpt lat="45.75685" lon="4.61282">
        <ele>711</ele>
        <time>2021-02-08T11:06:19.000Z</time>
      </trkpt>
      <trkpt lat="45.75692" lon="4.61293">
        <ele>711.9</ele>
        <time>2021-02-08T11:06:24.000Z</time>
      </trkpt>
      <trkpt lat="45.757" lon="4.61301">
        <ele>712.7</ele>
        <time>2021-02-08T11:06:29.000Z</time>
      </trkpt>
      <trkpt lat="45.75705" lon="4.61314">
        <ele>713.5</ele>
        <time>2021-02-08T11:06:35.000Z</time>
      </trkpt>
      <trkpt lat="45.7571" lon="4.61326">
        <ele>714.2</ele>
        <time>2021-02-08T11:06:40.000Z</time>
      </trkpt>
      <trkpt lat="45.75717" lon="4.61338">
        <ele>715</ele>
        <time>2021-02-08T11:06:45.000Z</time>
      </trkpt>
      <trkpt lat="45.75721" lon="4.61349">
        <ele>715.5</ele>
        <time>2021-02-08T11:06:49.000Z</time>
      </trkpt>
      <trkpt lat="45.75726" lon="4.61364">
        <ele>716.1</ele>
        <time>2021-02-08T11:06:54.000Z</time>
      </trkpt>
      <trkpt lat="45.75728" lon="4.61379">
        <ele>716.3</ele>
        <time>2021-02-08T11:06:59.000Z</time>
      </trkpt>
      <trkpt lat="45.7573" lon="4.61395">
        <ele>716.5</ele>
        <time>2021-02-08T11:07:03.000Z</time>
      </trkpt>
      <trkpt lat="45.75731" lon="4.6141">
        <ele>716.6</ele>
        <time>2021-02-08T11:07:07.000Z</time>
      </trkpt>
      <trkpt lat="45.7573" lon="4.61424">
        <ele>716.9</ele>
        <time>2021-02-08T11:07:11.000Z</time>
      </trkpt>
      <trkpt lat="45.75728" lon="4.61438">
        <ele>717.4</ele>
        <time>2021-02-08T11:07:16.000Z</time>
      </trkpt>
      <trkpt lat="45.75726" lon="4.61451">
        <ele>718.1</ele>
        <time>2021-02-08T11:07:21.000Z</time>
      </trkpt>
      <trkpt lat="45.75725" lon="4.61465">
        <ele>719.1</ele>
        <time>2021-02-08T11:07:27.000Z</time>
      </trkpt>
      <trkpt lat="45.75722" lon="4.61478">
        <ele>720.1</ele>
        <time>2021-02-08T11:07:34.000Z</time>
      </trkpt>
      <trkpt lat="45.75719" lon="4.61492">
        <ele>721.2</ele>
        <time>2021-02-08T11:07:41.000Z</time>
      </trkpt>
      <trkpt lat="45.75718" lon="4.61506">
        <ele>722.3</ele>
        <time>2021-02-08T11:07:48.000Z</time>
      </trkpt>
      <trkpt lat="45.75716" lon="4.61519">
        <ele>723.4</ele>
        <time>2021-02-08T11:07:55.000Z</time>
      </trkpt>
      <trkpt lat="45.75715" lon="4.61533">
        <ele>724.6</ele>
        <time>2021-02-08T11:08:02.000Z</time>
      </trkpt>
      <trkpt lat="45.75715" lon="4.61548">
        <ele>725.9</ele>
        <time>2021-02-08T11:08:10.000Z</time>
      </trkpt>
      <trkpt lat="45.75714" lon="4.61562">
        <ele>727.1</ele>
        <time>2021-02-08T11:08:17.000Z</time>
      </trkpt>
      <trkpt lat="45.75715" lon="4.61576">
        <ele>728.4</ele>
        <time>2021-02-08T11:08:24.000Z</time>
      </trkpt>
      <trkpt lat="45.75715" lon="4.61591">
        <ele>729.7</ele>
        <time>2021-02-08T11:08:32.000Z</time>
      </trkpt>
      <trkpt lat="45.75714" lon="4.61604">
        <ele>730.9</ele>
        <time>2021-02-08T11:08:40.000Z</time>
      </trkpt>
      <trkpt lat="45.75712" lon="4.61617">
        <ele>732.2</ele>
        <time>2021-02-08T11:08:49.000Z</time>
      </trkpt>
      <trkpt lat="45.75711" lon="4.6163">
        <ele>733.6</ele>
        <time>2021-02-08T11:08:57.000Z</time>
      </trkpt>
      <trkpt lat="45.75709" lon="4.61643">
        <ele>735.1</ele>
        <time>2021-02-08T11:09:05.000Z</time>
      </trkpt>
      <trkpt lat="45.75706" lon="4.61655">
        <ele>736.5</ele>
        <time>2021-02-08T11:09:14.000Z</time>
      </trkpt>
      <trkpt lat="45.75701" lon="4.61668">
        <ele>738.1</ele>
        <time>2021-02-08T11:09:24.000Z</time>
      </trkpt>
      <trkpt lat="45.75694" lon="4.61676">
        <ele>739.7</ele>
        <time>2021-02-08T11:09:34.000Z</time>
      </trkpt>
      <trkpt lat="45.75686" lon="4.61668">
        <ele>741.1</ele>
        <time>2021-02-08T11:09:42.000Z</time>
      </trkpt>
      <trkpt lat="45.75681" lon="4.61656">
        <ele>742.3</ele>
        <time>2021-02-08T11:09:50.000Z</time>
      </trkpt>
      <trkpt lat="45.75677" lon="4.61643">
        <ele>743.5</ele>
        <time>2021-02-08T11:09:58.000Z</time>
      </trkpt>
      <trkpt lat="45.75673" lon="4.6163">
        <ele>744.6</ele>
        <time>2021-02-08T11:10:06.000Z</time>
      </trkpt>
      <trkpt lat="45.75669" lon="4.61618">
        <ele>745.6</ele>
        <time>2021-02-08T11:10:13.000Z</time>
      </trkpt>
      <trkpt lat="45.75664" lon="4.61606">
        <ele>746.7</ele>
        <time>2021-02-08T11:10:20.000Z</time>
      </trkpt>
      <trkpt lat="45.75656" lon="4.61597">
        <ele>748</ele>
        <time>2021-02-08T11:10:28.000Z</time>
      </trkpt>
      <trkpt lat="45.75647" lon="4.61599">
        <ele>748.7</ele>
        <time>2021-02-08T11:10:36.000Z</time>
      </trkpt>
      <trkpt lat="45.75647" lon="4.61612">
        <ele>749.2</ele>
        <time>2021-02-08T11:10:43.000Z</time>
      </trkpt>
      <trkpt lat="45.75645" lon="4.61625">
        <ele>749.7</ele>
        <time>2021-02-08T11:10:50.000Z</time>
      </trkpt>
      <trkpt lat="45.75642" lon="4.6164">
        <ele>750.3</ele>
        <time>2021-02-08T11:10:57.000Z</time>
      </trkpt>
      <trkpt lat="45.75639" lon="4.61652">
        <ele>750.7</ele>
        <time>2021-02-08T11:11:02.000Z</time>
      </trkpt>
      <trkpt lat="45.75637" lon="4.61667">
        <ele>751.2</ele>
        <time>2021-02-08T11:11:08.000Z</time>
      </trkpt>
      <trkpt lat="45.75634" lon="4.61679">
        <ele>751.4</ele>
        <time>2021-02-08T11:11:13.000Z</time>
      </trkpt>
      <trkpt lat="45.75629" lon="4.6169">
        <ele>751.5</ele>
        <time>2021-02-08T11:11:18.000Z</time>
      </trkpt>
      <trkpt lat="45.75622" lon="4.617">
        <ele>751.5</ele>
        <time>2021-02-08T11:11:23.000Z</time>
      </trkpt>
      <trkpt lat="45.7562" lon="4.61714">
        <ele>751.6</ele>
        <time>2021-02-08T11:11:29.000Z</time>
      </trkpt>
      <trkpt lat="45.75621" lon="4.6173">
        <ele>751.7</ele>
        <time>2021-02-08T11:11:34.000Z</time>
      </trkpt>
      <trkpt lat="45.75621" lon="4.61744">
        <ele>751.8</ele>
        <time>2021-02-08T11:11:38.000Z</time>
      </trkpt>
      <trkpt lat="45.75623" lon="4.61759">
        <ele>751.9</ele>
        <time>2021-02-08T11:11:42.000Z</time>
      </trkpt>
      <trkpt lat="45.75626" lon="4.61774">
        <ele>756.8</ele>
        <time>2021-02-08T11:11:46.000Z</time>
      </trkpt>
      <trkpt lat="45.75628" lon="4.61788">
        <ele>757.4</ele>
        <time>2021-02-08T11:11:50.000Z</time>
      </trkpt>
      <trkpt lat="45.7563" lon="4.61803">
        <ele>758.1</ele>
        <time>2021-02-08T11:11:57.000Z</time>
      </trkpt>
      <trkpt lat="45.75632" lon="4.61816">
        <ele>758.7</ele>
        <time>2021-02-08T11:12:03.000Z</time>
      </trkpt>
      <trkpt lat="45.75635" lon="4.6183">
        <ele>759.4</ele>
        <time>2021-02-08T11:12:08.000Z</time>
      </trkpt>
      <trkpt lat="45.75632" lon="4.61845">
        <ele>759.9</ele>
        <time>2021-02-08T11:12:13.000Z</time>
      </trkpt>
      <trkpt lat="45.75636" lon="4.61856">
        <ele>760.4</ele>
        <time>2021-02-08T11:12:18.000Z</time>
      </trkpt>
      <trkpt lat="45.75643" lon="4.61865">
        <ele>760.8</ele>
        <time>2021-02-08T11:12:23.000Z</time>
      </trkpt>
      <trkpt lat="45.7565" lon="4.61875">
        <ele>761.2</ele>
        <time>2021-02-08T11:12:28.000Z</time>
      </trkpt>
      <trkpt lat="45.75655" lon="4.61888">
        <ele>761.6</ele>
        <time>2021-02-08T11:12:33.000Z</time>
      </trkpt>
      <trkpt lat="45.75658" lon="4.61903">
        <ele>762.1</ele>
        <time>2021-02-08T11:12:38.000Z</time>
      </trkpt>
      <trkpt lat="45.75661" lon="4.61917">
        <ele>762.4</ele>
        <time>2021-02-08T11:12:43.000Z</time>
      </trkpt>
      <trkpt lat="45.75664" lon="4.61932">
        <ele>762.8</ele>
        <time>2021-02-08T11:12:48.000Z</time>
      </trkpt>
      <trkpt lat="45.75667" lon="4.61948">
        <ele>763.1</ele>
        <time>2021-02-08T11:12:53.000Z</time>
      </trkpt>
      <trkpt lat="45.75668" lon="4.61961">
        <ele>763.2</ele>
        <time>2021-02-08T11:12:57.000Z</time>
      </trkpt>
      <trkpt lat="45.7567" lon="4.61976">
        <ele>763.4</ele>
        <time>2021-02-08T11:13:02.000Z</time>
      </trkpt>
      <trkpt lat="45.75674" lon="4.61991">
        <ele>763.6</ele>
        <time>2021-02-08T11:13:07.000Z</time>
      </trkpt>
      <trkpt lat="45.75675" lon="4.62007">
        <ele>763.7</ele>
        <time>2021-02-08T11:13:12.000Z</time>
      </trkpt>
      <trkpt lat="45.75675" lon="4.62023">
        <ele>763.8</ele>
        <time>2021-02-08T11:13:16.000Z</time>
      </trkpt>
      <trkpt lat="45.75677" lon="4.62036">
        <ele>763.8</ele>
        <time>2021-02-08T11:13:19.000Z</time>
      </trkpt>
      <trkpt lat="45.75679" lon="4.62052">
        <ele>764</ele>
        <time>2021-02-08T11:13:23.000Z</time>
      </trkpt>
      <trkpt lat="45.7568" lon="4.62065">
        <ele>764.1</ele>
        <time>2021-02-08T11:13:26.000Z</time>
      </trkpt>
      <trkpt lat="45.75681" lon="4.62079">
        <ele>764.3</ele>
        <time>2021-02-08T11:13:29.000Z</time>
      </trkpt>
      <trkpt lat="45.75682" lon="4.62092">
        <ele>764.4</ele>
        <time>2021-02-08T11:13:32.000Z</time>
      </trkpt>
      <trkpt lat="45.75685" lon="4.62108">
        <ele>764.6</ele>
        <time>2021-02-08T11:13:36.000Z</time>
      </trkpt>
      <trkpt lat="45.75684" lon="4.62125">
        <ele>764.7</ele>
        <time>2021-02-08T11:13:40.000Z</time>
      </trkpt>
      <trkpt lat="45.75686" lon="4.62137">
        <ele>764.9</ele>
        <time>2021-02-08T11:13:43.000Z</time>
      </trkpt>
      <trkpt lat="45.75688" lon="4.6215">
        <ele>765.2</ele>
        <time>2021-02-08T11:13:46.000Z</time>
      </trkpt>
      <trkpt lat="45.75691" lon="4.62165">
        <ele>765.7</ele>
        <time>2021-02-08T11:13:50.000Z</time>
      </trkpt>
      <trkpt lat="45.75697" lon="4.62177">
        <ele>766.4</ele>
        <time>2021-02-08T11:13:56.000Z</time>
      </trkpt>
      <trkpt lat="45.75703" lon="4.62186">
        <ele>766.9</ele>
        <time>2021-02-08T11:14:03.000Z</time>
      </trkpt>
      <trkpt lat="45.75704" lon="4.62186">
        <ele>766.9</ele>
        <time>2021-02-08T11:14:05.000Z</time>
      </trkpt>
      <trkpt lat="45.75704" lon="4.62186">
        <ele>766.9</ele>
        <time>2021-02-08T11:14:31.000Z</time>
      </trkpt>
      <trkpt lat="45.75709" lon="4.622">
        <ele>767.3</ele>
        <time>2021-02-08T11:14:39.000Z</time>
      </trkpt>
      <trkpt lat="45.75713" lon="4.62212">
        <ele>767.6</ele>
        <time>2021-02-08T11:14:44.000Z</time>
      </trkpt>
      <trkpt lat="45.75717" lon="4.62226">
        <ele>767.9</ele>
        <time>2021-02-08T11:14:49.000Z</time>
      </trkpt>
      <trkpt lat="45.75721" lon="4.62238">
        <ele>768.1</ele>
        <time>2021-02-08T11:14:53.000Z</time>
      </trkpt>
      <trkpt lat="45.75726" lon="4.62252">
        <ele>768.4</ele>
        <time>2021-02-08T11:14:58.000Z</time>
      </trkpt>
      <trkpt lat="45.75732" lon="4.62265">
        <ele>768.8</ele>
        <time>2021-02-08T11:15:03.000Z</time>
      </trkpt>
      <trkpt lat="45.75736" lon="4.62277">
        <ele>769.1</ele>
        <time>2021-02-08T11:15:08.000Z</time>
      </trkpt>
      <trkpt lat="45.75739" lon="4.62291">
        <ele>769.6</ele>
        <time>2021-02-08T11:15:13.000Z</time>
      </trkpt>
      <trkpt lat="45.75744" lon="4.62305">
        <ele>770.2</ele>
        <time>2021-02-08T11:15:18.000Z</time>
      </trkpt>
      <trkpt lat="45.75749" lon="4.62317">
        <ele>770.9</ele>
        <time>2021-02-08T11:15:23.000Z</time>
      </trkpt>
      <trkpt lat="45.75756" lon="4.62328">
        <ele>772</ele>
        <time>2021-02-08T11:15:29.000Z</time>
      </trkpt>
      <trkpt lat="45.75764" lon="4.62331">
        <ele>773.1</ele>
        <time>2021-02-08T11:15:36.000Z</time>
      </trkpt>
      <trkpt lat="45.75773" lon="4.62333">
        <ele>774.4</ele>
        <time>2021-02-08T11:15:43.000Z</time>
      </trkpt>
      <trkpt lat="45.75783" lon="4.62334">
        <ele>775.7</ele>
        <time>2021-02-08T11:15:52.000Z</time>
      </trkpt>
      <trkpt lat="45.75791" lon="4.62339">
        <ele>776.9</ele>
        <time>2021-02-08T11:15:59.000Z</time>
      </trkpt>
      <trkpt lat="45.758" lon="4.62343">
        <ele>777.9</ele>
        <time>2021-02-08T11:16:06.000Z</time>
      </trkpt>
      <trkpt lat="45.75809" lon="4.6235">
        <ele>778.8</ele>
        <time>2021-02-08T11:16:13.000Z</time>
      </trkpt>
      <trkpt lat="45.75816" lon="4.62358">
        <ele>779.5</ele>
        <time>2021-02-08T11:16:19.000Z</time>
      </trkpt>
      <trkpt lat="45.75825" lon="4.62363">
        <ele>779.6</ele>
        <time>2021-02-08T11:16:24.000Z</time>
      </trkpt>
      <trkpt lat="45.75834" lon="4.62367">
        <ele>779.5</ele>
        <time>2021-02-08T11:16:28.000Z</time>
      </trkpt>
      <trkpt lat="45.75846" lon="4.62369">
        <ele>779.1</ele>
        <time>2021-02-08T11:16:32.000Z</time>
      </trkpt>
      <trkpt lat="45.75858" lon="4.62369">
        <ele>778.5</ele>
        <time>2021-02-08T11:16:35.000Z</time>
      </trkpt>
      <trkpt lat="45.7587" lon="4.62372">
        <ele>777.7</ele>
        <time>2021-02-08T11:16:38.000Z</time>
      </trkpt>
      <trkpt lat="45.75883" lon="4.62378">
        <ele>776.8</ele>
        <time>2021-02-08T11:16:41.000Z</time>
      </trkpt>
      <trkpt lat="45.75893" lon="4.62385">
        <ele>775.7</ele>
        <time>2021-02-08T11:16:43.000Z</time>
      </trkpt>
      <trkpt lat="45.75902" lon="4.6239">
        <ele>774.4</ele>
        <time>2021-02-08T11:16:45.000Z</time>
      </trkpt>
      <trkpt lat="45.75916" lon="4.62383">
        <ele>771.5</ele>
        <time>2021-02-08T11:16:47.000Z</time>
      </trkpt>
      <trkpt lat="45.75927" lon="4.62374">
        <ele>768.5</ele>
        <time>2021-02-08T11:16:49.000Z</time>
      </trkpt>
      <trkpt lat="45.7594" lon="4.62375">
        <ele>766.3</ele>
        <time>2021-02-08T11:16:51.000Z</time>
      </trkpt>
      <trkpt lat="45.75948" lon="4.62384">
        <ele>766</ele>
        <time>2021-02-08T11:16:53.000Z</time>
      </trkpt>
      <trkpt lat="45.75951" lon="4.62397">
        <ele>765.8</ele>
        <time>2021-02-08T11:16:56.000Z</time>
      </trkpt>
      <trkpt lat="45.75955" lon="4.62411">
        <ele>765.7</ele>
        <time>2021-02-08T11:16:59.000Z</time>
      </trkpt>
      <trkpt lat="45.75958" lon="4.62426">
        <ele>765.7</ele>
        <time>2021-02-08T11:17:02.000Z</time>
      </trkpt>
      <trkpt lat="45.75962" lon="4.62442">
        <ele>765.7</ele>
        <time>2021-02-08T11:17:05.000Z</time>
      </trkpt>
      <trkpt lat="45.75967" lon="4.62458">
        <ele>765.6</ele>
        <time>2021-02-08T11:17:08.000Z</time>
      </trkpt>
      <trkpt lat="45.75972" lon="4.62473">
        <ele>765.5</ele>
        <time>2021-02-08T11:17:11.000Z</time>
      </trkpt>
      <trkpt lat="45.75978" lon="4.62488">
        <ele>765.3</ele>
        <time>2021-02-08T11:17:14.000Z</time>
      </trkpt>
      <trkpt lat="45.75982" lon="4.62505">
        <ele>765.1</ele>
        <time>2021-02-08T11:17:17.000Z</time>
      </trkpt>
      <trkpt lat="45.75986" lon="4.62523">
        <ele>764.8</ele>
        <time>2021-02-08T11:17:20.000Z</time>
      </trkpt>
      <trkpt lat="45.75991" lon="4.6254">
        <ele>764.2</ele>
        <time>2021-02-08T11:17:23.000Z</time>
      </trkpt>
      <trkpt lat="45.75996" lon="4.62551">
        <ele>763.4</ele>
        <time>2021-02-08T11:17:25.000Z</time>
      </trkpt>
      <trkpt lat="45.76004" lon="4.62561">
        <ele>762.3</ele>
        <time>2021-02-08T11:17:27.000Z</time>
      </trkpt>
      <trkpt lat="45.76014" lon="4.62574">
        <ele>760.8</ele>
        <time>2021-02-08T11:17:29.000Z</time>
      </trkpt>
      <trkpt lat="45.76023" lon="4.62585">
        <ele>759.8</ele>
        <time>2021-02-08T11:17:31.000Z</time>
      </trkpt>
      <trkpt lat="45.76037" lon="4.62592">
        <ele>758.7</ele>
        <time>2021-02-08T11:17:33.000Z</time>
      </trkpt>
      <trkpt lat="45.7605" lon="4.62601">
        <ele>757.8</ele>
        <time>2021-02-08T11:17:35.000Z</time>
      </trkpt>
      <trkpt lat="45.76064" lon="4.62614">
        <ele>755.9</ele>
        <time>2021-02-08T11:17:37.000Z</time>
      </trkpt>
      <trkpt lat="45.76079" lon="4.62626">
        <ele>753.4</ele>
        <time>2021-02-08T11:17:39.000Z</time>
      </trkpt>
      <trkpt lat="45.76094" lon="4.62632">
        <ele>750.9</ele>
        <time>2021-02-08T11:17:41.000Z</time>
      </trkpt>
      <trkpt lat="45.76111" lon="4.62634">
        <ele>748.4</ele>
        <time>2021-02-08T11:17:43.000Z</time>
      </trkpt>
      <trkpt lat="45.76125" lon="4.62636">
        <ele>746.4</ele>
        <time>2021-02-08T11:17:45.000Z</time>
      </trkpt>
      <trkpt lat="45.76138" lon="4.62638">
        <ele>744.7</ele>
        <time>2021-02-08T11:17:47.000Z</time>
      </trkpt>
      <trkpt lat="45.76148" lon="4.62641">
        <ele>743.6</ele>
        <time>2021-02-08T11:17:49.000Z</time>
      </trkpt>
      <trkpt lat="45.76158" lon="4.62646">
        <ele>742.5</ele>
        <time>2021-02-08T11:17:51.000Z</time>
      </trkpt>
      <trkpt lat="45.76169" lon="4.62652">
        <ele>741.3</ele>
        <time>2021-02-08T11:17:53.000Z</time>
      </trkpt>
      <trkpt lat="45.76181" lon="4.62661">
        <ele>740</ele>
        <time>2021-02-08T11:17:55.000Z</time>
      </trkpt>
      <trkpt lat="45.76191" lon="4.62673">
        <ele>738.7</ele>
        <time>2021-02-08T11:17:57.000Z</time>
      </trkpt>
      <trkpt lat="45.7619" lon="4.62693">
        <ele>737.6</ele>
        <time>2021-02-08T11:18:00.000Z</time>
      </trkpt>
      <trkpt lat="45.76197" lon="4.62706">
        <ele>736.7</ele>
        <time>2021-02-08T11:18:03.000Z</time>
      </trkpt>
      <trkpt lat="45.76205" lon="4.62717">
        <ele>735.8</ele>
        <time>2021-02-08T11:18:05.000Z</time>
      </trkpt>
      <trkpt lat="45.76211" lon="4.62731">
        <ele>734.7</ele>
        <time>2021-02-08T11:18:07.000Z</time>
      </trkpt>
      <trkpt lat="45.76217" lon="4.62746">
        <ele>733.3</ele>
        <time>2021-02-08T11:18:09.000Z</time>
      </trkpt>
      <trkpt lat="45.76226" lon="4.62759">
        <ele>731.4</ele>
        <time>2021-02-08T11:18:11.000Z</time>
      </trkpt>
      <trkpt lat="45.76233" lon="4.6277">
        <ele>730</ele>
        <time>2021-02-08T11:18:13.000Z</time>
      </trkpt>
      <trkpt lat="45.7624" lon="4.62781">
        <ele>728.4</ele>
        <time>2021-02-08T11:18:15.000Z</time>
      </trkpt>
      <trkpt lat="45.76245" lon="4.62795">
        <ele>726.6</ele>
        <time>2021-02-08T11:18:17.000Z</time>
      </trkpt>
      <trkpt lat="45.76248" lon="4.62812">
        <ele>724.6</ele>
        <time>2021-02-08T11:18:19.000Z</time>
      </trkpt>
      <trkpt lat="45.76255" lon="4.62827">
        <ele>722.6</ele>
        <time>2021-02-08T11:18:21.000Z</time>
      </trkpt>
      <trkpt lat="45.76262" lon="4.62841">
        <ele>721.1</ele>
        <time>2021-02-08T11:18:23.000Z</time>
      </trkpt>
      <trkpt lat="45.76268" lon="4.62853">
        <ele>719.9</ele>
        <time>2021-02-08T11:18:25.000Z</time>
      </trkpt>
      <trkpt lat="45.76273" lon="4.62871">
        <ele>717.6</ele>
        <time>2021-02-08T11:18:27.000Z</time>
      </trkpt>
      <trkpt lat="45.76283" lon="4.62884">
        <ele>715</ele>
        <time>2021-02-08T11:18:29.000Z</time>
      </trkpt>
      <trkpt lat="45.76289" lon="4.62894">
        <ele>713.1</ele>
        <time>2021-02-08T11:18:31.000Z</time>
      </trkpt>
      <trkpt lat="45.76289" lon="4.62912">
        <ele>712.6</ele>
        <time>2021-02-08T11:18:34.000Z</time>
      </trkpt>
      <trkpt lat="45.76284" lon="4.62925">
        <ele>712.1</ele>
        <time>2021-02-08T11:18:37.000Z</time>
      </trkpt>
      <trkpt lat="45.76277" lon="4.62935">
        <ele>711.5</ele>
        <time>2021-02-08T11:18:40.000Z</time>
      </trkpt>
      <trkpt lat="45.76271" lon="4.6295">
        <ele>710.8</ele>
        <time>2021-02-08T11:18:44.000Z</time>
      </trkpt>
      <trkpt lat="45.76268" lon="4.62964">
        <ele>710.1</ele>
        <time>2021-02-08T11:18:47.000Z</time>
      </trkpt>
      <trkpt lat="45.76265" lon="4.62976">
        <ele>709.5</ele>
        <time>2021-02-08T11:18:49.000Z</time>
      </trkpt>
      <trkpt lat="45.76262" lon="4.62989">
        <ele>708.9</ele>
        <time>2021-02-08T11:18:51.000Z</time>
      </trkpt>
      <trkpt lat="45.76265" lon="4.63005">
        <ele>708.2</ele>
        <time>2021-02-08T11:18:54.000Z</time>
      </trkpt>
      <trkpt lat="45.7627" lon="4.63017">
        <ele>707.6</ele>
        <time>2021-02-08T11:18:59.000Z</time>
      </trkpt>
      <trkpt lat="45.76275" lon="4.6303">
        <ele>706.9</ele>
        <time>2021-02-08T11:19:06.000Z</time>
      </trkpt>
      <trkpt lat="45.76276" lon="4.63032">
        <ele>706.8</ele>
        <time>2021-02-08T11:19:09.000Z</time>
      </trkpt>
      <trkpt lat="45.76275" lon="4.63032">
        <ele>706.8</ele>
        <time>2021-02-08T11:19:10.000Z</time>
      </trkpt>
      <trkpt lat="45.7627" lon="4.63042">
        <ele>706.1</ele>
        <time>2021-02-08T11:19:21.000Z</time>
      </trkpt>
      <trkpt lat="45.76264" lon="4.63056">
        <ele>705.4</ele>
        <time>2021-02-08T11:19:25.000Z</time>
      </trkpt>
      <trkpt lat="45.76262" lon="4.63069">
        <ele>704.7</ele>
        <time>2021-02-08T11:19:28.000Z</time>
      </trkpt>
      <trkpt lat="45.76259" lon="4.63083">
        <ele>704.1</ele>
        <time>2021-02-08T11:19:31.000Z</time>
      </trkpt>
      <trkpt lat="45.76255" lon="4.63099">
        <ele>703.2</ele>
        <time>2021-02-08T11:19:34.000Z</time>
      </trkpt>
      <trkpt lat="45.76251" lon="4.63112">
        <ele>702.6</ele>
        <time>2021-02-08T11:19:36.000Z</time>
      </trkpt>
      <trkpt lat="45.76247" lon="4.63126">
        <ele>701.9</ele>
        <time>2021-02-08T11:19:38.000Z</time>
      </trkpt>
      <trkpt lat="45.76242" lon="4.63142">
        <ele>701.1</ele>
        <time>2021-02-08T11:19:40.000Z</time>
      </trkpt>
      <trkpt lat="45.7624" lon="4.63159">
        <ele>700.3</ele>
        <time>2021-02-08T11:19:42.000Z</time>
      </trkpt>
      <trkpt lat="45.76239" lon="4.63175">
        <ele>699.7</ele>
        <time>2021-02-08T11:19:44.000Z</time>
      </trkpt>
      <trkpt lat="45.76237" lon="4.6319">
        <ele>699.1</ele>
        <time>2021-02-08T11:19:46.000Z</time>
      </trkpt>
      <trkpt lat="45.76237" lon="4.63204">
        <ele>698.5</ele>
        <time>2021-02-08T11:19:49.000Z</time>
      </trkpt>
      <trkpt lat="45.76236" lon="4.63218">
        <ele>698</ele>
        <time>2021-02-08T11:19:52.000Z</time>
      </trkpt>
      <trkpt lat="45.7624" lon="4.63232">
        <ele>697.4</ele>
        <time>2021-02-08T11:19:55.000Z</time>
      </trkpt>
      <trkpt lat="45.76242" lon="4.63245">
        <ele>696.9</ele>
        <time>2021-02-08T11:19:57.000Z</time>
      </trkpt>
      <trkpt lat="45.76241" lon="4.63263">
        <ele>696.3</ele>
        <time>2021-02-08T11:20:00.000Z</time>
      </trkpt>
      <trkpt lat="45.76245" lon="4.63276">
        <ele>695.8</ele>
        <time>2021-02-08T11:20:03.000Z</time>
      </trkpt>
      <trkpt lat="45.76246" lon="4.63292">
        <ele>695.2</ele>
        <time>2021-02-08T11:20:07.000Z</time>
      </trkpt>
      <trkpt lat="45.76242" lon="4.6331">
        <ele>694.4</ele>
        <time>2021-02-08T11:20:10.000Z</time>
      </trkpt>
      <trkpt lat="45.76235" lon="4.63318">
        <ele>697.4</ele>
        <time>2021-02-08T11:20:12.000Z</time>
      </trkpt>
      <trkpt lat="45.76233" lon="4.63332">
        <ele>699.9</ele>
        <time>2021-02-08T11:20:15.000Z</time>
      </trkpt>
      <trkpt lat="45.76237" lon="4.63348">
        <ele>700.8</ele>
        <time>2021-02-08T11:20:18.000Z</time>
      </trkpt>
      <trkpt lat="45.76245" lon="4.63356">
        <ele>701.9</ele>
        <time>2021-02-08T11:20:21.000Z</time>
      </trkpt>
      <trkpt lat="45.76254" lon="4.63362">
        <ele>703.4</ele>
        <time>2021-02-08T11:20:27.000Z</time>
      </trkpt>
      <trkpt lat="45.76263" lon="4.63361">
        <ele>705</ele>
        <time>2021-02-08T11:20:36.000Z</time>
      </trkpt>
      <trkpt lat="45.76272" lon="4.63364">
        <ele>706.5</ele>
        <time>2021-02-08T11:20:43.000Z</time>
      </trkpt>
      <trkpt lat="45.76282" lon="4.63366">
        <ele>707.7</ele>
        <time>2021-02-08T11:20:49.000Z</time>
      </trkpt>
      <trkpt lat="45.76289" lon="4.63374">
        <ele>708.8</ele>
        <time>2021-02-08T11:20:54.000Z</time>
      </trkpt>
      <trkpt lat="45.76299" lon="4.63375">
        <ele>710</ele>
        <time>2021-02-08T11:21:00.000Z</time>
      </trkpt>
      <trkpt lat="45.76307" lon="4.63368">
        <ele>711.1</ele>
        <time>2021-02-08T11:21:06.000Z</time>
      </trkpt>
      <trkpt lat="45.76316" lon="4.63363">
        <ele>712.1</ele>
        <time>2021-02-08T11:21:12.000Z</time>
      </trkpt>
      <trkpt lat="45.76324" lon="4.63355">
        <ele>713</ele>
        <time>2021-02-08T11:21:19.000Z</time>
      </trkpt>
      <trkpt lat="45.76332" lon="4.63345">
        <ele>713.8</ele>
        <time>2021-02-08T11:21:25.000Z</time>
      </trkpt>
      <trkpt lat="45.7634" lon="4.63337">
        <ele>714.4</ele>
        <time>2021-02-08T11:21:30.000Z</time>
      </trkpt>
      <trkpt lat="45.76346" lon="4.63325">
        <ele>715.1</ele>
        <time>2021-02-08T11:21:36.000Z</time>
      </trkpt>
      <trkpt lat="45.7635" lon="4.63313">
        <ele>715.5</ele>
        <time>2021-02-08T11:21:41.000Z</time>
      </trkpt>
      <trkpt lat="45.7636" lon="4.63314">
        <ele>715.7</ele>
        <time>2021-02-08T11:21:46.000Z</time>
      </trkpt>
      <trkpt lat="45.76369" lon="4.63315">
        <ele>715.9</ele>
        <time>2021-02-08T11:21:50.000Z</time>
      </trkpt>
      <trkpt lat="45.76378" lon="4.63309">
        <ele>716</ele>
        <time>2021-02-08T11:21:55.000Z</time>
      </trkpt>
      <trkpt lat="45.76387" lon="4.63299">
        <ele>716.1</ele>
        <time>2021-02-08T11:21:59.000Z</time>
      </trkpt>
      <trkpt lat="45.76396" lon="4.6329">
        <ele>716</ele>
        <time>2021-02-08T11:22:03.000Z</time>
      </trkpt>
      <trkpt lat="45.76405" lon="4.63285">
        <ele>715.9</ele>
        <time>2021-02-08T11:22:06.000Z</time>
      </trkpt>
      <trkpt lat="45.76415" lon="4.63274">
        <ele>715.7</ele>
        <time>2021-02-08T11:22:09.000Z</time>
      </trkpt>
      <trkpt lat="45.76424" lon="4.63263">
        <ele>715.4</ele>
        <time>2021-02-08T11:22:12.000Z</time>
      </trkpt>
      <trkpt lat="45.76433" lon="4.63255">
        <ele>715.1</ele>
        <time>2021-02-08T11:22:14.000Z</time>
      </trkpt>
      <trkpt lat="45.76442" lon="4.63249">
        <ele>714.8</ele>
        <time>2021-02-08T11:22:16.000Z</time>
      </trkpt>
      <trkpt lat="45.76454" lon="4.63239">
        <ele>714.6</ele>
        <time>2021-02-08T11:22:19.000Z</time>
      </trkpt>
      <trkpt lat="45.76462" lon="4.63234">
        <ele>714.7</ele>
        <time>2021-02-08T11:22:21.000Z</time>
      </trkpt>
      <trkpt lat="45.76471" lon="4.63229">
        <ele>715</ele>
        <time>2021-02-08T11:22:23.000Z</time>
      </trkpt>
      <trkpt lat="45.76474" lon="4.63216">
        <ele>715.4</ele>
        <time>2021-02-08T11:22:26.000Z</time>
      </trkpt>
      <trkpt lat="45.76469" lon="4.63203">
        <ele>716.3</ele>
        <time>2021-02-08T11:22:31.000Z</time>
      </trkpt>
      <trkpt lat="45.76468" lon="4.63189">
        <ele>717.1</ele>
        <time>2021-02-08T11:22:36.000Z</time>
      </trkpt>
      <trkpt lat="45.76478" lon="4.6318">
        <ele>717.7</ele>
        <time>2021-02-08T11:22:41.000Z</time>
      </trkpt>
      <trkpt lat="45.76487" lon="4.63175">
        <ele>718</ele>
        <time>2021-02-08T11:22:44.000Z</time>
      </trkpt>
      <trkpt lat="45.76495" lon="4.63165">
        <ele>718.2</ele>
        <time>2021-02-08T11:22:47.000Z</time>
      </trkpt>
      <trkpt lat="45.76493" lon="4.6315">
        <ele>718.8</ele>
        <time>2021-02-08T11:22:51.000Z</time>
      </trkpt>
      <trkpt lat="45.76486" lon="4.63142">
        <ele>720</ele>
        <time>2021-02-08T11:22:59.000Z</time>
      </trkpt>
      <trkpt lat="45.76479" lon="4.63129">
        <ele>721.8</ele>
        <time>2021-02-08T11:23:07.000Z</time>
      </trkpt>
      <trkpt lat="45.76473" lon="4.63117">
        <ele>723.7</ele>
        <time>2021-02-08T11:23:16.000Z</time>
      </trkpt>
      <trkpt lat="45.76471" lon="4.63103">
        <ele>725.1</ele>
        <time>2021-02-08T11:23:22.000Z</time>
      </trkpt>
      <trkpt lat="45.76473" lon="4.6309">
        <ele>726.1</ele>
        <time>2021-02-08T11:23:28.000Z</time>
      </trkpt>
      <trkpt lat="45.76479" lon="4.63077">
        <ele>726.8</ele>
        <time>2021-02-08T11:23:35.000Z</time>
      </trkpt>
      <trkpt lat="45.76488" lon="4.63069">
        <ele>727</ele>
        <time>2021-02-08T11:23:39.000Z</time>
      </trkpt>
      <trkpt lat="45.76497" lon="4.63064">
        <ele>726.8</ele>
        <time>2021-02-08T11:23:44.000Z</time>
      </trkpt>
      <trkpt lat="45.76507" lon="4.63067">
        <ele>726.7</ele>
        <time>2021-02-08T11:23:49.000Z</time>
      </trkpt>
      <trkpt lat="45.76517" lon="4.63066">
        <ele>726.6</ele>
        <time>2021-02-08T11:23:53.000Z</time>
      </trkpt>
      <trkpt lat="45.76527" lon="4.63065">
        <ele>726.6</ele>
        <time>2021-02-08T11:23:58.000Z</time>
      </trkpt>
      <trkpt lat="45.76538" lon="4.63067">
        <ele>726.8</ele>
        <time>2021-02-08T11:24:02.000Z</time>
      </trkpt>
      <trkpt lat="45.76546" lon="4.63062">
        <ele>726.9</ele>
        <time>2021-02-08T11:24:06.000Z</time>
      </trkpt>
      <trkpt lat="45.76555" lon="4.63058">
        <ele>727.1</ele>
        <time>2021-02-08T11:24:12.000Z</time>
      </trkpt>
      <trkpt lat="45.76564" lon="4.6305">
        <ele>727.3</ele>
        <time>2021-02-08T11:24:18.000Z</time>
      </trkpt>
      <trkpt lat="45.76573" lon="4.6305">
        <ele>727.4</ele>
        <time>2021-02-08T11:24:23.000Z</time>
      </trkpt>
      <trkpt lat="45.76581" lon="4.63059">
        <ele>727.5</ele>
        <time>2021-02-08T11:24:27.000Z</time>
      </trkpt>
      <trkpt lat="45.76591" lon="4.63065">
        <ele>727.3</ele>
        <time>2021-02-08T11:24:30.000Z</time>
      </trkpt>
      <trkpt lat="45.76602" lon="4.63067">
        <ele>726.6</ele>
        <time>2021-02-08T11:24:33.000Z</time>
      </trkpt>
      <trkpt lat="45.76612" lon="4.6307">
        <ele>726</ele>
        <time>2021-02-08T11:24:35.000Z</time>
      </trkpt>
      <trkpt lat="45.76621" lon="4.63073">
        <ele>725.5</ele>
        <time>2021-02-08T11:24:37.000Z</time>
      </trkpt>
      <trkpt lat="45.76633" lon="4.63078">
        <ele>724.8</ele>
        <time>2021-02-08T11:24:39.000Z</time>
      </trkpt>
      <trkpt lat="45.76643" lon="4.63085">
        <ele>724.4</ele>
        <time>2021-02-08T11:24:41.000Z</time>
      </trkpt>
      <trkpt lat="45.76653" lon="4.6309">
        <ele>724.2</ele>
        <time>2021-02-08T11:24:43.000Z</time>
      </trkpt>
      <trkpt lat="45.76663" lon="4.63096">
        <ele>724.1</ele>
        <time>2021-02-08T11:24:45.000Z</time>
      </trkpt>
      <trkpt lat="45.76673" lon="4.63103">
        <ele>724.1</ele>
        <time>2021-02-08T11:24:47.000Z</time>
      </trkpt>
      <trkpt lat="45.76683" lon="4.63112">
        <ele>723.4</ele>
        <time>2021-02-08T11:24:50.000Z</time>
      </trkpt>
      <trkpt lat="45.7669" lon="4.63124">
        <ele>722</ele>
        <time>2021-02-08T11:24:54.000Z</time>
      </trkpt>
      <trkpt lat="45.76688" lon="4.63141">
        <ele>720</ele>
        <time>2021-02-08T11:24:58.000Z</time>
      </trkpt>
      <trkpt lat="45.76691" lon="4.63159">
        <ele>718</ele>
        <time>2021-02-08T11:25:01.000Z</time>
      </trkpt>
      <trkpt lat="45.76694" lon="4.63175">
        <ele>716.3</ele>
        <time>2021-02-08T11:25:04.000Z</time>
      </trkpt>
      <trkpt lat="45.76698" lon="4.63187">
        <ele>715.1</ele>
        <time>2021-02-08T11:25:06.000Z</time>
      </trkpt>
      <trkpt lat="45.76698" lon="4.63202">
        <ele>713.9</ele>
        <time>2021-02-08T11:25:09.000Z</time>
      </trkpt>
      <trkpt lat="45.76704" lon="4.63217">
        <ele>712.5</ele>
        <time>2021-02-08T11:25:12.000Z</time>
      </trkpt>
      <trkpt lat="45.76709" lon="4.63233">
        <ele>710.9</ele>
        <time>2021-02-08T11:25:15.000Z</time>
      </trkpt>
      <trkpt lat="45.76712" lon="4.63249">
        <ele>709</ele>
        <time>2021-02-08T11:25:18.000Z</time>
      </trkpt>
      <trkpt lat="45.76714" lon="4.63262">
        <ele>707.4</ele>
        <time>2021-02-08T11:25:20.000Z</time>
      </trkpt>
      <trkpt lat="45.76714" lon="4.63276">
        <ele>705.5</ele>
        <time>2021-02-08T11:25:22.000Z</time>
      </trkpt>
      <trkpt lat="45.76714" lon="4.63294">
        <ele>703.3</ele>
        <time>2021-02-08T11:25:25.000Z</time>
      </trkpt>
      <trkpt lat="45.76715" lon="4.63308">
        <ele>701.5</ele>
        <time>2021-02-08T11:25:28.000Z</time>
      </trkpt>
      <trkpt lat="45.7672" lon="4.63325">
        <ele>699.1</ele>
        <time>2021-02-08T11:25:31.000Z</time>
      </trkpt>
      <trkpt lat="45.76722" lon="4.63341">
        <ele>697</ele>
        <time>2021-02-08T11:25:34.000Z</time>
      </trkpt>
      <trkpt lat="45.7673" lon="4.63356">
        <ele>695.3</ele>
        <time>2021-02-08T11:25:37.000Z</time>
      </trkpt>
      <trkpt lat="45.76741" lon="4.63363">
        <ele>694.2</ele>
        <time>2021-02-08T11:25:40.000Z</time>
      </trkpt>
      <trkpt lat="45.76751" lon="4.63375">
        <ele>693.3</ele>
        <time>2021-02-08T11:25:44.000Z</time>
      </trkpt>
      <trkpt lat="45.76757" lon="4.63386">
        <ele>692.8</ele>
        <time>2021-02-08T11:25:46.000Z</time>
      </trkpt>
      <trkpt lat="45.76763" lon="4.63397">
        <ele>692.5</ele>
        <time>2021-02-08T11:25:48.000Z</time>
      </trkpt>
      <trkpt lat="45.76768" lon="4.63409">
        <ele>692.4</ele>
        <time>2021-02-08T11:25:50.000Z</time>
      </trkpt>
      <trkpt lat="45.7677" lon="4.63422">
        <ele>692.5</ele>
        <time>2021-02-08T11:25:52.000Z</time>
      </trkpt>
      <trkpt lat="45.76773" lon="4.63435">
        <ele>692.8</ele>
        <time>2021-02-08T11:25:54.000Z</time>
      </trkpt>
      <trkpt lat="45.7678" lon="4.63446">
        <ele>693.2</ele>
        <time>2021-02-08T11:25:57.000Z</time>
      </trkpt>
      <trkpt lat="45.76782" lon="4.63459">
        <ele>693.5</ele>
        <time>2021-02-08T11:26:01.000Z</time>
      </trkpt>
      <trkpt lat="45.76787" lon="4.63472">
        <ele>693.7</ele>
        <time>2021-02-08T11:26:07.000Z</time>
      </trkpt>
      <trkpt lat="45.76791" lon="4.63488">
        <ele>693.1</ele>
        <time>2021-02-08T11:26:12.000Z</time>
      </trkpt>
      <trkpt lat="45.76795" lon="4.63499">
        <ele>691.9</ele>
        <time>2021-02-08T11:26:16.000Z</time>
      </trkpt>
      <trkpt lat="45.76792" lon="4.63514">
        <ele>689.8</ele>
        <time>2021-02-08T11:26:20.000Z</time>
      </trkpt>
      <trkpt lat="45.76787" lon="4.63525">
        <ele>687.9</ele>
        <time>2021-02-08T11:26:23.000Z</time>
      </trkpt>
      <trkpt lat="45.76779" lon="4.63536">
        <ele>686.1</ele>
        <time>2021-02-08T11:26:26.000Z</time>
      </trkpt>
      <trkpt lat="45.76779" lon="4.63556">
        <ele>685</ele>
        <time>2021-02-08T11:26:29.000Z</time>
      </trkpt>
      <trkpt lat="45.76781" lon="4.63568">
        <ele>684.9</ele>
        <time>2021-02-08T11:26:31.000Z</time>
      </trkpt>
      <trkpt lat="45.76785" lon="4.63584">
        <ele>685.2</ele>
        <time>2021-02-08T11:26:35.000Z</time>
      </trkpt>
      <trkpt lat="45.76789" lon="4.63597">
        <ele>685.8</ele>
        <time>2021-02-08T11:26:40.000Z</time>
      </trkpt>
      <trkpt lat="45.76793" lon="4.63612">
        <ele>686.3</ele>
        <time>2021-02-08T11:26:45.000Z</time>
      </trkpt>
      <trkpt lat="45.76792" lon="4.63628">
        <ele>686.6</ele>
        <time>2021-02-08T11:26:49.000Z</time>
      </trkpt>
      <trkpt lat="45.76789" lon="4.63641">
        <ele>686.6</ele>
        <time>2021-02-08T11:26:52.000Z</time>
      </trkpt>
      <trkpt lat="45.76783" lon="4.63657">
        <ele>686</ele>
        <time>2021-02-08T11:26:55.000Z</time>
      </trkpt>
      <trkpt lat="45.76777" lon="4.63669">
        <ele>685.1</ele>
        <time>2021-02-08T11:26:58.000Z</time>
      </trkpt>
      <trkpt lat="45.76772" lon="4.6368">
        <ele>684</ele>
        <time>2021-02-08T11:27:01.000Z</time>
      </trkpt>
      <trkpt lat="45.76772" lon="4.63693">
        <ele>683</ele>
        <time>2021-02-08T11:27:04.000Z</time>
      </trkpt>
      <trkpt lat="45.7677" lon="4.6371">
        <ele>681.6</ele>
        <time>2021-02-08T11:27:07.000Z</time>
      </trkpt>
      <trkpt lat="45.76762" lon="4.63724">
        <ele>680</ele>
        <time>2021-02-08T11:27:10.000Z</time>
      </trkpt>
      <trkpt lat="45.76756" lon="4.63738">
        <ele>677.9</ele>
        <time>2021-02-08T11:27:13.000Z</time>
      </trkpt>
      <trkpt lat="45.76747" lon="4.63745">
        <ele>675.5</ele>
        <time>2021-02-08T11:27:28.000Z</time>
      </trkpt>
      <trkpt lat="45.76737" lon="4.6375">
        <ele>672.6</ele>
        <time>2021-02-08T11:27:33.000Z</time>
      </trkpt>
      <trkpt lat="45.76731" lon="4.63737">
        <ele>669.1</ele>
        <time>2021-02-08T11:27:37.000Z</time>
      </trkpt>
      <trkpt lat="45.76722" lon="4.63735">
        <ele>665.9</ele>
        <time>2021-02-08T11:27:43.000Z</time>
      </trkpt>
      <trkpt lat="45.76717" lon="4.63746">
        <ele>663.1</ele>
        <time>2021-02-08T11:27:46.000Z</time>
      </trkpt>
      <trkpt lat="45.76716" lon="4.63762">
        <ele>660.2</ele>
        <time>2021-02-08T11:27:50.000Z</time>
      </trkpt>
      <trkpt lat="45.76707" lon="4.6376">
        <ele>657.9</ele>
        <time>2021-02-08T11:27:55.000Z</time>
      </trkpt>
      <trkpt lat="45.767" lon="4.63747">
        <ele>655.4</ele>
        <time>2021-02-08T11:27:57.000Z</time>
      </trkpt>
      <trkpt lat="45.76693" lon="4.63737">
        <ele>653.2</ele>
        <time>2021-02-08T11:27:59.000Z</time>
      </trkpt>
      <trkpt lat="45.76683" lon="4.63738">
        <ele>651</ele>
        <time>2021-02-08T11:28:02.000Z</time>
      </trkpt>
      <trkpt lat="45.76682" lon="4.63753">
        <ele>648.6</ele>
        <time>2021-02-08T11:28:05.000Z</time>
      </trkpt>
      <trkpt lat="45.76678" lon="4.63766">
        <ele>646.2</ele>
        <time>2021-02-08T11:28:12.000Z</time>
      </trkpt>
      <trkpt lat="45.76677" lon="4.63784">
        <ele>643.2</ele>
        <time>2021-02-08T11:28:15.000Z</time>
      </trkpt>
      <trkpt lat="45.76677" lon="4.63799">
        <ele>640.4</ele>
        <time>2021-02-08T11:28:18.000Z</time>
      </trkpt>
      <trkpt lat="45.76667" lon="4.63807">
        <ele>637.6</ele>
        <time>2021-02-08T11:28:22.000Z</time>
      </trkpt>
      <trkpt lat="45.76657" lon="4.63806">
        <ele>635.4</ele>
        <time>2021-02-08T11:28:25.000Z</time>
      </trkpt>
      <trkpt lat="45.76658" lon="4.63825">
        <ele>633.2</ele>
        <time>2021-02-08T11:28:28.000Z</time>
      </trkpt>
      <trkpt lat="45.76662" lon="4.63838">
        <ele>631.5</ele>
        <time>2021-02-08T11:28:30.000Z</time>
      </trkpt>
      <trkpt lat="45.76666" lon="4.63853">
        <ele>629.5</ele>
        <time>2021-02-08T11:28:33.000Z</time>
      </trkpt>
      <trkpt lat="45.76668" lon="4.63867">
        <ele>627.8</ele>
        <time>2021-02-08T11:28:35.000Z</time>
      </trkpt>
      <trkpt lat="45.76664" lon="4.63879">
        <ele>626.4</ele>
        <time>2021-02-08T11:28:37.000Z</time>
      </trkpt>
      <trkpt lat="45.76667" lon="4.63895">
        <ele>624.8</ele>
        <time>2021-02-08T11:28:40.000Z</time>
      </trkpt>
      <trkpt lat="45.76674" lon="4.63908">
        <ele>623</ele>
        <time>2021-02-08T11:28:42.000Z</time>
      </trkpt>
      <trkpt lat="45.76682" lon="4.63922">
        <ele>622.4</ele>
        <time>2021-02-08T11:28:44.000Z</time>
      </trkpt>
      <trkpt lat="45.76691" lon="4.63934">
        <ele>622</ele>
        <time>2021-02-08T11:28:46.000Z</time>
      </trkpt>
      <trkpt lat="45.76699" lon="4.63945">
        <ele>621.8</ele>
        <time>2021-02-08T11:28:48.000Z</time>
      </trkpt>
      <trkpt lat="45.76706" lon="4.63956">
        <ele>621.9</ele>
        <time>2021-02-08T11:28:50.000Z</time>
      </trkpt>
      <trkpt lat="45.76714" lon="4.63967">
        <ele>622.3</ele>
        <time>2021-02-08T11:28:52.000Z</time>
      </trkpt>
      <trkpt lat="45.76725" lon="4.63974">
        <ele>623.3</ele>
        <time>2021-02-08T11:28:55.000Z</time>
      </trkpt>
      <trkpt lat="45.76734" lon="4.63979">
        <ele>624.2</ele>
        <time>2021-02-08T11:28:59.000Z</time>
      </trkpt>
      <trkpt lat="45.76744" lon="4.63985">
        <ele>624.9</ele>
        <time>2021-02-08T11:29:03.000Z</time>
      </trkpt>
      <trkpt lat="45.76752" lon="4.63993">
        <ele>625.3</ele>
        <time>2021-02-08T11:29:07.000Z</time>
      </trkpt>
      <trkpt lat="45.76757" lon="4.64007">
        <ele>625.5</ele>
        <time>2021-02-08T11:29:11.000Z</time>
      </trkpt>
      <trkpt lat="45.76761" lon="4.64022">
        <ele>625.5</ele>
        <time>2021-02-08T11:29:15.000Z</time>
      </trkpt>
      <trkpt lat="45.76764" lon="4.64037">
        <ele>625.5</ele>
        <time>2021-02-08T11:29:18.000Z</time>
      </trkpt>
      <trkpt lat="45.7677" lon="4.64049">
        <ele>625.5</ele>
        <time>2021-02-08T11:29:21.000Z</time>
      </trkpt>
      <trkpt lat="45.76774" lon="4.64062">
        <ele>625.4</ele>
        <time>2021-02-08T11:29:24.000Z</time>
      </trkpt>
      <trkpt lat="45.76774" lon="4.64078">
        <ele>625.2</ele>
        <time>2021-02-08T11:29:27.000Z</time>
      </trkpt>
      <trkpt lat="45.76777" lon="4.64095">
        <ele>625.1</ele>
        <time>2021-02-08T11:29:30.000Z</time>
      </trkpt>
      <trkpt lat="45.76782" lon="4.64105">
        <ele>625.1</ele>
        <time>2021-02-08T11:29:33.000Z</time>
      </trkpt>
      <trkpt lat="45.76789" lon="4.64115">
        <ele>625.2</ele>
        <time>2021-02-08T11:29:37.000Z</time>
      </trkpt>
      <trkpt lat="45.76798" lon="4.6412">
        <ele>625.1</ele>
        <time>2021-02-08T11:29:41.000Z</time>
      </trkpt>
      <trkpt lat="45.76808" lon="4.64126">
        <ele>624.8</ele>
        <time>2021-02-08T11:29:45.000Z</time>
      </trkpt>
      <trkpt lat="45.76813" lon="4.64141">
        <ele>624.3</ele>
        <time>2021-02-08T11:29:48.000Z</time>
      </trkpt>
      <trkpt lat="45.76824" lon="4.6415">
        <ele>623.5</ele>
        <time>2021-02-08T11:29:51.000Z</time>
      </trkpt>
      <trkpt lat="45.76831" lon="4.64159">
        <ele>622.8</ele>
        <time>2021-02-08T11:29:53.000Z</time>
      </trkpt>
      <trkpt lat="45.76838" lon="4.64171">
        <ele>621.9</ele>
        <time>2021-02-08T11:29:56.000Z</time>
      </trkpt>
      <trkpt lat="45.76849" lon="4.64175">
        <ele>620.9</ele>
        <time>2021-02-08T11:30:00.000Z</time>
      </trkpt>
      <trkpt lat="45.76858" lon="4.64181">
        <ele>619.9</ele>
        <time>2021-02-08T11:30:04.000Z</time>
      </trkpt>
      <trkpt lat="45.76868" lon="4.64192">
        <ele>618.7</ele>
        <time>2021-02-08T11:30:07.000Z</time>
      </trkpt>
      <trkpt lat="45.76876" lon="4.642">
        <ele>617.6</ele>
        <time>2021-02-08T11:30:09.000Z</time>
      </trkpt>
      <trkpt lat="45.7689" lon="4.64206">
        <ele>616.3</ele>
        <time>2021-02-08T11:30:12.000Z</time>
      </trkpt>
      <trkpt lat="45.76898" lon="4.64212">
        <ele>615.6</ele>
        <time>2021-02-08T11:30:14.000Z</time>
      </trkpt>
      <trkpt lat="45.76906" lon="4.64218">
        <ele>615.1</ele>
        <time>2021-02-08T11:30:16.000Z</time>
      </trkpt>
      <trkpt lat="45.76914" lon="4.64226">
        <ele>614.6</ele>
        <time>2021-02-08T11:30:19.000Z</time>
      </trkpt>
      <trkpt lat="45.76909" lon="4.64242">
        <ele>610.2</ele>
        <time>2021-02-08T11:30:22.000Z</time>
      </trkpt>
      <trkpt lat="45.76906" lon="4.64257">
        <ele>606.7</ele>
        <time>2021-02-08T11:30:25.000Z</time>
      </trkpt>
      <trkpt lat="45.76901" lon="4.6427">
        <ele>604.4</ele>
        <time>2021-02-08T11:30:29.000Z</time>
      </trkpt>
      <trkpt lat="45.76893" lon="4.64282">
        <ele>601.4</ele>
        <time>2021-02-08T11:30:32.000Z</time>
      </trkpt>
      <trkpt lat="45.76883" lon="4.64289">
        <ele>598.8</ele>
        <time>2021-02-08T11:30:34.000Z</time>
      </trkpt>
      <trkpt lat="45.76871" lon="4.64293">
        <ele>596.5</ele>
        <time>2021-02-08T11:30:36.000Z</time>
      </trkpt>
      <trkpt lat="45.76862" lon="4.64298">
        <ele>594.9</ele>
        <time>2021-02-08T11:30:38.000Z</time>
      </trkpt>
      <trkpt lat="45.76853" lon="4.64312">
        <ele>593.3</ele>
        <time>2021-02-08T11:30:40.000Z</time>
      </trkpt>
      <trkpt lat="45.76845" lon="4.64325">
        <ele>591.9</ele>
        <time>2021-02-08T11:30:42.000Z</time>
      </trkpt>
      <trkpt lat="45.7684" lon="4.64338">
        <ele>590.7</ele>
        <time>2021-02-08T11:30:45.000Z</time>
      </trkpt>
      <trkpt lat="45.76842" lon="4.64351">
        <ele>589.5</ele>
        <time>2021-02-08T11:30:48.000Z</time>
      </trkpt>
      <trkpt lat="45.76841" lon="4.64369">
        <ele>588</ele>
        <time>2021-02-08T11:30:51.000Z</time>
      </trkpt>
      <trkpt lat="45.76836" lon="4.64381">
        <ele>586.9</ele>
        <time>2021-02-08T11:30:53.000Z</time>
      </trkpt>
      <trkpt lat="45.7683" lon="4.64394">
        <ele>585.6</ele>
        <time>2021-02-08T11:30:55.000Z</time>
      </trkpt>
      <trkpt lat="45.76826" lon="4.64408">
        <ele>583.9</ele>
        <time>2021-02-08T11:30:58.000Z</time>
      </trkpt>
      <trkpt lat="45.76821" lon="4.64419">
        <ele>582.4</ele>
        <time>2021-02-08T11:31:02.000Z</time>
      </trkpt>
      <trkpt lat="45.76811" lon="4.64425">
        <ele>580.6</ele>
        <time>2021-02-08T11:31:05.000Z</time>
      </trkpt>
      <trkpt lat="45.76805" lon="4.64438">
        <ele>578.7</ele>
        <time>2021-02-08T11:31:09.000Z</time>
      </trkpt>
      <trkpt lat="45.76799" lon="4.6445">
        <ele>576.5</ele>
        <time>2021-02-08T11:31:12.000Z</time>
      </trkpt>
      <trkpt lat="45.76802" lon="4.64465">
        <ele>573.9</ele>
        <time>2021-02-08T11:31:15.000Z</time>
      </trkpt>
      <trkpt lat="45.76805" lon="4.64479">
        <ele>571.4</ele>
        <time>2021-02-08T11:31:19.000Z</time>
      </trkpt>
      <trkpt lat="45.76811" lon="4.64491">
        <ele>569</ele>
        <time>2021-02-08T11:31:22.000Z</time>
      </trkpt>
      <trkpt lat="45.76815" lon="4.64508">
        <ele>566.3</ele>
        <time>2021-02-08T11:31:25.000Z</time>
      </trkpt>
      <trkpt lat="45.76818" lon="4.64521">
        <ele>564.2</ele>
        <time>2021-02-08T11:31:27.000Z</time>
      </trkpt>
      <trkpt lat="45.76827" lon="4.64532">
        <ele>561.7</ele>
        <time>2021-02-08T11:31:29.000Z</time>
      </trkpt>
      <trkpt lat="45.76836" lon="4.64537">
        <ele>559.9</ele>
        <time>2021-02-08T11:31:31.000Z</time>
      </trkpt>
      <trkpt lat="45.76845" lon="4.64543">
        <ele>558</ele>
        <time>2021-02-08T11:31:33.000Z</time>
      </trkpt>
      <trkpt lat="45.76855" lon="4.6455">
        <ele>555.8</ele>
        <time>2021-02-08T11:31:35.000Z</time>
      </trkpt>
      <trkpt lat="45.76862" lon="4.64564">
        <ele>553.2</ele>
        <time>2021-02-08T11:31:38.000Z</time>
      </trkpt>
      <trkpt lat="45.76865" lon="4.6458">
        <ele>550.4</ele>
        <time>2021-02-08T11:31:40.000Z</time>
      </trkpt>
      <trkpt lat="45.76866" lon="4.64594">
        <ele>547.5</ele>
        <time>2021-02-08T11:31:43.000Z</time>
      </trkpt>
      <trkpt lat="45.76855" lon="4.646">
        <ele>544.4</ele>
        <time>2021-02-08T11:31:46.000Z</time>
      </trkpt>
      <trkpt lat="45.7685" lon="4.64614">
        <ele>541.2</ele>
        <time>2021-02-08T11:31:50.000Z</time>
      </trkpt>
      <trkpt lat="45.76843" lon="4.64624">
        <ele>538.6</ele>
        <time>2021-02-08T11:31:53.000Z</time>
      </trkpt>
      <trkpt lat="45.76834" lon="4.64635">
        <ele>536.1</ele>
        <time>2021-02-08T11:31:56.000Z</time>
      </trkpt>
      <trkpt lat="45.76837" lon="4.64653">
        <ele>534</ele>
        <time>2021-02-08T11:31:59.000Z</time>
      </trkpt>
      <trkpt lat="45.76841" lon="4.64667">
        <ele>532.4</ele>
        <time>2021-02-08T11:32:02.000Z</time>
      </trkpt>
      <trkpt lat="45.76843" lon="4.6468">
        <ele>530.7</ele>
        <time>2021-02-08T11:32:06.000Z</time>
      </trkpt>
      <trkpt lat="45.76839" lon="4.64692">
        <ele>529.1</ele>
        <time>2021-02-08T11:32:09.000Z</time>
      </trkpt>
      <trkpt lat="45.76829" lon="4.64695">
        <ele>527.4</ele>
        <time>2021-02-08T11:32:12.000Z</time>
      </trkpt>
      <trkpt lat="45.76823" lon="4.64707">
        <ele>526</ele>
        <time>2021-02-08T11:32:15.000Z</time>
      </trkpt>
      <trkpt lat="45.76828" lon="4.64722">
        <ele>524.2</ele>
        <time>2021-02-08T11:32:18.000Z</time>
      </trkpt>
      <trkpt lat="45.76826" lon="4.64737">
        <ele>522.1</ele>
        <time>2021-02-08T11:32:21.000Z</time>
      </trkpt>
      <trkpt lat="45.76821" lon="4.64748">
        <ele>519.7</ele>
        <time>2021-02-08T11:32:24.000Z</time>
      </trkpt>
      <trkpt lat="45.7682" lon="4.64763">
        <ele>515.9</ele>
        <time>2021-02-08T11:32:27.000Z</time>
      </trkpt>
      <trkpt lat="45.76817" lon="4.64778">
        <ele>512</ele>
        <time>2021-02-08T11:32:31.000Z</time>
      </trkpt>
      <trkpt lat="45.76808" lon="4.64776">
        <ele>509</ele>
        <time>2021-02-08T11:32:34.000Z</time>
      </trkpt>
      <trkpt lat="45.76799" lon="4.64782">
        <ele>506.4</ele>
        <time>2021-02-08T11:32:39.000Z</time>
      </trkpt>
      <trkpt lat="45.76797" lon="4.64795">
        <ele>504.5</ele>
        <time>2021-02-08T11:32:42.000Z</time>
      </trkpt>
      <trkpt lat="45.76792" lon="4.64811">
        <ele>502.5</ele>
        <time>2021-02-08T11:32:45.000Z</time>
      </trkpt>
      <trkpt lat="45.76791" lon="4.64828">
        <ele>502</ele>
        <time>2021-02-08T11:32:47.000Z</time>
      </trkpt>
      <trkpt lat="45.76795" lon="4.64841">
        <ele>502.6</ele>
        <time>2021-02-08T11:32:49.000Z</time>
      </trkpt>
      <trkpt lat="45.768" lon="4.64854">
        <ele>503.1</ele>
        <time>2021-02-08T11:32:52.000Z</time>
      </trkpt>
      <trkpt lat="45.76804" lon="4.64869">
        <ele>503.8</ele>
        <time>2021-02-08T11:32:56.000Z</time>
      </trkpt>
      <trkpt lat="45.76809" lon="4.64881">
        <ele>504.3</ele>
        <time>2021-02-08T11:33:00.000Z</time>
      </trkpt>
      <trkpt lat="45.76817" lon="4.64891">
        <ele>504.9</ele>
        <time>2021-02-08T11:33:04.000Z</time>
      </trkpt>
      <trkpt lat="45.76815" lon="4.64906">
        <ele>504.1</ele>
        <time>2021-02-08T11:33:08.000Z</time>
      </trkpt>
      <trkpt lat="45.76813" lon="4.64921">
        <ele>503</ele>
        <time>2021-02-08T11:33:11.000Z</time>
      </trkpt>
      <trkpt lat="45.76809" lon="4.64933">
        <ele>501.9</ele>
        <time>2021-02-08T11:33:13.000Z</time>
      </trkpt>
      <trkpt lat="45.76803" lon="4.64946">
        <ele>500.5</ele>
        <time>2021-02-08T11:33:15.000Z</time>
      </trkpt>
      <trkpt lat="45.76794" lon="4.64955">
        <ele>499.1</ele>
        <time>2021-02-08T11:33:17.000Z</time>
      </trkpt>
      <trkpt lat="45.76785" lon="4.6496">
        <ele>498.1</ele>
        <time>2021-02-08T11:33:19.000Z</time>
      </trkpt>
      <trkpt lat="45.76776" lon="4.6497">
        <ele>497.1</ele>
        <time>2021-02-08T11:33:21.000Z</time>
      </trkpt>
      <trkpt lat="45.76768" lon="4.6498">
        <ele>495.9</ele>
        <time>2021-02-08T11:33:23.000Z</time>
      </trkpt>
      <trkpt lat="45.76762" lon="4.6499">
        <ele>494.1</ele>
        <time>2021-02-08T11:33:26.000Z</time>
      </trkpt>
      <trkpt lat="45.76753" lon="4.64998">
        <ele>491.5</ele>
        <time>2021-02-08T11:33:30.000Z</time>
      </trkpt>
      <trkpt lat="45.76747" lon="4.65008">
        <ele>488.8</ele>
        <time>2021-02-08T11:33:33.000Z</time>
      </trkpt>
      <trkpt lat="45.76741" lon="4.65022">
        <ele>485.4</ele>
        <time>2021-02-08T11:33:36.000Z</time>
      </trkpt>
      <trkpt lat="45.76731" lon="4.6503">
        <ele>482.6</ele>
        <time>2021-02-08T11:33:40.000Z</time>
      </trkpt>
      <trkpt lat="45.76722" lon="4.65037">
        <ele>480.6</ele>
        <time>2021-02-08T11:33:43.000Z</time>
      </trkpt>
      <trkpt lat="45.76716" lon="4.6505">
        <ele>479.9</ele>
        <time>2021-02-08T11:33:46.000Z</time>
      </trkpt>
      <trkpt lat="45.76711" lon="4.65061">
        <ele>480.4</ele>
        <time>2021-02-08T11:33:49.000Z</time>
      </trkpt>
      <trkpt lat="45.76711" lon="4.65074">
        <ele>481</ele>
        <time>2021-02-08T11:33:54.000Z</time>
      </trkpt>
      <trkpt lat="45.76709" lon="4.65089">
        <ele>481.9</ele>
        <time>2021-02-08T11:34:02.000Z</time>
      </trkpt>
      <trkpt lat="45.76704" lon="4.65101">
        <ele>482.4</ele>
        <time>2021-02-08T11:34:08.000Z</time>
      </trkpt>
      <trkpt lat="45.767" lon="4.65113">
        <ele>482.5</ele>
        <time>2021-02-08T11:34:13.000Z</time>
      </trkpt>
      <trkpt lat="45.76698" lon="4.65127">
        <ele>482.4</ele>
        <time>2021-02-08T11:34:17.000Z</time>
      </trkpt>
      <trkpt lat="45.76702" lon="4.65142">
        <ele>481.8</ele>
        <time>2021-02-08T11:34:21.000Z</time>
      </trkpt>
      <trkpt lat="45.76708" lon="4.65153">
        <ele>481.7</ele>
        <time>2021-02-08T11:34:24.000Z</time>
      </trkpt>
      <trkpt lat="45.76714" lon="4.65165">
        <ele>481.6</ele>
        <time>2021-02-08T11:34:27.000Z</time>
      </trkpt>
      <trkpt lat="45.76721" lon="4.65176">
        <ele>481.6</ele>
        <time>2021-02-08T11:34:30.000Z</time>
      </trkpt>
      <trkpt lat="45.76712" lon="4.65179">
        <ele>481.6</ele>
        <time>2021-02-08T11:34:34.000Z</time>
      </trkpt>
      <trkpt lat="45.76704" lon="4.65168">
        <ele>481.7</ele>
        <time>2021-02-08T11:34:37.000Z</time>
      </trkpt>
      <trkpt lat="45.76696" lon="4.65155">
        <ele>481.8</ele>
        <time>2021-02-08T11:34:40.000Z</time>
      </trkpt>
      <trkpt lat="45.76686" lon="4.65146">
        <ele>481.7</ele>
        <time>2021-02-08T11:34:43.000Z</time>
      </trkpt>
      <trkpt lat="45.76678" lon="4.65156">
        <ele>480.2</ele>
        <time>2021-02-08T11:34:45.000Z</time>
      </trkpt>
      <trkpt lat="45.76674" lon="4.65172">
        <ele>477.8</ele>
        <time>2021-02-08T11:34:47.000Z</time>
      </trkpt>
      <trkpt lat="45.76673" lon="4.65191">
        <ele>477.2</ele>
        <time>2021-02-08T11:34:49.000Z</time>
      </trkpt>
      <trkpt lat="45.76674" lon="4.6521">
        <ele>476.6</ele>
        <time>2021-02-08T11:34:51.000Z</time>
      </trkpt>
      <trkpt lat="45.76675" lon="4.65228">
        <ele>476.1</ele>
        <time>2021-02-08T11:34:53.000Z</time>
      </trkpt>
      <trkpt lat="45.76676" lon="4.65247">
        <ele>475.6</ele>
        <time>2021-02-08T11:34:55.000Z</time>
      </trkpt>
      <trkpt lat="45.76676" lon="4.65265">
        <ele>475.2</ele>
        <time>2021-02-08T11:34:57.000Z</time>
      </trkpt>
      <trkpt lat="45.76677" lon="4.65282">
        <ele>474.9</ele>
        <time>2021-02-08T11:34:59.000Z</time>
      </trkpt>
      <trkpt lat="45.76678" lon="4.65298">
        <ele>474.5</ele>
        <time>2021-02-08T11:35:01.000Z</time>
      </trkpt>
      <trkpt lat="45.76679" lon="4.65315">
        <ele>474.2</ele>
        <time>2021-02-08T11:35:03.000Z</time>
      </trkpt>
      <trkpt lat="45.7668" lon="4.6533">
        <ele>473.9</ele>
        <time>2021-02-08T11:35:05.000Z</time>
      </trkpt>
      <trkpt lat="45.76681" lon="4.65346">
        <ele>473.8</ele>
        <time>2021-02-08T11:35:07.000Z</time>
      </trkpt>
      <trkpt lat="45.76682" lon="4.65362">
        <ele>473.7</ele>
        <time>2021-02-08T11:35:09.000Z</time>
      </trkpt>
      <trkpt lat="45.76685" lon="4.65377">
        <ele>473.5</ele>
        <time>2021-02-08T11:35:11.000Z</time>
      </trkpt>
      <trkpt lat="45.76688" lon="4.65393">
        <ele>473.3</ele>
        <time>2021-02-08T11:35:13.000Z</time>
      </trkpt>
      <trkpt lat="45.76692" lon="4.65408">
        <ele>472.9</ele>
        <time>2021-02-08T11:35:15.000Z</time>
      </trkpt>
      <trkpt lat="45.76698" lon="4.65425">
        <ele>472.3</ele>
        <time>2021-02-08T11:35:17.000Z</time>
      </trkpt>
      <trkpt lat="45.76704" lon="4.65442">
        <ele>471.2</ele>
        <time>2021-02-08T11:35:19.000Z</time>
      </trkpt>
      <trkpt lat="45.76711" lon="4.6546">
        <ele>470</ele>
        <time>2021-02-08T11:35:21.000Z</time>
      </trkpt>
      <trkpt lat="45.76718" lon="4.6548">
        <ele>468.7</ele>
        <time>2021-02-08T11:35:23.000Z</time>
      </trkpt>
      <trkpt lat="45.76725" lon="4.65502">
        <ele>467.7</ele>
        <time>2021-02-08T11:35:25.000Z</time>
      </trkpt>
      <trkpt lat="45.76732" lon="4.65525">
        <ele>466.5</ele>
        <time>2021-02-08T11:35:27.000Z</time>
      </trkpt>
      <trkpt lat="45.76738" lon="4.65549">
        <ele>465</ele>
        <time>2021-02-08T11:35:29.000Z</time>
      </trkpt>
      <trkpt lat="45.76741" lon="4.65561">
        <ele>464.3</ele>
        <time>2021-02-08T11:35:30.000Z</time>
      </trkpt>
      <trkpt lat="45.76744" lon="4.65573">
        <ele>463.6</ele>
        <time>2021-02-08T11:35:31.000Z</time>
      </trkpt>
      <trkpt lat="45.76748" lon="4.65585">
        <ele>462.9</ele>
        <time>2021-02-08T11:35:32.000Z</time>
      </trkpt>
      <trkpt lat="45.76755" lon="4.65608">
        <ele>461.7</ele>
        <time>2021-02-08T11:35:34.000Z</time>
      </trkpt>
      <trkpt lat="45.76762" lon="4.65632">
        <ele>460.6</ele>
        <time>2021-02-08T11:35:36.000Z</time>
      </trkpt>
      <trkpt lat="45.76768" lon="4.65655">
        <ele>459.6</ele>
        <time>2021-02-08T11:35:38.000Z</time>
      </trkpt>
      <trkpt lat="45.76775" lon="4.65677">
        <ele>458.9</ele>
        <time>2021-02-08T11:35:40.000Z</time>
      </trkpt>
      <trkpt lat="45.76781" lon="4.657">
        <ele>458.4</ele>
        <time>2021-02-08T11:35:42.000Z</time>
      </trkpt>
      <trkpt lat="45.76788" lon="4.65723">
        <ele>457.9</ele>
        <time>2021-02-08T11:35:44.000Z</time>
      </trkpt>
      <trkpt lat="45.76794" lon="4.65745">
        <ele>457.4</ele>
        <time>2021-02-08T11:35:46.000Z</time>
      </trkpt>
      <trkpt lat="45.76798" lon="4.65765">
        <ele>457.1</ele>
        <time>2021-02-08T11:35:48.000Z</time>
      </trkpt>
      <trkpt lat="45.76804" lon="4.65784">
        <ele>456.8</ele>
        <time>2021-02-08T11:35:50.000Z</time>
      </trkpt>
      <trkpt lat="45.76808" lon="4.65803">
        <ele>456.5</ele>
        <time>2021-02-08T11:35:52.000Z</time>
      </trkpt>
      <trkpt lat="45.7681" lon="4.65821">
        <ele>456.3</ele>
        <time>2021-02-08T11:35:54.000Z</time>
      </trkpt>
      <trkpt lat="45.76812" lon="4.65838">
        <ele>456.1</ele>
        <time>2021-02-08T11:35:56.000Z</time>
      </trkpt>
      <trkpt lat="45.76816" lon="4.65853">
        <ele>455.8</ele>
        <time>2021-02-08T11:35:58.000Z</time>
      </trkpt>
      <trkpt lat="45.76818" lon="4.6587">
        <ele>455.4</ele>
        <time>2021-02-08T11:36:00.000Z</time>
      </trkpt>
      <trkpt lat="45.76818" lon="4.65887">
        <ele>455</ele>
        <time>2021-02-08T11:36:02.000Z</time>
      </trkpt>
      <trkpt lat="45.76815" lon="4.65905">
        <ele>454.4</ele>
        <time>2021-02-08T11:36:04.000Z</time>
      </trkpt>
      <trkpt lat="45.76809" lon="4.65922">
        <ele>453.7</ele>
        <time>2021-02-08T11:36:06.000Z</time>
      </trkpt>
      <trkpt lat="45.76802" lon="4.65939">
        <ele>452.7</ele>
        <time>2021-02-08T11:36:08.000Z</time>
      </trkpt>
      <trkpt lat="45.76793" lon="4.65954">
        <ele>451.6</ele>
        <time>2021-02-08T11:36:10.000Z</time>
      </trkpt>
      <trkpt lat="45.76781" lon="4.65968">
        <ele>450.3</ele>
        <time>2021-02-08T11:36:12.000Z</time>
      </trkpt>
      <trkpt lat="45.76766" lon="4.65978">
        <ele>448.8</ele>
        <time>2021-02-08T11:36:14.000Z</time>
      </trkpt>
      <trkpt lat="45.76749" lon="4.6598">
        <ele>447.2</ele>
        <time>2021-02-08T11:36:16.000Z</time>
      </trkpt>
      <trkpt lat="45.76739" lon="4.6598">
        <ele>446.3</ele>
        <time>2021-02-08T11:36:17.000Z</time>
      </trkpt>
      <trkpt lat="45.7673" lon="4.65981">
        <ele>445.6</ele>
        <time>2021-02-08T11:36:18.000Z</time>
      </trkpt>
      <trkpt lat="45.76721" lon="4.65982">
        <ele>444.8</ele>
        <time>2021-02-08T11:36:19.000Z</time>
      </trkpt>
      <trkpt lat="45.76711" lon="4.65983">
        <ele>444</ele>
        <time>2021-02-08T11:36:20.000Z</time>
      </trkpt>
      <trkpt lat="45.76702" lon="4.65983">
        <ele>443.3</ele>
        <time>2021-02-08T11:36:21.000Z</time>
      </trkpt>
      <trkpt lat="45.76692" lon="4.65983">
        <ele>442.7</ele>
        <time>2021-02-08T11:36:22.000Z</time>
      </trkpt>
      <trkpt lat="45.76683" lon="4.65984">
        <ele>442</ele>
        <time>2021-02-08T11:36:23.000Z</time>
      </trkpt>
      <trkpt lat="45.76674" lon="4.65984">
        <ele>441.4</ele>
        <time>2021-02-08T11:36:24.000Z</time>
      </trkpt>
      <trkpt lat="45.76657" lon="4.65981">
        <ele>440.9</ele>
        <time>2021-02-08T11:36:26.000Z</time>
      </trkpt>
      <trkpt lat="45.7664" lon="4.65974">
        <ele>439.7</ele>
        <time>2021-02-08T11:36:28.000Z</time>
      </trkpt>
      <trkpt lat="45.76623" lon="4.65972">
        <ele>438.6</ele>
        <time>2021-02-08T11:36:30.000Z</time>
      </trkpt>
      <trkpt lat="45.76608" lon="4.65975">
        <ele>437.7</ele>
        <time>2021-02-08T11:36:32.000Z</time>
      </trkpt>
      <trkpt lat="45.76593" lon="4.65978">
        <ele>436.8</ele>
        <time>2021-02-08T11:36:34.000Z</time>
      </trkpt>
      <trkpt lat="45.76578" lon="4.6598">
        <ele>435.9</ele>
        <time>2021-02-08T11:36:36.000Z</time>
      </trkpt>
      <trkpt lat="45.76564" lon="4.65982">
        <ele>434.9</ele>
        <time>2021-02-08T11:36:38.000Z</time>
      </trkpt>
      <trkpt lat="45.76549" lon="4.65984">
        <ele>434.1</ele>
        <time>2021-02-08T11:36:40.000Z</time>
      </trkpt>
      <trkpt lat="45.76535" lon="4.65986">
        <ele>433.1</ele>
        <time>2021-02-08T11:36:42.000Z</time>
      </trkpt>
      <trkpt lat="45.7652" lon="4.65989">
        <ele>432.2</ele>
        <time>2021-02-08T11:36:44.000Z</time>
      </trkpt>
      <trkpt lat="45.76508" lon="4.65995">
        <ele>431.3</ele>
        <time>2021-02-08T11:36:46.000Z</time>
      </trkpt>
      <trkpt lat="45.76503" lon="4.66012">
        <ele>430.6</ele>
        <time>2021-02-08T11:36:48.000Z</time>
      </trkpt>
      <trkpt lat="45.765" lon="4.66032">
        <ele>429.8</ele>
        <time>2021-02-08T11:36:50.000Z</time>
      </trkpt>
      <trkpt lat="45.76497" lon="4.66053">
        <ele>428</ele>
        <time>2021-02-08T11:36:52.000Z</time>
      </trkpt>
      <trkpt lat="45.76495" lon="4.66073">
        <ele>426.3</ele>
        <time>2021-02-08T11:36:54.000Z</time>
      </trkpt>
      <trkpt lat="45.76497" lon="4.66093">
        <ele>425.7</ele>
        <time>2021-02-08T11:36:56.000Z</time>
      </trkpt>
      <trkpt lat="45.76506" lon="4.66109">
        <ele>425</ele>
        <time>2021-02-08T11:36:58.000Z</time>
      </trkpt>
      <trkpt lat="45.76513" lon="4.66116">
        <ele>424.4</ele>
        <time>2021-02-08T11:37:00.000Z</time>
      </trkpt>
      <trkpt lat="45.76525" lon="4.66118">
        <ele>423.6</ele>
        <time>2021-02-08T11:37:02.000Z</time>
      </trkpt>
      <trkpt lat="45.76538" lon="4.6612">
        <ele>422.7</ele>
        <time>2021-02-08T11:37:04.000Z</time>
      </trkpt>
      <trkpt lat="45.76551" lon="4.66119">
        <ele>421.9</ele>
        <time>2021-02-08T11:37:06.000Z</time>
      </trkpt>
      <trkpt lat="45.76565" lon="4.66114">
        <ele>421.3</ele>
        <time>2021-02-08T11:37:08.000Z</time>
      </trkpt>
      <trkpt lat="45.76579" lon="4.66108">
        <ele>421</ele>
        <time>2021-02-08T11:37:10.000Z</time>
      </trkpt>
      <trkpt lat="45.76588" lon="4.66097">
        <ele>420.8</ele>
        <time>2021-02-08T11:37:12.000Z</time>
      </trkpt>
      <trkpt lat="45.76595" lon="4.66086">
        <ele>420.7</ele>
        <time>2021-02-08T11:37:14.000Z</time>
      </trkpt>
      <trkpt lat="45.76604" lon="4.66081">
        <ele>420.6</ele>
        <time>2021-02-08T11:37:16.000Z</time>
      </trkpt>
      <trkpt lat="45.76612" lon="4.66077">
        <ele>420.6</ele>
        <time>2021-02-08T11:37:20.000Z</time>
      </trkpt>
      <trkpt lat="45.76612" lon="4.66077">
        <ele>420.6</ele>
        <time>2021-02-08T11:37:22.000Z</time>
      </trkpt>
      <trkpt lat="45.76612" lon="4.66077">
        <ele>420.6</ele>
        <time>2021-02-08T11:37:35.000Z</time>
      </trkpt>
      <trkpt lat="45.76612" lon="4.66077">
        <ele>420.6</ele>
        <time>2021-02-08T11:37:36.000Z</time>
      </trkpt>
      <trkpt lat="45.76612" lon="4.66077">
        <ele>420.6</ele>
        <time>2021-02-08T11:37:53.000Z</time>
      </trkpt>
      <trkpt lat="45.76612" lon="4.66077">
        <ele>420.6</ele>
        <time>2021-02-08T11:37:53.000Z</time>
      </trkpt>
    </trkseg>
  </trk>
</gpx>